[[{"header":{"parameterUnit":"m.s-1","parameterCategory":1,"la1":31.0,"la2":29.5877,"lo1":-88.7671,"lo2":-86.6584,"dx":0.0162,"dy":0.0185,"nx":115,"ny":88,"refTime":"2022-12-09T06:00:00:Z","depth":0,"parameterNumber":2,"parameterNumberName":"U-component_of_WINDS"},"data":[0.0,0.0,0.0,0.0,0.0,0.0,0.0,0.0,0.0,0.0,0.0,0.0,0.0,0.0,0.0,0.0,0.0,0.0,0.0,0.0,0.0,0.0,0.0,0.0,0.0,0.0,0.0,0.0,0.0,0.0,0.0,0.0,0.0,0.0,0.0,0.0,0.0,0.0,0.0,0.0,0.0,0.0,0.0,0.0,0.0,0.0,0.0,0.0,0.0,0.0,0.0,0.0,0.0,0.0,0.0,0.0,0.0,0.0,0.0,0.0,0.0,0.0,0.0,0.0,0.0,0.0,0.0,0.0,0.0,0.0,0.0,0.0,0.0,0.0,0.0,0.0,0.0,0.0,0.0,0.0,0.0,0.0,0.0,0.0,0.0,0.0,0.0,0.0,0.0,0.0,0.0,0.0,0.0,0.0,0.0,0.0,0.0,0.0,0.0,0.0,0.0,0.0,0.0,0.0,0.0,0.0,0.0,0.0,0.0,0.0,0.0,0.0,0.0,0.0,0.0,0.0,0.0,0.0,0.0,0.0,0.0,0.0,0.0,0.0,0.0,0.0,0.0,0.0,0.0,0.0,0.0,0.0,0.0,0.0,0.0,0.0,0.0,0.0,0.0,0.0,0.0,0.0,0.0,0.0,0.0,0.0,0.0,0.0,0.0,0.0,0.0,0.0,0.0,0.0,0.0,0.0,0.0,0.0,0.0,0.0,0.0,0.0,0.0,0.0,0.0,0.0,0.0,0.0,0.0,0.0,0.0,0.0,0.0,0.0,0.0,0.0,0.0,0.0,0.0,0.0,0.0,0.0,0.0,0.0,0.0,0.0,0.0,0.0,0.0,0.0,0.0,0.0,0.0,0.0,0.0,0.0,0.0,0.0,0.0,0.0,0.0,0.0,0.0,0.0,0.0,0.0,0.0,0.0,0.0,0.0,0.0,0.0,0.0,0.0,0.0,0.0,0.0,0.0,0.0,0.0,0.0,0.0,0.0,0.0,0.0,0.0,0.0,0.0,0.0,0.0,0.0,0.0,0.0,0.0,0.0,0.0,0.0,0.0,0.0,0.0,0.0,0.0,0.0,0.0,0.0,0.0,0.0,0.0,0.0,0.0,0.0,0.0,0.0,0.0,0.0,0.0,0.0,0.0,0.0,0.0,0.0,0.0,0.0,0.0,0.0,0.0,0.0,0.0,0.0,0.0,0.0,0.0,0.0,0.0,0.0,0.0,0.0,0.0,0.0,0.0,0.0,0.0,0.0,0.0,0.0,0.0,0.0,0.0,0.0,0.0,0.0,0.0,0.0,0.0,0.0,0.0,0.0,0.0,0.0,0.0,0.0,0.0,0.0,0.0,0.0,0.0,0.0,0.0,0.0,0.0,0.0,0.0,0.0,0.0,0.0,0.0,0.0,0.0,0.0,0.0,0.0,0.0,0.0,0.0,0.0,0.0,0.0,0.0,0.0,0.0,0.0,0.0,0.0,0.0,0.0,0.0,0.0,0.0,0.0,0.0,0.0,0.0,0.0,0.0,0.0,0.0,0.0,0.0,0.0,0.0,0.0,0.0,0.0,0.0,0.0,0.0,0.0,0.0,0.0,0.0,0.0,0.0,0.0,0.0,0.0,0.0,0.0,0.0,0.0,0.0,0.0,0.0,0.0,0.0,0.0,0.0,0.0,0.0,0.0,0.0,0.0,0.0,0.0,0.0,0.0,0.0,0.0,0.0,0.0,0.0,0.0,0.0,0.0,0.0,0.0,0.0,0.0,0.0,0.0,0.0,0.0,0.0,0.0,0.0,0.0,0.0,0.0,0.0,0.0,0.0,0.0,0.0,0.0,0.0,0.0,0.0,0.0,0.0,0.0,0.0,0.0,0.0,0.0,0.0,0.0,0.0,0.0,0.0,0.0,0.0,0.0,0.0,0.0,0.0,0.0,0.0,0.0,0.0,0.0,0.0,0.0,0.0,0.0,0.0,0.0,0.0,0.0,0.0,0.0,0.0,0.0,0.0,0.0,0.0,0.0,0.0,0.0,0.0,0.0,0.0,0.0,0.0,0.0,0.0,0.0,0.0,0.0,0.0,0.0,0.0,0.0,0.0,0.0,0.0,0.0,0.0,0.0,0.0,0.0,0.0,0.0,0.0,0.0,0.0,0.0,0.0,0.0,0.0,0.0,0.0,0.0,0.0,0.0,0.0,0.0,0.0,0.0,0.0,0.0,0.0,0.0,0.0,0.0,0.0,0.0,0.0,0.0,0.0,0.0,0.0,0.0,0.0,0.0,0.0,0.0,0.0,0.0,0.0,0.0,0.0,0.0,0.0,0.0,0.0,0.0,0.0,0.0,0.0,0.0,0.0,0.0,0.0,0.0,0.0,0.0,0.0,0.0,0.0,0.0,0.0,0.0,0.0,0.0,0.0,0.0,0.0,0.0,0.0,0.0,0.0,0.0,0.0,0.0,0.0,0.0,0.0,0.0,0.0,0.0,0.0,0.0,0.0,0.0,0.0,0.0,0.0,0.0,0.0,0.0,0.0,0.0,0.0,0.0,0.0,0.0,0.0,0.0,0.0,0.0,0.0,0.0,0.0,0.0,0.0,0.0,0.0,0.0,0.0,0.0,0.0,0.0,0.0,0.0,0.0,0.0,0.0,0.0,0.0,0.0,0.0,0.0,0.0,0.0,0.0,0.0,0.0,0.0,0.0,0.0,0.0,0.0,0.0,0.0,0.0,0.0,0.0,0.0,0.0,0.0,0.0,0.0,0.0,0.0,0.0,0.0,0.0,0.0,0.0,0.0,0.0,0.0,0.0,0.0,0.0,0.0,0.0,0.0,0.0,0.0,0.0,0.0,0.0,0.0,0.0,0.0,0.0,0.0,0.0,0.0,0.0,0.0,0.0,0.0,0.0,0.0,0.0,0.0,0.0,0.0,0.0,0.0,0.0,0.0,0.0,0.0,0.0,0.0,0.0,0.0,0.0,0.0,0.0,0.0,0.0,0.0,0.0,0.0,0.0,0.0,0.0,0.0,0.0,0.0,0.0,0.0,0.0,0.0,0.0,0.0,0.0,0.0,0.0,0.0,0.0,0.0,0.0,0.0,0.0,0.0,0.0,0.0,0.0,0.0,0.0,0.0,0.0,0.0,0.0,0.0,0.0,0.0,0.0,0.0,0.0,0.0,0.0,0.0,0.0,0.0,0.0,0.0,0.0,0.0,0.0,0.0,0.0,0.0,0.0,0.0,0.0,0.0,0.0,0.0,0.0,0.0,0.0,0.0,0.0,0.0,0.0,0.0,0.0,0.0,0.0,0.0,0.0,0.0,0.0,0.0,0.0,0.0,0.0,0.0,0.0,0.0,0.0,0.0,0.0,0.0,0.0,0.0,0.0,0.0,0.0,0.0,0.0,0.0,0.0,0.0,0.0,0.0,0.0,0.0,0.0,0.0,0.0,0.0,0.0,0.0,0.0,0.0,0.0,0.0,0.0,0.0,0.0,0.0,0.0,0.0,0.0,0.0,0.0,0.0,0.0,0.0,0.0,0.0,0.0,0.0,0.0,0.0,0.0,0.0,0.0,0.0,0.0,0.0,0.0,0.0,0.0,0.0,0.0,0.0,0.0,0.0,0.0,0.0,0.0,0.0,0.0,0.0,0.0,0.0,0.0,0.0,0.0,0.0,0.0,0.0,0.0,0.0,0.0,0.0,0.0,0.0,0.0,0.0,0.0,0.0,0.0,0.0,0.0,0.0,0.0,0.0,0.0,0.0,0.0,0.0,0.0,0.0,0.0,0.0,0.0,0.0,0.0,0.0,0.0,0.0,0.0,0.0,0.0,0.0,0.0,0.0,0.0,0.0,0.0,0.0,0.0,0.0,0.0,0.0,0.0,0.0,0.0,0.0,0.0,0.0,0.0,0.0,0.0,0.0,0.0,0.0,0.0,0.0,0.0,0.0,0.0,0.0,0.0,0.0,0.0,0.0,0.0,0.0,0.0,0.0,0.0,0.0,0.0,0.0,0.0,0.0,0.0,0.0,0.0,0.0,0.0,0.0,0.0,0.0,0.0,0.0,0.0,0.0,0.0,0.0,0.0,0.0,0.0,0.0,0.0,0.0,0.0,0.0,0.0,0.0,0.0,0.0,0.0,0.0,0.0,0.0,0.0,0.0,0.0,0.0,0.0,0.0,0.0,0.0,0.0,0.0,0.0,0.0,0.0,0.0,0.0,0.0,0.0,0.0,0.0,0.0,0.0,0.0,0.0,0.0,0.0,0.0,0.0,-0.3586,0.0,0.0,0.0,-0.3602,0.0,0.0,0.0,0.0,0.0,0.0,0.0,0.0,0.0,0.0,0.0,0.0,0.0,0.0,0.0,0.0,0.0,0.0,0.0,0.0,0.0,0.0,0.0,0.0,0.0,0.0,0.0,0.0,0.0,0.0,0.0,0.0,0.0,0.0,0.0,0.0,0.0,0.0,0.0,0.0,0.0,0.0,0.0,0.0,0.0,0.0,0.0,0.0,0.0,0.0,0.0,0.0,0.0,0.0,0.0,0.0,0.0,0.0,0.0,0.0,0.0,0.0,0.0,0.0,0.0,0.0,0.0,0.0,0.0,0.0,0.0,0.0,0.0,0.0,0.0,0.0,0.0,0.0,0.0,0.0,0.0,0.0,0.0,0.0,0.0,0.0,0.0,0.0,0.0,0.0,0.0,0.0,0.0,0.0,0.0,0.0,0.0,0.0,0.0,0.0,0.0,0.0,0.0,0.0,0.0,0.0,0.0,0.0,0.0,0.0,-0.3662,-0.3664,-0.3664,-0.3667,-0.365,0.0,0.0,0.0,0.0,0.0,0.0,0.0,0.0,0.0,0.0,0.0,0.0,0.0,0.0,0.0,0.0,0.0,0.0,0.0,0.0,0.0,0.0,0.0,0.0,0.0,0.0,0.0,0.0,0.0,0.0,0.0,0.0,0.0,0.0,0.0,0.0,0.0,0.0,0.0,0.0,0.0,0.0,0.0,0.0,0.0,0.0,0.0,0.0,0.0,0.0,0.0,0.0,0.0,0.0,0.0,0.0,0.0,0.0,0.0,0.0,0.0,0.0,0.0,0.0,0.0,0.0,0.0,0.0,0.0,0.0,0.0,0.0,0.0,0.0,0.0,0.0,0.0,0.0,0.0,0.0,0.0,0.0,0.0,0.0,0.0,0.0,0.0,0.0,0.0,0.0,0.0,0.0,0.0,0.0,0.0,0.0,0.0,0.0,0.0,0.0,0.0,0.0,0.0,0.0,0.0,0.0,0.0,0.0,0.0,0.0,0.0,0.0,-0.3802,-0.372,-0.3689,0.0,0.0,0.0,0.0,0.0,0.0,0.0,0.0,0.0,0.0,0.0,0.0,0.0,0.0,0.0,0.0,0.0,0.0,0.0,0.0,0.0,0.0,0.0,0.0,0.0,0.0,0.0,0.0,0.0,0.0,0.0,0.0,0.0,0.0,0.0,0.0,0.0,0.0,0.0,0.0,0.0,0.0,0.0,0.0,0.0,0.0,0.0,0.0,0.0,0.0,0.0,0.0,0.0,0.0,0.0,0.0,0.0,0.0,0.0,0.0,0.0,0.0,0.0,0.0,0.0,0.0,0.0,0.0,0.0,0.0,0.0,0.0,0.0,0.0,0.0,0.0,0.0,0.0,0.0,0.0,0.0,0.0,0.0,0.0,0.0,0.0,0.0,0.0,0.0,0.0,0.0,0.0,0.0,0.0,0.0,0.0,0.0,0.0,0.0,0.0,0.0,0.0,0.0,0.0,0.0,0.0,0.0,0.0,0.0,0.0,-0.4082,-0.4681,-0.4111,0.0,-0.3715,0.0,0.0,0.0,0.0,0.0,0.0,0.0,0.0,0.0,0.0,0.0,0.0,0.0,0.0,0.0,0.0,0.0,0.0,0.0,0.0,0.0,0.0,0.0,0.0,0.0,0.0,0.0,0.0,0.0,0.0,0.0,0.0,0.0,0.0,0.0,0.0,0.0,0.0,0.0,0.0,0.0,0.0,0.0,0.0,0.0,0.0,0.0,0.0,0.0,0.0,0.0,0.0,0.0,0.0,0.0,0.0,0.0,0.0,0.0,0.0,0.0,0.0,0.0,0.0,0.0,0.0,0.0,0.0,0.0,0.0,0.0,0.0,0.0,0.0,0.0,0.0,0.0,0.0,0.0,0.0,0.0,0.0,0.0,0.0,0.0,0.0,0.0,0.0,0.0,0.0,0.0,0.0,0.0,0.0,0.0,0.0,0.0,0.0,0.0,0.0,0.0,0.0,0.0,0.0,0.0,0.0,0.0,0.0,0.0,0.0,-0.4523,-0.4791,-0.453,-0.4376,0.0,0.0,0.0,0.0,0.0,0.0,0.0,0.0,0.0,0.0,0.0,0.0,0.0,0.0,0.0,0.0,0.0,0.0,0.0,0.0,0.0,0.0,0.0,0.0,0.0,0.0,0.0,0.0,0.0,0.0,0.0,0.0,0.0,0.0,0.0,0.0,0.0,0.0,0.0,0.0,0.0,0.0,0.0,0.0,0.0,0.0,0.0,0.0,0.0,0.0,0.0,0.0,0.0,0.0,0.0,0.0,0.0,0.0,0.0,0.0,0.0,0.0,0.0,0.0,0.0,0.0,0.0,0.0,0.0,0.0,0.0,0.0,0.0,0.0,0.0,0.0,0.0,0.0,0.0,0.0,0.0,0.0,0.0,0.0,0.0,0.0,0.0,0.0,0.0,0.0,0.0,0.0,0.0,0.0,0.0,0.0,0.0,0.0,0.0,0.0,0.0,0.0,0.0,0.0,0.0,0.0,0.0,0.0,0.0,0.0,-0.4542,-0.4921,-0.5097,-0.5095,-0.5012,-0.4806,0.0,0.0,0.0,0.0,0.0,0.0,0.0,0.0,0.0,0.0,0.0,0.0,0.0,0.0,0.0,0.0,0.0,0.0,0.0,0.0,0.0,0.0,0.0,0.0,0.0,0.0,0.0,0.0,0.0,0.0,0.0,0.0,0.0,0.0,0.0,0.0,0.0,0.0,0.0,0.0,0.0,0.0,0.0,0.0,0.0,0.0,0.0,0.0,0.0,0.0,0.0,0.0,0.0,0.0,0.0,0.0,0.0,0.0,0.0,0.0,0.0,0.0,0.0,0.0,0.0,0.0,0.0,0.0,0.0,0.0,0.0,0.0,0.0,0.0,0.0,0.0,0.0,0.0,0.0,0.0,0.0,0.0,0.0,0.0,0.0,0.0,0.0,0.0,0.0,0.0,0.0,0.0,0.0,0.0,0.0,0.0,0.0,0.0,0.0,0.0,0.0,0.0,0.0,0.0,0.0,0.0,0.0,0.0,-0.471,-0.4853,-0.5214,-0.5856,-0.5866,-0.552,0.0,0.0,0.0,0.0,0.0,0.0,0.0,0.0,0.0,0.0,0.0,0.0,0.0,0.0,0.0,0.0,0.0,0.0,0.0,0.0,0.0,0.0,0.0,0.0,0.0,0.0,0.0,0.0,0.0,0.0,0.0,0.0,0.0,0.0,0.0,0.0,0.0,0.0,0.0,0.0,0.0,0.0,0.0,0.0,0.0,0.0,0.0,0.0,0.0,0.0,0.0,0.0,0.0,0.0,0.0,0.0,0.0,0.0,0.0,0.0,0.0,0.0,0.0,0.0,0.0,0.0,0.0,0.0,0.0,0.0,0.0,0.0,0.0,0.0,0.0,0.0,0.0,0.0,0.0,0.0,0.0,0.0,0.0,0.0,0.0,0.0,0.0,0.0,0.0,0.0,0.0,0.0,0.0,0.0,0.0,0.0,0.0,0.0,0.0,0.0,0.0,0.0,0.0,0.0,0.0,0.0,0.0,0.0,0.0,-0.48,-0.5745,-0.6573,-0.7201,-0.6794,-0.6207,0.0,0.0,0.0,0.0,0.0,0.0,0.0,0.0,0.0,0.0,0.0,0.0,0.0,0.0,0.0,0.0,0.0,0.0,0.0,0.0,0.0,0.0,0.0,0.0,0.0,0.0,0.0,0.0,0.0,0.0,0.0,0.0,0.0,0.0,0.0,0.0,0.0,0.0,0.0,0.0,0.0,0.0,0.0,0.0,0.0,0.0,0.0,0.0,0.0,0.0,0.0,0.0,0.0,0.0,0.0,0.0,0.0,0.0,0.0,0.0,0.0,0.0,0.0,0.0,0.0,0.0,0.0,0.0,0.0,0.0,0.0,0.0,0.0,0.0,0.0,0.0,0.0,0.0,0.0,0.0,0.0,0.0,0.0,0.0,0.0,0.0,0.0,0.0,0.0,0.0,0.0,0.0,0.0,0.0,0.0,0.0,0.0,0.0,0.0,0.0,0.0,0.0,0.0,0.0,0.0,0.0,0.0,0.0,0.0,-0.5468,-0.6691,-0.7546,-0.7975,-0.7315,-0.6615,0.0,0.0,0.0,0.0,0.0,0.0,0.0,0.0,0.0,0.0,0.0,0.0,0.0,0.0,0.0,0.0,0.0,0.0,0.0,0.0,0.0,0.0,0.0,0.0,0.0,0.0,0.0,0.0,0.0,0.0,0.0,0.0,0.0,0.0,0.0,0.0,0.0,0.0,0.0,0.0,0.0,0.0,0.0,0.0,0.0,0.0,0.0,0.0,0.0,0.0,0.0,0.0,0.0,0.0,0.0,0.0,0.0,0.0,0.0,0.0,0.0,0.0,0.0,0.0,0.0,0.0,0.0,0.0,0.0,0.0,0.0,0.0,0.0,0.0,0.0,0.0,0.0,0.0,0.0,0.0,0.0,0.0,0.0,0.0,0.0,0.0,0.0,0.0,0.0,0.0,0.0,0.0,0.0,0.0,0.0,0.0,0.0,0.0,0.0,0.0,0.0,0.0,0.0,0.0,0.0,0.0,0.0,0.0,-0.5448,-0.6837,-0.7623,-0.8044,-0.8107,-0.7432,-0.6699,0.0,0.0,0.0,0.0,0.0,0.0,0.0,0.0,0.0,0.0,0.0,0.0,0.0,0.0,0.0,0.0,0.0,0.0,0.0,0.0,0.0,0.0,0.0,0.0,0.0,0.0,0.0,0.0,0.0,0.0,0.0,0.0,0.0,0.0,0.0,0.0,0.0,0.0,0.0,0.0,0.0,0.0,0.0,0.0,0.0,0.0,0.0,0.0,0.0,0.0,0.0,0.0,0.0,0.0,0.0,0.0,0.0,0.0,0.0,0.0,0.0,0.0,0.0,0.0,0.0,0.0,0.0,0.0,0.0,0.0,0.0,0.0,0.0,0.0,0.0,0.0,0.0,0.0,0.0,0.0,0.0,0.0,0.0,0.0,0.0,0.0,0.0,0.0,0.0,0.0,0.0,0.0,0.0,0.0,0.0,0.0,0.0,0.0,0.0,0.0,0.0,0.0,0.0,0.0,0.0,0.0,0.0,0.0,0.0,-0.7511,-0.8244,-0.8659,-0.872,-0.8462,-0.7777,0.0,0.0,0.0,0.0,0.0,0.0,0.0,0.0,0.0,0.0,0.0,0.0,0.0,0.0,0.0,0.0,0.0,0.0,0.0,0.0,0.0,0.0,0.0,0.0,0.0,0.0,0.0,0.0,0.0,0.0,0.0,0.0,0.0,0.0,0.0,0.0,0.0,0.0,0.0,0.0,0.0,0.0,0.0,0.0,0.0,0.0,0.0,0.0,0.0,0.0,0.0,0.0,0.0,0.0,0.0,0.0,0.0,0.0,0.0,0.0,0.0,0.0,0.0,0.0,0.0,0.0,0.0,0.0,0.0,0.0,0.0,0.0,0.0,0.0,0.0,0.0,0.0,0.0,0.0,0.0,0.0,0.0,0.0,0.0,0.0,0.0,0.0,0.0,0.0,0.0,0.0,0.0,0.0,0.0,0.0,0.0,0.0,0.0,0.0,0.0,0.0,0.0,0.0,0.0,0.0,0.0,0.0,0.0,0.0,-0.8462,-0.8974,-0.9273,-0.934,-0.9049,-0.8387,-0.7301,0.0,0.0,0.0,0.0,0.0,0.0,0.0,0.0,0.0,0.0,0.0,0.0,0.0,0.0,0.0,0.0,0.0,0.0,0.0,0.0,0.0,0.0,0.0,0.0,0.0,0.0,0.0,0.0,0.0,0.0,0.0,0.0,0.0,0.0,0.0,0.0,0.0,0.0,0.0,0.0,0.0,0.0,0.0,0.0,0.0,0.0,0.0,0.0,0.0,0.0,0.0,0.0,0.0,0.0,0.0,0.0,0.0,0.0,0.0,0.0,0.0,0.0,0.0,0.0,0.0,0.0,0.0,0.0,0.0,0.0,0.0,0.0,0.0,0.0,0.0,0.0,0.0,0.0,0.0,0.0,0.0,0.0,0.0,0.0,0.0,0.0,0.0,0.0,0.0,0.0,0.0,0.0,0.0,0.0,0.0,0.0,0.0,0.0,0.0,0.0,0.0,0.0,0.0,0.0,0.0,0.0,0.0,0.0,-0.9676,-0.9863,-0.995,-0.9926,-0.9295,-0.8626,0.0,0.0,0.0,0.0,0.0,0.0,0.0,0.0,0.0,0.0,0.0,0.0,0.0,0.0,0.0,0.0,0.0,0.0,0.0,0.0,0.0,0.0,0.0,0.0,0.0,0.0,0.0,0.0,0.0,0.0,0.0,0.0,0.0,0.0,0.0,0.0,0.0,0.0,0.0,0.0,0.0,0.0,0.0,0.0,0.0,0.0,0.0,0.0,0.0,0.0,0.0,0.0,0.0,0.0,0.0,0.0,0.0,0.0,0.0,0.0,0.0,0.0,0.0,0.0,0.0,0.0,0.0,0.0,0.0,0.0,0.0,0.0,0.0,0.0,0.0,0.0,0.0,0.0,0.0,0.0,0.0,0.0,0.0,0.0,0.0,0.0,0.0,0.0,0.0,0.0,0.0,0.0,0.0,0.0,0.0,0.0,0.0,0.0,0.0,0.0,0.0,0.0,0.0,0.0,0.0,0.0,0.0,0.0,0.0,-1.0733,-1.1351,-1.1282,-1.0523,-0.9852,-0.9142,0.0,0.0,0.0,0.0,0.0,0.0,0.0,0.0,0.0,0.0,0.0,0.0,0.0,0.0,0.0,0.0,0.0,0.0,0.0,0.0,0.0,0.0,0.0,0.0,0.0,0.0,0.0,0.0,0.0,0.0,0.0,0.0,0.0,0.0,0.0,0.0,0.0,0.0,0.0,0.0,0.0,0.0,0.0,0.0,0.0,0.0,0.0,0.0,0.0,0.0,0.0,0.0,0.0,0.0,0.0,0.0,0.0,0.0,0.0,0.0,0.0,0.0,0.0,0.0,0.0,0.0,0.0,0.0,0.0,0.0,0.0,0.0,0.0,0.0,0.0,0.0,0.0,0.0,0.0,0.0,0.0,0.0,0.0,0.0,0.0,0.0,0.0,0.0,0.0,0.0,0.0,0.0,0.0,0.0,0.0,0.0,0.0,0.0,0.0,0.0,0.0,0.0,0.0,0.0,0.0,0.0,0.0,0.0,-0.9983,-1.1106,-1.2069,-1.2166,-1.1369,-1.0711,-0.994,0.0,0.0,0.0,0.0,0.0,0.0,0.0,0.0,0.0,0.0,0.0,0.0,0.0,0.0,0.0,0.0,0.0,0.0,0.0,0.0,0.0,0.0,0.0,0.0,0.0,0.0,0.0,0.0,0.0,0.0,0.0,0.0,0.0,0.0,0.0,0.0,0.0,0.0,0.0,0.0,0.0,0.0,0.0,0.0,0.0,0.0,0.0,0.0,0.0,0.0,0.0,0.0,0.0,0.0,0.0,0.0,0.0,0.0,0.0,0.0,0.0,0.0,0.0,0.0,0.0,0.0,0.0,0.0,0.0,0.0,0.0,0.0,0.0,0.0,0.0,0.0,0.0,0.0,0.0,0.0,0.0,0.0,0.0,0.0,0.0,0.0,0.0,0.0,0.0,0.0,0.0,0.0,0.0,0.0,0.0,0.0,0.0,0.0,0.0,0.0,0.0,0.0,0.0,0.0,0.0,0.0,0.0,0.0,-1.029,-1.115,-1.2348,-1.2763,-1.2337,-1.1661,-1.0721,0.0,0.0,0.0,0.0,0.0,0.0,0.0,0.0,0.0,0.0,0.0,0.0,0.0,0.0,0.0,0.0,0.0,0.0,0.0,0.0,0.0,0.0,0.0,0.0,0.0,0.0,0.0,0.0,0.0,0.0,0.0,0.0,0.0,0.0,0.0,0.0,0.0,0.0,0.0,0.0,0.0,0.0,0.0,0.0,0.0,0.0,0.0,0.0,0.0,0.0,0.0,0.0,0.0,0.0,0.0,0.0,0.0,0.0,0.0,0.0,0.0,0.0,0.0,0.0,0.0,0.0,0.0,0.0,0.0,0.0,0.0,0.0,0.0,0.0,0.0,0.0,0.0,0.0,0.0,0.0,0.0,0.0,0.0,0.0,0.0,0.0,0.0,0.0,0.0,0.0,0.0,0.0,0.0,0.0,0.0,0.0,0.0,0.0,0.0,0.0,0.0,0.0,0.0,0.0,0.0,0.0,0.0,0.0,-1.0872,-1.2089,-1.2987,-1.3404,-1.3295,-1.1956,-1.0622,0.0,0.0,0.0,0.0,0.0,0.0,0.0,0.0,0.0,0.0,0.0,0.0,0.0,0.0,0.0,0.0,0.0,0.0,0.0,0.0,0.0,0.0,0.0,0.0,0.0,0.0,0.0,0.0,0.0,0.0,0.0,0.0,0.0,0.0,0.0,0.0,0.0,0.0,0.0,0.0,0.0,0.0,0.0,0.0,0.0,0.0,0.0,0.0,-0.5151,0.0,0.0,0.0,0.0,0.0,0.0,0.0,0.0,0.0,0.0,0.0,0.0,0.0,0.0,0.0,0.0,0.0,0.0,0.0,0.0,0.0,0.0,0.0,0.0,0.0,0.0,0.0,0.0,0.0,0.0,0.0,0.0,0.0,0.0,0.0,0.0,0.0,0.0,0.0,0.0,0.0,0.0,0.0,0.0,0.0,0.0,0.0,0.0,0.0,0.0,0.0,0.0,0.0,0.0,0.0,0.0,0.0,0.0,0.0,-1.1222,-1.2334,-1.3372,-1.382,-1.3558,-1.2443,-1.1098,0.0,0.0,0.0,0.0,0.0,0.0,0.0,0.0,0.0,0.0,0.0,0.0,0.0,0.0,0.0,0.0,0.0,0.0,0.0,0.0,0.0,0.0,0.0,0.0,0.0,0.0,0.0,0.0,0.0,0.0,0.0,0.0,0.0,0.0,0.0,0.0,0.0,0.0,0.0,0.0,0.0,0.0,0.0,0.0,0.0,0.0,0.0,0.0,0.0,0.0,0.0,0.0,0.0,0.0,0.0,0.0,0.0,0.0,0.0,0.0,0.0,0.0,0.0,0.0,0.0,0.0,0.0,0.0,0.0,0.0,0.0,0.0,0.0,0.0,0.0,0.0,0.0,0.0,0.0,0.0,0.0,0.0,0.0,0.0,0.0,0.0,0.0,0.0,0.0,0.0,0.0,0.0,0.0,0.0,0.0,0.0,0.0,0.0,0.0,0.0,0.0,0.0,0.0,0.0,0.0,0.0,0.0,-1.0155,-1.1538,-1.2401,-1.3617,-1.4097,-1.3684,-1.2885,-1.1662,-0.9983,0.0,0.0,0.0,0.0,0.0,0.0,0.0,0.0,0.0,0.0,0.0,0.0,0.0,0.0,0.0,0.0,0.0,0.0,0.0,0.0,0.0,0.0,0.0,0.0,0.0,0.0,0.0,0.0,0.0,0.0,0.0,0.0,0.0,0.0,0.0,0.0,0.0,0.0,-0.3816,-0.4494,0.0,0.0,0.0,0.0,0.0,0.0,0.0,0.0,-0.5956,0.0,0.0,0.0,0.0,0.0,0.0,0.0,0.0,0.0,0.0,0.0,0.0,0.0,0.0,0.0,0.0,0.0,0.0,0.0,0.0,0.0,0.0,0.0,0.0,0.0,0.0,0.0,0.0,0.0,0.0,0.0,0.0,0.0,0.0,0.0,0.0,0.0,0.0,0.0,0.0,0.0,0.0,0.0,0.0,0.0,0.0,0.0,0.0,0.0,0.0,0.0,0.0,0.0,0.0,0.0,0.0,-0.8687,-1.0645,-1.204,-1.2804,-1.3721,-1.4172,-1.4083,-1.2902,-1.1559,-1.01,0.0,0.0,0.0,0.0,0.0,0.0,0.0,0.0,0.0,0.0,0.0,0.0,0.0,0.0,0.0,0.0,0.0,0.0,0.0,0.0,0.0,0.0,0.0,0.0,0.0,0.0,0.0,0.0,0.0,0.0,0.0,0.0,0.0,0.0,0.0,0.0,0.0,0.0,0.0,-0.4741,-0.5003,0.0,0.0,0.0,0.0,0.0,0.0,0.0,0.0,-0.6022,0.0,0.0,0.0,0.0,0.0,0.0,0.0,0.0,0.0,0.0,0.0,0.0,0.0,0.0,0.0,0.0,0.0,0.0,0.0,0.0,0.0,0.0,0.0,0.0,0.0,0.0,0.0,0.0,0.0,0.0,0.0,0.0,0.0,0.0,0.0,0.0,0.0,0.0,0.0,0.0,0.0,0.0,0.0,0.0,0.0,0.0,0.0,0.0,0.0,0.0,0.0,0.0,0.0,0.0,0.0,-0.8797,-1.0715,-1.2211,-1.3282,-1.3824,-1.4249,-1.4513,-1.3001,-1.1488,0.0,0.0,0.0,0.0,0.0,0.0,0.0,0.0,0.0,0.0,0.0,0.0,0.0,0.0,0.0,0.0,0.0,0.0,0.0,0.0,0.0,0.0,0.0,0.0,0.0,0.0,0.0,0.0,0.0,0.0,0.0,0.0,0.0,0.0,0.0,0.0,0.0,0.0,0.0,0.0,-0.5136,-0.5475,-0.5911,0.0,0.0,0.0,0.0,0.0,0.0,-0.6832,-0.6653,0.0,0.0,0.0,0.0,0.0,0.0,0.0,0.0,0.0,0.0,0.0,0.0,0.0,0.0,0.0,0.0,0.0,0.0,0.0,0.0,0.0,0.0,0.0,0.0,0.0,0.0,0.0,0.0,0.0,0.0,0.0,0.0,0.0,0.0,0.0,0.0,0.0,0.0,0.0,0.0,0.0,0.0,0.0,0.0,0.0,0.0,0.0,0.0,0.0,0.0,0.0,0.0,0.0,0.0,0.0,-0.8948,-1.0673,-1.2316,-1.3791,-1.4013,-1.4379,-1.4824,-1.3135,-1.1472,0.0,0.0,0.0,0.0,0.0,0.0,0.0,0.0,0.0,0.0,0.0,0.0,0.0,0.0,0.0,0.0,0.0,0.0,0.0,0.0,0.0,0.0,0.0,0.0,0.0,0.0,0.0,0.0,0.0,0.0,0.0,0.0,0.0,0.0,0.0,0.0,0.0,0.0,0.0,0.0,0.0,-0.5987,-0.6335,-0.6944,0.0,0.0,0.0,0.0,-0.7833,-0.7562,0.0,0.0,0.0,0.0,0.0,0.0,0.0,0.0,0.0,0.0,0.0,0.0,0.0,0.0,0.0,0.0,0.0,0.0,0.0,0.0,0.0,0.0,0.0,0.0,0.0,0.0,0.0,0.0,0.0,0.0,0.0,0.0,0.0,0.0,0.0,0.0,0.0,0.0,0.0,0.0,0.0,0.0,0.0,0.0,0.0,0.0,0.0,0.0,0.0,0.0,0.0,0.0,0.0,0.0,0.0,0.0,-0.9439,-1.0765,-1.2389,-1.4283,-1.4478,-1.462,-1.4794,-1.3327,-1.1634,0.0,0.0,0.0,0.0,0.0,0.0,0.0,0.0,0.0,0.0,0.0,0.0,0.0,0.0,0.0,0.0,0.0,0.0,0.0,0.0,0.0,0.0,0.0,0.0,0.0,0.0,0.0,0.0,0.0,0.0,0.0,0.0,0.0,0.0,0.0,0.0,0.0,0.0,0.0,0.0,0.0,-0.6114,-0.6272,-0.704,-0.7703,0.0,0.0,-0.8053,-0.8044,-0.7817,0.0,0.0,0.0,0.0,0.0,0.0,0.0,0.0,0.0,0.0,0.0,0.0,0.0,0.0,0.0,0.0,0.0,0.0,0.0,0.0,0.0,0.0,0.0,0.0,0.0,0.0,0.0,0.0,0.0,0.0,0.0,0.0,0.0,0.0,0.0,0.0,0.0,0.0,0.0,0.0,0.0,0.0,0.0,0.0,0.0,0.0,0.0,0.0,0.0,0.0,0.0,0.0,0.0,0.0,0.0,-0.7122,-0.9384,-1.1006,-1.2753,-1.4643,-1.4986,-1.5071,-1.5029,-1.342,-1.1677,0.0,0.0,0.0,0.0,0.0,0.0,0.0,0.0,0.0,0.0,0.0,0.0,0.0,0.0,0.0,0.0,0.0,0.0,0.0,0.0,0.0,0.0,0.0,0.0,0.0,0.0,0.0,0.0,0.0,0.0,0.0,0.0,0.0,0.0,0.0,0.0,0.0,0.0,0.0,0.0,0.0,0.0,-0.6558,-0.7271,0.0,0.0,0.0,-0.8512,-0.8401,0.0,0.0,0.0,0.0,0.0,0.0,0.0,0.0,0.0,0.0,0.0,0.0,0.0,0.0,0.0,0.0,0.0,0.0,0.0,0.0,0.0,0.0,0.0,0.0,0.0,0.0,0.0,0.0,0.0,0.0,0.0,0.0,0.0,0.0,0.0,0.0,0.0,0.0,0.0,0.0,0.0,0.0,0.0,0.0,0.0,0.0,0.0,0.0,0.0,0.0,0.0,0.0,0.0,0.0,0.0,0.0,0.0,-0.9218,-1.1078,-1.2959,-1.4833,-1.5364,-1.5485,-1.5184,-1.3644,0.0,0.0,0.0,0.0,0.0,0.0,0.0,0.0,0.0,0.0,0.0,0.0,0.0,0.0,0.0,0.0,0.0,0.0,0.0,0.0,0.0,0.0,0.0,0.0,0.0,0.0,0.0,-0.1426,0.0,0.0,0.0,0.0,0.0,0.0,0.0,0.0,0.0,0.0,0.0,0.0,0.0,0.0,-0.6634,-0.684,-0.7556,-0.8213,0.0,0.0,-0.8916,-0.8811,-0.8694,-0.8439,0.0,0.0,0.0,0.0,0.0,0.0,0.0,0.0,0.0,0.0,0.0,0.0,0.0,0.0,0.0,0.0,0.0,0.0,0.0,0.0,0.0,0.0,0.0,0.0,0.0,0.0,0.0,0.0,0.0,0.0,0.0,0.0,0.0,0.0,0.0,0.0,0.0,0.0,0.0,0.0,0.0,0.0,0.0,0.0,0.0,0.0,0.0,0.0,0.0,0.0,0.0,0.0,0.0,0.0,-0.7012,-0.9103,-1.0892,-1.2832,-1.4814,-1.5538,-1.5662,-1.5197,-1.4163,-1.2476,0.0,0.0,0.0,0.0,0.0,0.0,0.0,0.0,0.0,0.0,0.0,0.0,0.0,0.0,0.0,0.0,0.0,0.0,0.0,0.0,0.0,0.0,0.0,0.0,0.0,0.0,0.0,0.0,0.0,0.0,0.0,0.0,0.0,0.0,0.0,0.0,0.0,0.0,0.0,0.0,0.0,-0.6995,-0.7065,-0.7935,-0.8811,0.0,-0.9155,-0.8927,-0.9274,-0.8813,-0.8293,-0.7942,0.0,0.0,0.0,0.0,0.0,0.0,0.0,0.0,0.0,0.0,0.0,0.0,0.0,0.0,0.0,0.0,0.0,0.0,0.0,0.0,0.0,0.0,0.0,0.0,0.0,0.0,0.0,0.0,0.0,0.0,0.0,0.0,0.0,0.0,0.0,0.0,0.0,0.0,0.0,0.0,0.0,0.0,0.0,0.0,0.0,0.0,0.0,0.0,0.0,0.0,0.0,0.0,0.0,-0.6943,-0.8951,-1.1125,-1.3047,-1.4658,-1.5803,-1.6114,-1.553,-1.4317,-1.2787,0.0,0.0,0.0,0.0,0.0,0.0,0.0,0.0,0.0,0.0,0.0,0.0,0.0,0.0,0.0,0.0,0.0,0.0,0.0,0.0,0.0,0.0,0.0,0.0,0.0,0.0,0.0,0.0,-0.2067,-0.2242,-0.2304,0.0,0.0,0.0,0.0,0.0,0.0,0.0,0.0,0.0,0.0,-0.7529,-0.7631,-0.8472,0.0,0.0,-1.0003,-0.9709,-0.9328,-0.906,-0.8742,-0.8292,-0.78,0.0,0.0,0.0,0.0,0.0,0.0,0.0,0.0,0.0,0.0,0.0,0.0,0.0,0.0,0.0,0.0,0.0,0.0,0.0,0.0,0.0,0.0,0.0,0.0,0.0,0.0,0.0,0.0,0.0,0.0,0.0,0.0,0.0,0.0,0.0,0.0,0.0,0.0,0.0,0.0,0.0,0.0,0.0,0.0,0.0,0.0,0.0,0.0,0.0,0.0,0.0,0.0,-0.7191,-0.9071,-1.147,-1.3335,-1.4591,-1.5928,-1.6306,-1.5638,-1.4493,-1.3155,0.0,0.0,0.0,0.0,0.0,0.0,0.0,0.0,0.0,0.0,0.0,0.0,0.0,0.0,0.0,0.0,0.0,0.0,0.0,0.0,0.0,0.0,0.0,0.0,0.0,0.0,0.0,0.0,-0.2384,-0.258,-0.2647,0.0,0.0,0.0,0.0,0.0,0.0,0.0,0.0,0.0,0.0,-0.7888,-0.8278,-0.895,-0.9632,-1.0261,-1.0364,-1.0083,-0.9314,-0.9124,-0.8922,-0.8391,0.0,0.0,0.0,0.0,0.0,0.0,0.0,0.0,0.0,0.0,0.0,0.0,0.0,0.0,0.0,0.0,0.0,0.0,0.0,0.0,0.0,0.0,0.0,0.0,0.0,0.0,0.0,-0.6383,0.0,0.0,-0.6046,0.0,0.0,0.0,0.0,0.0,0.0,0.0,0.0,0.0,0.0,0.0,0.0,0.0,0.0,0.0,0.0,0.0,0.0,0.0,0.0,0.0,0.0,-0.7859,-0.9491,-1.1908,-1.3633,-1.4596,-1.5853,-1.6194,-1.5531,-1.4722,-1.3592,-1.2089,0.0,0.0,0.0,0.0,0.0,0.0,0.0,0.0,0.0,0.0,0.0,0.0,0.0,0.0,0.0,0.0,0.0,0.0,0.0,0.0,0.0,0.0,0.0,0.0,0.0,0.0,-0.25,-0.2725,-0.2909,0.0,0.0,0.0,0.0,0.0,0.0,0.0,0.0,0.0,-0.6097,-0.6995,-0.7956,-0.8921,-0.9259,-0.9585,-0.9955,-0.9995,-0.9806,-0.9291,-0.9004,-0.8655,0.0,0.0,0.0,0.0,0.0,0.0,0.0,0.0,0.0,0.0,0.0,0.0,0.0,0.0,0.0,0.0,0.0,0.0,0.0,0.0,0.0,0.0,0.0,0.0,0.0,0.0,0.0,-0.9041,-0.8544,0.0,0.0,0.0,0.0,0.0,0.0,0.0,0.0,0.0,0.0,0.0,-1.1561,-1.1707,0.0,0.0,0.0,0.0,0.0,0.0,0.0,0.0,0.0,0.0,0.0,0.0,-0.8421,-0.9625,-1.2007,-1.3708,-1.459,-1.5853,-1.6376,-1.6103,-1.5264,-1.3756,-1.1498,0.0,0.0,0.0,0.0,0.0,0.0,0.0,0.0,0.0,0.0,0.0,0.0,0.0,0.0,0.0,0.0,0.0,0.0,0.0,0.0,0.0,0.0,0.0,0.0,0.0,-0.2759,0.0,0.0,0.0,0.0,0.0,0.0,0.0,0.0,0.0,0.0,-0.5007,-0.5689,-0.6547,-0.7548,-0.8353,-0.8772,-0.9384,-0.9787,0.0,0.0,0.0,0.0,0.0,0.0,0.0,0.0,0.0,0.0,0.0,0.0,0.0,-0.8723,-0.8582,-0.7988,-0.7901,-0.7954,-0.8092,0.0,0.0,0.0,0.0,0.0,0.0,0.0,0.0,0.0,0.0,0.0,0.0,0.0,0.0,-1.1221,-1.0702,-1.0296,0.0,0.0,0.0,0.0,0.0,0.0,0.0,0.0,-1.2062,-1.2719,-1.3179,-1.3502,-1.3368,-1.2775,-1.2298,-1.1096,0.0,0.0,0.0,0.0,0.0,0.0,0.0,0.0,-0.9253,-1.0556,-1.2596,-1.4063,-1.4953,-1.5938,-1.6442,-1.6321,-1.5371,-1.3703,-1.1333,-0.9436,-0.7808,0.0,0.0,0.0,0.0,0.0,0.0,0.0,0.0,0.0,0.0,0.0,0.0,0.0,0.0,0.0,0.0,0.0,0.0,0.0,0.0,0.0,0.0,0.0,-0.329,0.0,0.0,0.0,0.0,0.0,0.0,0.0,0.0,0.0,-0.4796,-0.5403,-0.6105,-0.6797,-0.7799,-0.8516,-0.8679,0.0,0.0,0.0,0.0,0.0,0.0,0.0,-0.952,-0.9129,-0.9081,-0.9094,-0.9133,-0.9119,-0.9221,-0.9578,0.0,0.0,-0.9118,-0.9146,-0.934,-0.9451,-0.9596,-0.9851,-1.0269,-1.0729,-1.1197,0.0,0.0,0.0,0.0,-1.3455,0.0,0.0,0.0,-1.3045,-1.2917,0.0,-1.1978,0.0,0.0,0.0,0.0,-1.0683,-1.1267,0.0,0.0,-1.3712,-1.458,-1.5008,-1.4982,-1.4842,-1.4618,-1.3842,-1.3026,-1.2042,-0.9994,-0.8448,0.0,0.0,0.0,0.0,0.0,-1.0404,-1.2235,-1.3588,-1.4729,-1.5544,-1.6106,-1.6312,-1.6166,-1.5034,-1.3523,-1.1686,-1.0933,-0.9613,-0.7523,-0.6594,0.0,0.0,0.0,0.0,0.0,0.0,0.0,0.0,0.0,0.0,0.0,0.0,0.0,0.0,0.0,0.0,0.0,0.0,0.0,0.0,-0.4003,0.0,0.0,0.0,0.0,0.0,0.0,0.0,0.0,0.0,-0.486,-0.4893,-0.5811,-0.662,-0.6903,0.0,0.0,0.0,0.0,-0.9588,-0.9592,-0.9592,-0.9537,-0.9408,-0.9475,-0.9541,-0.9581,0.0,0.0,-1.0391,-1.0431,-1.0503,-1.1098,-1.1089,-1.0911,-1.0368,-1.0738,-1.1169,-1.1292,-1.1508,-1.1791,-1.1892,-1.2434,-1.3059,-1.8048,0.0,0.0,0.0,0.0,-1.4857,-1.4744,-1.4678,-1.4535,-1.4416,-1.4277,-1.3895,0.0,0.0,0.0,0.0,0.0,0.0,-1.3308,-1.4256,-1.462,-1.5339,-1.6262,-1.6122,-1.5978,-1.5862,-1.541,-1.4614,-1.3524,-1.2693,-1.1395,-0.9653,0.0,0.0,0.0,0.0,-1.1375,-1.23,-1.3625,-1.4629,-1.529,-1.5933,-1.6122,-1.5842,-1.4801,-1.392,-1.3214,-1.1812,-1.0618,-0.9675,-0.8025,0.0,0.0,0.0,0.0,0.0,0.0,0.0,0.0,0.0,0.0,0.0,0.0,0.0,0.0,0.0,0.0,0.0,0.0,0.0,-0.4566,-0.4331,-0.4236,0.0,0.0,0.0,0.0,0.0,0.0,0.0,0.0,0.0,-0.5938,-0.6266,-0.6765,0.0,0.0,-0.8499,-0.8745,-0.9077,-0.9309,-0.9305,-0.9312,0.0,-0.9409,-0.9574,-0.9716,-0.969,-0.99,-1.0092,-1.0145,-1.0259,-1.0529,-1.1146,-1.1264,-1.1307,-1.1613,-1.1738,-1.1949,-1.2181,-1.2303,-1.2466,-1.2808,-1.3131,-1.3463,-2.0167,-1.7981,-1.7785,-1.7581,-1.7436,-1.7236,-1.7107,-1.7038,-1.6861,-1.6726,-1.6564,-1.6045,-1.5299,-1.4387,-1.376,0.0,0.0,0.0,-1.4887,-1.5764,-1.6037,-1.6465,-1.7057,-1.7155,-1.7019,-1.6665,-1.6437,-1.5822,-1.4849,-1.4667,-1.3878,-1.2462,0.0,-1.0807,-1.1109,-1.1678,-1.2455,-1.3444,-1.4239,-1.4959,-1.5578,-1.5892,-1.5887,-1.5525,-1.4843,-1.4315,-1.3943,-1.2771,-1.1712,-1.0909,-0.9524,-0.822,0.0,0.0,0.0,0.0,0.0,0.0,0.0,0.0,0.0,0.0,0.0,-0.3481,-0.3455,0.0,0.0,0.0,-0.4863,-0.5254,-0.544,-0.5098,0.0,0.0,0.0,0.0,0.0,0.0,0.0,-0.5647,-0.621,-0.6628,-0.6828,-0.6895,-0.7172,-0.7728,-0.8092,-0.8452,-0.8758,0.0,-0.9035,-0.9061,-0.9031,-0.9133,-0.9439,-0.9658,-0.9879,-1.013,-1.0464,-1.0709,-1.0696,-1.0786,-1.1044,-1.1496,-1.1625,-1.1789,-1.2305,-1.2404,-1.2529,-1.2909,-1.3181,-1.3423,-1.375,-1.3961,-1.4185,-2.181,-2.085,-2.0638,-2.0368,-2.0073,-1.9874,-1.9745,-1.9664,-1.9468,-1.932,-1.9131,-1.8201,-1.7266,-1.6346,-1.5255,0.0,-1.5268,-1.5887,-1.6448,-1.6968,-1.7584,-1.7766,-1.7597,-1.8066,-1.7896,-1.7174,-1.7105,-1.6732,-1.6089,-1.598,-1.5831,-1.5447,-1.297,-1.2174,-1.3023,-1.2913,-1.3634,-1.5162,-1.5165,-1.5481,-1.611,-1.5903,-1.5608,-1.5284,-1.5034,-1.4603,-1.4065,-1.369,-1.2871,-1.1485,-1.0995,-0.9869,-0.8014,0.0,0.0,0.0,0.0,0.0,0.0,0.0,0.0,0.0,0.0,0.0,0.0,0.0,0.0,-0.5392,-0.5737,0.0,-0.6324,-0.61,0.0,0.0,0.0,-0.5677,-0.5693,-0.5947,-0.6188,-0.6447,0.0,0.0,-0.7531,-0.7613,-0.7682,-0.7796,-0.8036,-0.8328,-0.8672,-0.8728,-0.8752,-0.8699,-0.8758,-0.8956,-0.9387,-0.9658,-1.0047,-1.0685,-1.1251,-1.1475,-1.1625,-1.1679,-1.1801,-1.2026,-1.2067,-1.219,-1.2627,-1.2759,-1.3012,-1.3426,-1.3938,-1.4346,-1.4509,-1.4767,-1.5039,-2.2796,-2.235,-2.2104,-2.1211,-1.9942,-1.9796,-1.9673,-1.9542,-1.9444,-1.93,-1.9086,-1.8674,-1.8058,-1.733,-1.6967,-1.6677,-1.6484,-1.6644,-1.6979,-1.7431,-1.7582,-1.7829,-1.8122,-1.8192,-1.8059,-1.779,-1.7718,-1.736,-1.6772,-1.6599,-1.6237,-1.5716,-1.4774,-1.4328,-1.4412,-1.4242,-1.4499,-1.5207,-1.5064,-1.52,-1.5645,-1.5497,-1.5323,-1.5159,-1.4943,-1.4709,-1.4466,-1.3943,-1.3276,-1.2472,-1.1628,-1.0665,-0.9567,-0.8376,0.0,0.0,0.0,0.0,0.0,0.0,0.0,0.0,0.0,-0.5051,-0.5304,0.0,-0.601,0.0,-0.637,-0.6512,-0.6726,-0.6431,0.0,0.0,-0.6505,-0.6523,-0.6523,-0.6756,-0.6942,-0.6982,-0.7246,-0.7452,-0.7602,-0.7728,-0.7826,-0.7888,-0.8045,-0.8198,-0.8138,-0.8251,-0.8301,-0.8204,-0.8403,-0.8672,-0.8999,-0.9532,-1.0147,-1.0671,-1.1179,-1.1553,-1.1762,-1.1907,-1.2026,-1.2076,-1.2076,-1.2224,-1.25,-1.2647,-1.2866,-1.3228,-1.3639,-1.408,-1.4511,-1.4742,-1.4994,-2.3132,-2.2833,-2.2574,-2.1835,-2.0812,-2.0733,-2.0594,-2.0477,-2.0398,-2.0269,-1.9994,-1.9271,-1.8668,-1.8147,-1.7963,-1.7697,-1.7377,-1.7634,-1.7845,-1.8005,-1.8012,-1.8103,-1.824,-1.8215,-1.8109,-1.7955,-1.7909,-1.7739,-1.7407,-1.7216,-1.6936,-1.6538,-1.6179,-1.5927,-1.576,-1.5245,-1.5178,-1.5642,-1.5382,-1.5274,-1.5316,-1.5249,-1.5125,-1.4966,-1.4794,-1.4678,-1.4604,-1.4207,-1.3778,-1.3206,-1.2417,-1.1559,-1.0675,-0.9514,-0.8582,0.0,0.0,0.0,0.0,0.0,0.0,0.0,0.0,0.0,0.0,0.0,-0.697,-0.72,-0.7215,-0.7283,-0.7411,-0.7073,-0.6881,-0.6956,-0.6962,-0.6984,-0.6984,-0.7215,-0.7376,-0.7379,-0.7588,-0.7751,-0.7731,-0.7829,-0.7949,-0.8054,-0.8154,-0.8163,-0.797,-0.8163,-0.8294,-0.8287,-0.868,-0.9115,-0.9422,-1.0029,-1.0593,-1.1041,-1.1419,-1.1709,-1.1944,-1.2045,-1.2076,-1.2076,-1.2076,-1.2175,-1.2377,-1.2529,-1.272,-1.305,-1.3401,-1.3805,-1.4384,-1.4655,-1.4937,-2.307,-2.2742,-2.2492,-2.2231,-2.1998,-2.1911,-2.1819,-2.1679,-2.1619,-2.1427,-2.1071,-1.9928,-1.9202,-1.8829,-1.8631,-1.8338,-1.8055,-1.8574,-1.8702,-1.8505,-1.8505,-1.84,-1.8196,-1.8189,-1.8096,-1.7909,-1.7909,-1.7889,-1.7889,-1.7733,-1.7598,-1.7488,-1.715,-1.6967,-1.6869,-1.5973,-1.5727,-1.61,-1.5804,-1.5464,-1.5102,-1.5074,-1.4983,-1.4782,-1.4655,-1.4581,-1.4575,-1.4477,-1.4194,-1.3712,-1.3195,-1.2467,-1.1526,-1.0675,-0.9807,0.0,-0.8437,0.0,0.0,0.0,0.0,0.0,0.0,0.0,0.0,-0.7569,-0.7969,-0.8131,-0.8107,-0.811,-0.8108,-0.7782,-0.7499,-0.7385,-0.7309,-0.7303,-0.7291,-0.7507,-0.7624,-0.7621,-0.7784,-0.7904,-0.7895,-0.7922,-0.8045,-0.8265,-0.8343,-0.8298,-0.8121,-0.8326,-0.857,-0.8758,-0.923,-0.9571,-1.0071,-1.0572,-1.0993,-1.1487,-1.1699,-1.1914,-1.2202,-1.217,-1.2113,-1.2252,-1.2292,-1.2353,-1.2442,-1.2585,-1.2784,-1.3165,-1.345,-1.3802,-1.4248,-1.4581,-1.4931,-2.2855,-2.2627,-2.2346,-2.2147,-2.1998,-2.1861,-2.1746,-2.162,-2.1612,-2.1325,-2.0836,-2.0335,-1.9872,-1.9513,-1.9294,-1.9008,-1.8646,-1.8734,-1.8683,-1.8505,-1.8505,-1.8386,-1.8196,-1.8189,-1.8103,-1.7922,-1.7909,-1.7848,-1.7713,-1.7598,-1.7495,-1.7412,-1.7086,-1.6911,-1.6876,0.0,0.0,0.0,-1.547,-1.5227,-1.4937,-1.4869,-1.4799,-1.4655,-1.4627,0.0,-1.4454,-1.4402,-1.4188,-1.3723,-1.3581,0.0,0.0,0.0,0.0,0.0,0.0,0.0,0.0,0.0,0.0,0.0,-0.7637,-0.7484,-0.8063,-0.8697,-0.9001,-0.8837,-0.8661,-0.8472,-0.8264,-0.8008,-0.7819,-0.7779,-0.7774,-0.7775,-0.7781,-0.782,-0.7826,-0.7853,-0.7868,-0.7907,-0.7925,-0.8078,-0.8234,-0.8315,-0.8502,-0.8605,-0.8575,-0.8626,-0.8839,-0.927,-0.9378,-0.9532,-1.0052,-1.0347,-1.0757,-1.1218,-1.1671,-1.203,-1.2412,-1.2282,-1.2374,-1.2878,-1.3066,-1.3115,-1.3226,-1.3399,-1.3492,-1.3824,-1.4216,-1.4475,-1.4301,-1.4454,-1.4788,-2.2756,-2.2533,-2.2299,-2.2104,0.0,-2.184,-2.1731,-2.1613,-2.1613,-2.1325,-2.0828,-2.0501,-2.0173,-1.9823,-1.9596,-1.9291,-1.8889,-1.8829,-1.869,-1.8498,-1.8505,-1.84,-1.8189,-1.8189,-1.8103,-1.7909,-1.7909,-1.7835,-1.7693,-1.7577,-1.7474,-1.739,-1.7085,-1.691,-1.6882,-1.6506,-1.6063,-1.5614,-1.5402,-1.5154,-1.4863,-1.4771,-1.4627,-1.4494,-1.4494,0.0,0.0,0.0,0.0,0.0,0.0,0.0,0.0,-1.2369,-1.1798,-1.1688,-1.0873,-1.0062,-0.9371,-0.942,-0.9415,-0.9191,-0.8923,-0.894,-0.9419,-0.9416,-0.9357,-0.9272,-0.9083,-0.8905,-0.8664,-0.8468,-0.8265,-0.809,-0.8029,-0.8008,-0.7928,-0.7904,-0.7904,-0.7919,-0.8018,-0.8093,-0.8093,-0.8349,-0.8557,-0.8683,-0.8783,-0.8951,-0.9037,-0.8987,-0.9092,-0.966,-0.9837,-1.005,-1.05,-1.083,-1.1111,-1.1679,-1.1948,-1.2249,-1.2667,-1.2622,-1.2665,-1.31,-1.3519,-1.3824,-1.3488,-1.3499,-1.3679,-1.3948,-1.4301,-1.4581,-1.4576,-1.4966,-1.5434,-2.2712,-2.2465,-2.2248,-2.2075,-2.189,-2.1825,-2.1739,-2.1613,-2.1551,0.0,0.0,-2.0543,-2.0243,-1.9995,-1.9712,-1.9406,-1.9017,-1.8855,-1.8702,-1.853,-1.851,-1.84,-1.8196,-1.8189,-1.8103,-1.7909,-1.7909,-1.7815,-1.7659,-1.7543,-1.7461,-1.7356,-1.7051,-1.6876,-1.6797,-1.6405,-1.6041,-1.5709,-1.5419,-1.5131,-1.4805,-1.4655,-1.4529,-1.4402,-1.4402,-1.4402,-1.4402,-1.4402,-1.4402,-1.4391,-1.4013,-1.3811,-1.38,-1.3119,-1.2712,-1.2626,-1.2139,-1.1449,-1.0645,-1.0675,-1.0457,-0.9786,-0.9939,-1.0128,-1.0388,-0.9909,-0.9612,-0.9637,-0.949,-0.9322,-0.9138,-0.8906,-0.8672,-0.8328,-0.8292,-0.8216,-0.8054,-0.8015,-0.8063,-0.806,-0.8268,-0.8385,-0.8369,-0.8579,-0.8851,-0.9044,-0.9128,-0.9274,-0.9458,-0.9397,-0.9466,-0.9961,-1.0217,-1.0622,-1.1017,-1.1247,-1.1716,-1.2085,-1.2213,-1.2444,-1.2835,-1.2976,-1.3074,-1.3301,-1.3944,-1.4115,-1.3671,-1.3673,-1.3806,-1.4034,-1.4311,-1.4631,-1.5123,-1.5695,-1.6216,-2.2623,-2.2391,-2.2138,-2.1978,-2.1882,-2.1817,-2.1739,-2.1574,-2.131,-2.1079,-2.0869,-2.0543,-2.0243,-1.998,-1.9727,-1.9428,-1.909,-1.8893,-1.8748,-1.8673,-1.8563,-1.8393,-1.8196,-1.8189,-1.8103,-1.7916,-1.7909,-1.7767,-1.7537,-1.7496,-1.7406,-1.7226,-1.7009,-1.6791,-1.6537,-1.6324,-1.6063,-1.5792,-1.534,-1.5034,-1.4805,-1.4557,-1.4425,-1.4402,-1.4402,-1.4402,-1.4402,-1.4402,-1.4402,-1.4402,-1.4342,-1.4303,-1.4287,-1.3597,-1.3206,-1.3146,-1.2384,-1.182,-1.1689,-1.1193,-1.0613,-1.0031,-1.0351,-1.0419,-1.004,-1.0194,-1.0314,-1.0191,-0.989,-0.9684,-0.9517,-0.9124,-0.8824,-0.8738,-0.8631,-0.8537,-0.8518,-0.8556,-0.856,-0.856,-0.862,-0.865,-0.8674,-0.8881,-0.9059,-0.9128,-0.9322,-0.9529,-0.9713,-0.9834,-0.9971,-1.0199,-1.0304,-1.0558,-1.0968,-1.1125,-1.1463,-1.2031,-1.2316,-1.2615,-1.3116,-1.3297,-1.3499,-1.4005,-1.4296,-1.4394,-1.4281,-1.444,-1.4541,-1.472,-1.4965,-1.5333,-1.5772,-1.6282,-1.6618,-2.2579,-2.2369,-2.2107,-2.1955,-2.189,-2.1753,-2.161,-2.1464,-2.1247,-2.1095,-2.0998,-2.0712,-2.0466,-2.0191,-1.9935,-1.9629,-1.9258,-1.9029,-1.8827,-1.8692,-1.8484,-1.8327,-1.8202,-1.8129,-1.8029,-1.7922,-1.7909,-1.7767,-1.7509,-1.7489,-1.7406,-1.7199,-1.7002,-1.6769,-1.65,-1.6318,-1.6063,-1.5798,-1.534,-1.5006,-1.4799,-1.4529,-1.4402,-1.4402,-1.4402,-1.4402,-1.4402,-1.4402,-1.4402,-1.4402,-1.4402,-1.4402,-1.4391,-1.3946,-1.3678,-1.3667,-1.3011,-1.2583,-1.2559,-1.1719,-1.1059,-1.0644,-1.0717,-1.0768,-1.0605,-1.0534,-1.0445,-1.0316,-1.0136,-1.0079,-1.0019,-0.9728,-0.9503,-0.9542,-0.9346,-0.9159,-0.908,-0.9054,-0.9,-0.8895,-0.9015,-0.9041,-0.8918,-0.9158,-0.9389,-0.9464,-0.9641,-0.9798,-1.0024,-1.0209,-1.0308,-1.0333,-1.0456,-1.0709,-1.1031,-1.1185,-1.1463,-1.1999,-1.2301,-1.267,-1.306,-1.3333,-1.3666,-1.404,-1.4323,-1.4485,-1.4485,-1.4611,-1.4784,-1.5,-1.5323,-1.5667,-1.5985,-1.6524,-1.7054,-2.2609,-2.2377,-2.2152,-2.1992,-2.1878,-2.1671,-2.1535,-2.1402,-2.127,-2.1183,-2.1095,-2.0892,-2.0653,-2.0396,-2.0121,-1.9802,-1.9439,-1.9149,-1.8922,-1.8697,-1.847,-1.8286,-1.8202,-1.8062,-1.7975,-1.7922,-1.7909,-1.7767,-1.7516,-1.7489,-1.7385,-1.7136,-1.6975,-1.6776,-1.6506,-1.6297,-1.6057,-1.5792,-1.534,-1.5011,-1.4805,-1.4523,-1.4402,-1.4402,-1.4402,-1.4402,-1.4402,-1.4402,-1.4402,-1.4402,-1.4402,-1.4402,-1.4402,-1.4156,-1.4002,-1.3949,-1.3491,-1.3098,-1.2905,-1.2183,-1.1578,-1.1277,-1.122,-1.1238,-1.1343,-1.1049,-1.0809,-1.0705,-1.0646,-1.0588,-1.06,-1.0403,-1.0288,-1.0283,-1.0067,-0.9835,-0.9711,-0.959,-0.9455,-0.9331,-0.9403,-0.9439,-0.9352,-0.9441,-0.962,-0.9783,-0.9919,-1.0075,-1.0273,-1.0463,-1.0498,-1.0466,-1.0589,-1.0839,-1.1062,-1.1212,-1.1525,-1.2034,-1.234,-1.2644,-1.295,-1.3281,-1.361,-1.3945,-1.4293,-1.4481,-1.4565,-1.4641,-1.4784,-1.5034,-1.5347,-1.5701,-1.6048,-1.6666,-1.7385,-2.2632,-2.2399,-2.2293,-2.2109,-2.1789,-2.1649,-2.1527,-2.1394,-2.1317,-2.1246,-2.1167,-2.0917,-2.0661,-2.0381,-2.0121,-1.9863,-1.9549,-1.9246,-1.8988,-1.8791,-1.8574,-1.8373,-1.8202,-1.8069,-1.7949,-1.7922,-1.7909,-1.776,-1.7509,-1.7489,-1.7289,-1.6967,-1.691,-1.6763,-1.6494,-1.6303,-1.6063,-1.5786,-1.5334,-1.5006,-1.4799,-1.4546,-1.4402,-1.4402,-1.4402,-1.4402,-1.4402,-1.4402,-1.4402,-1.4402,-1.4402,-1.4402,-1.4384,-1.415,-1.4002,-1.3997,-1.3501,-1.2958,-1.2474,-1.2322,-1.2158,-1.1811,-1.1941,-1.2022,-1.195,-1.1893,-1.1849,-1.1789,-1.1567,-1.1368,-1.1379,-1.1053,-1.0808,-1.0732,-1.0589,-1.0458,-1.0345,-1.0252,-1.0195,-1.0195,-0.992,-0.9761,-0.9704,-0.9744,-0.983,-0.9986,-1.0142,-1.0266,-1.0336,-1.0463,-1.0589,-1.0558,-1.0589,-1.0747,-1.1028,-1.1212,-1.1529,-1.1999,-1.2375,-1.2679,-1.2954,-1.3281,-1.3606,-1.395,-1.4318,-1.4565,-1.4636,-1.4715,-1.4843,-1.5093,-1.5371,-1.5676,-1.6343,-1.6886,-1.7418,-2.2742,-2.256,-2.2363,-2.2086,-2.1746,-2.1642,-2.1504,-2.1348,-2.1309,-2.1262,-2.1191,-2.1038,-2.0851,-2.0619,-2.0363,-2.0086,-1.982,-1.945,-1.9134,-1.8908,-1.8641,-1.838,-1.8189,-1.8069,-1.7969,-1.7922,-1.7909,-1.7754,-1.7516,-1.7372,-1.7178,-1.6924,-1.691,-1.6776,-1.6494,-1.6297,-1.6063,-1.5798,-1.534,-1.5,-1.4799,-1.4557,-1.4402,-1.4402,-1.4402,-1.4402,-1.4402,-1.4402,-1.4402,-1.4402,-1.4402,-1.4402,-1.4402,-1.4215,-1.4069,-1.3984,-1.3768,-1.3437,-1.3037,-1.3041,-1.2869,-1.2478,-1.2441,-1.2451,-1.2486,-1.2536,-1.2678,-1.2768,-1.222,-1.1877,-1.2032,-1.1776,-1.1622,-1.1705,-1.1529,-1.1263,-1.1124,-1.0978,-1.0807,-1.0526,-1.0339,-1.0184,-0.9989,-1.0021,-1.012,-1.0209,-1.0333,-1.046,-1.0495,-1.0558,-1.0589,-1.0589,-1.0589,-1.0751,-1.1035,-1.1122,-1.1466,-1.1965,-1.2336,-1.2644,-1.2954,-1.3277,-1.3606,-1.3954,-1.4442,-1.4709,-1.4686,-1.4902,-1.5059,-1.5269,-1.5532,-1.5894,-1.6575,-1.6971,-1.7418,-2.2859,-2.2677,-2.2396,-2.2057,-2.1739,-2.1627,-2.1481,-2.1325,-2.1301,-2.1278,-2.1231,-2.1143,-2.1046,-2.0843,-2.0559,-2.025,-1.9973,-1.9629,-1.9298,-1.9017,-1.8711,-1.8425,-1.8221,-1.8069,-1.7975,-1.7916,-1.7909,-1.776,-1.7502,-1.733,-1.72,-1.7123,-1.7106,-1.7075,-1.6945,-1.6742,-1.6495,-1.6236,-1.5776,-1.5434,-1.5209,-1.4968,-1.4693,-1.4434,-1.4402,-1.4402,-1.4402,-1.4402,-1.4402,-1.4402,-1.4402,-1.4402,-1.4402,-1.4274,-1.4146,-1.4092,-1.4039,-1.3932,-1.3703,-1.3694,-1.3548,-1.3151,-1.2995,-1.2965,-1.2998,-1.313,-1.33,-1.3374,-1.2839,-1.2534,-1.2617,-1.2468,-1.2376,-1.2554,-1.2247,-1.1996,-1.1736,-1.1588,-1.1275,-1.0937,-1.0751,-1.0561,-1.0301,-1.0336,-1.0466,-1.0555,-1.0653,-1.0713,-1.0747,-1.0747,-1.0747,-1.0751,-1.0747,-1.0839,-1.1062,-1.1153,-1.1466,-1.1937,-1.234,-1.2679,-1.2985,-1.3277,-1.3666,-1.407,-1.4611,-1.4941,-1.4936,-1.5093,-1.5274,-1.542,-1.5706,-1.6105,-1.6666,-1.6999,-1.7418,-2.2974,-2.2777,-2.2374,-2.2105,-2.1783,-2.1649,-2.1472,-2.1317,-2.1301,-2.1301,-2.127,-2.1167,-2.1087,-2.103,-2.0609,-2.0268,-2.0013,-1.9712,-1.942,-1.9116,-1.8812,-1.8542,-1.8285,-1.8088,-1.7969,-1.7909,-1.7909,-1.7774,-1.7529,-1.7438,-1.7491,-1.7664,-1.7689,-1.7823,-1.7959,-1.775,-1.7556,-1.7207,-1.6802,-1.6491,-1.6146,-1.5958,-1.5386,-1.4571,-1.4434,-1.4478,-1.4456,-1.4424,-1.4429,-1.4418,-1.444,-1.4418,-1.4402,-1.4285,-1.423,-1.4315,-1.4299,-1.4277,-1.4218,-1.4246,-1.4077,-1.3683,-1.3761,-1.3776,-1.3485,-1.3592,-1.3614,-1.3498,-1.3369,-1.3296,-1.3248,-1.3016,-1.2832,-1.267,-1.2709,-1.2525,-1.2154,-1.193,-1.1743,-1.1494,-1.109,-1.0839,-1.0741,-1.0772,-1.087,-1.0965,-1.1059,-1.1059,-1.1031,-1.1059,-1.1028,-1.1059,-1.1062,-1.1097,-1.1122,-1.1244,-1.156,-1.1999,-1.2406,-1.2744,-1.2981,-1.3281,-1.3735,-1.4185,-1.4725,-1.5059,-1.5122,-1.5274,-1.5478,-1.5648,-1.5875,-1.6267,-1.6694,-1.6999,-1.7412,-2.4475,-2.407,-2.33,-2.2818,-2.2504,-2.187,-2.1511,-2.1371,-2.1325,-2.1301,-2.1278,-2.1159,-2.1087,-2.1087,-2.0751,-2.0466,-2.0225,-1.9891,-1.956,-1.9284,-1.9017,-1.8678,-1.8305,-1.8168,-1.8049,-1.7922,-1.7909,-1.7963,-1.8061,-1.7968,-1.8077,-1.8342,-1.8324,-1.8301,-1.8261,-1.7978,-1.7666,-1.7387,-1.7002,-1.6606,-1.6261,-1.6064,-1.575,-1.5345,-1.5282,-1.5307,-1.5307,-1.5282,-1.5176,-1.4864,-1.4867,-1.4724,-1.4444,-1.4573,-1.4806,-1.509,-1.518,-1.5149,-1.5008,-1.5003,-1.4782,-1.438,-1.4289,-1.4116,-1.3786,-1.3735,-1.3705,-1.3545,-1.348,-1.3519,-1.3567,-1.3354,-1.315,-1.3058,-1.2958,-1.2862,-1.259,-1.2402,-1.2216,-1.1934,-1.1466,-1.1146,-1.115,-1.1118,-1.115,-1.1216,-1.1247,-1.1216,-1.1122,-1.1094,-1.115,-1.1209,-1.1244,-1.1306,-1.1529,-1.1498,-1.1654,-1.2031,-1.2432,-1.2828,-1.3159,-1.3528,-1.398,-1.4389,-1.4868,-1.5171,-1.5293,-1.5449,-1.5624,-1.5817,-1.6043,-1.6353,-1.6722,-1.7055,-1.7468,-2.5325,-2.4881,-2.413,-2.3649,-2.3257,-2.2384,-2.1901,-2.1727,-2.143,-2.1301,-2.127,-2.1151,-2.1087,-2.1046,-2.0834,-2.0601,-2.0415,-2.0035,-1.9715,-1.9439,-1.9137,-1.8793,-1.8457,-1.8275,-1.8123,-1.801,-1.8106,-1.8368,-1.8692,-1.8623,-1.8769,-1.9088,-1.8956,-1.8886,-1.8839,-1.8529,-1.8197,-1.7936,-1.7572,-1.7188,-1.6801,-1.6619,-1.6474,-1.6327,-1.6306,-1.6111,-1.5844,-1.5811,-1.5669,-1.5369,-1.532,-1.5187,-1.49,-1.5056,-1.5396,-1.5788,-1.5817,-1.5808,-1.572,-1.558,-1.5298,-1.4913,-1.4681,-1.4385,-1.3975,-1.389,-1.3795,-1.3636,-1.3545,-1.358,-1.3709,-1.3593,-1.345,-1.345,-1.3385,-1.3224,-1.3011,-1.2858,-1.2609,-1.2212,-1.1872,-1.165,-1.1584,-1.1584,-1.1588,-1.1556,-1.1588,-1.1556,-1.1404,-1.1404,-1.1439,-1.1501,-1.1556,-1.1712,-1.1899,-1.1961,-1.1999,-1.2344,-1.2556,-1.2946,-1.3368,-1.3769,-1.4189,-1.4597,-1.4951,-1.5254,-1.5469,-1.5624,-1.5764,-1.5933,-1.6181,-1.649,-1.683,-1.7167,-1.7606,-2.5417,-2.5198,-2.4822,-2.4475,-2.403,-2.3183,-2.2694,-2.2411,-2.1754,-2.1512,-2.1455,-2.1239,-2.1183,-2.1062,-2.085,-2.0644,-2.0467,-2.0173,-1.9874,-1.9574,-1.9212,-1.8903,-1.868,-1.8423,-1.8287,-1.8174,-1.8569,-1.904,-1.9454,-1.9389,-1.9476,-1.9714,-1.9552,-1.9587,-1.9933,-1.9493,-1.9258,-1.8994,-1.8622,-1.8255,-1.7919,-1.7637,-1.7434,-1.7252,-1.7191,-1.6781,-1.5931,-1.5904,-1.5909,-1.5833,-1.5816,-1.5811,-1.5762,-1.5769,-1.5956,-1.624,-1.6191,-1.62,-1.6304,-1.5951,-1.5575,-1.5216,-1.4888,-1.4602,-1.4245,-1.407,-1.392,-1.3761,-1.364,-1.3601,-1.3795,-1.3804,-1.3804,-1.3804,-1.3834,-1.3705,-1.3428,-1.3303,-1.306,-1.2486,-1.2239,-1.2209,-1.2151,-1.2182,-1.2212,-1.2151,-1.2178,-1.2151,-1.1906,-1.1872,-1.1968,-1.1968,-1.1965,-1.2085,-1.227,-1.2459,-1.2556,-1.2683,-1.2801,-1.3068,-1.3519,-1.395,-1.4369,-1.475,-1.5157,-1.5459,-1.558,-1.5735,-1.5938,-1.61,-1.6381,-1.6632,-1.6971,-1.7334,-1.7783,-2.6938,-2.6659,-2.5856,-2.5357,-2.4944,-2.3992,-2.3465,-2.3292,-2.2922,-2.254,-2.2118,-2.1972,-2.1624,-2.1142,-2.0901,-2.0761,-2.061,-2.0381,-2.0078,-1.9723,-1.942,-1.9093,-1.8852,-1.8858,-1.8997,-1.9169,-1.9335,-1.9653,-2.0042,-2.0083,-2.0233,-2.0456,-2.0312,-2.0191,-2.0112,-1.9843,-1.9558,-1.9218,-1.8893,-1.8512,-1.8045,-1.7816,-1.7617,-1.7451,-1.7351,-1.7137,-1.6847,-1.6825,-1.6656,-1.6296,-1.6306,-1.628,-1.6274,-1.628,-1.6514,-1.689,-1.6739,-1.6537,-1.6487,-1.621,-1.5797,-1.5415,-1.5132,-1.4843,-1.4453,-1.4151,-1.398,-1.3825,-1.3735,-1.3799,-1.392,-1.4079,-1.4079,-1.395,-1.3975,-1.398,-1.3795,-1.3571,-1.3216,-1.2771,-1.2644,-1.2613,-1.2621,-1.2709,-1.2736,-1.2617,-1.2705,-1.2644,-1.2236,-1.2174,-1.2236,-1.227,-1.2359,-1.2574,-1.282,-1.3003,-1.3068,-1.3137,-1.3224,-1.3342,-1.3761,-1.4091,-1.4513,-1.4956,-1.5337,-1.5604,-1.5725,-1.587,-1.6043,-1.6278,-1.6529,-1.6835,-1.7172,-1.7562,-1.8008,-2.7763,-2.745,-2.6714,-2.621,-2.5799,-2.4788,-2.4264,-2.4054,-2.3671,-2.3237,-2.2823,-2.2448,-2.1994,-2.1462,-2.1077,-2.0827,-2.0693,-2.0525,-2.0262,-1.994,-1.956,-1.9311,-1.9237,-1.9397,-1.9707,-1.9993,-2.0035,-2.0278,-2.0762,-2.0718,-2.081,-2.0926,-2.0723,-2.0478,-2.0245,-1.9952,-1.9618,-1.9277,-1.8958,-1.861,-1.8226,-1.7871,-1.7651,-1.7507,-1.7379,-1.7306,-1.7312,-1.7312,-1.7142,-1.6858,-1.6798,-1.6803,-1.6798,-1.6814,-1.695,-1.7158,-1.7032,-1.6825,-1.6712,-1.6405,-1.6061,-1.5705,-1.542,-1.5108,-1.472,-1.4359,-1.4121,-1.401,-1.3924,-1.3945,-1.4109,-1.4203,-1.4267,-1.4194,-1.4194,-1.4173,-1.4109,-1.3855,-1.358,-1.3285,-1.3159,-1.3137,-1.3133,-1.3198,-1.322,-1.3129,-1.319,-1.3103,-1.2693,-1.2536,-1.2693,-1.2846,-1.2968,-1.3182,-1.3394,-1.3519,-1.361,-1.3644,-1.3679,-1.3821,-1.4091,-1.4266,-1.4597,-1.5128,-1.5565,-1.5715,-1.5865,-1.598,-1.6124,-1.6415,-1.6728,-1.7032,-1.7362,-1.7816,-1.8232,-2.7896,-2.7578,-2.7307,-2.6922,-2.648,-2.5563,-2.5058,-2.4759,-2.407,-2.37,-2.3439,-2.2901,-2.2365,-2.1983,-2.1381,-2.0971,-2.0703,-2.0586,-2.0426,-2.0189,-1.9853,-1.9708,-1.9901,-2.0063,-2.0364,-2.0676,-2.0628,-2.085,-2.126,-2.119,-2.1211,-2.1131,-2.0822,-2.0541,-2.0372,-2.0035,-1.974,-1.9434,-1.9058,-1.8712,-1.8422,-1.7981,-1.7673,-1.7551,-1.7407,-1.7334,-1.7334,-1.7306,-1.7312,-1.7295,-1.724,-1.7202,-1.7279,-1.7312,-1.7245,-1.7306,-1.71,-1.7011,-1.6899,-1.6609,-1.6301,-1.6095,-1.5686,-1.5303,-1.499,-1.4631,-1.4364,-1.4263,-1.4113,-1.4079,-1.4237,-1.4302,-1.4361,-1.4455,-1.4451,-1.4391,-1.4302,-1.4109,-1.3924,-1.3825,-1.3795,-1.3765,-1.3601,-1.3765,-1.3731,-1.3666,-1.3726,-1.358,-1.3281,-1.3216,-1.3489,-1.364,-1.3726,-1.3782,-1.3997,-1.3997,-1.4091,-1.4219,-1.4249,-1.4304,-1.4414,-1.4563,-1.4799,-1.5328,-1.5739,-1.586,-1.6009,-1.6119,-1.6314,-1.6627,-1.6909,-1.7217,-1.7612,-1.8057,-1.8389,-2.7931,-2.7633,-2.7338,-2.7047,-2.6767,-2.6192,-2.5847,-2.566,-2.5275,-2.47,-2.4282,-2.4019,-2.3231,-2.2284,-2.1935,-2.1459,-2.0939,-2.0703,-2.0543,-2.0414,-2.0555,-2.0479,-2.0524,-2.0796,-2.1086,-2.1328,-2.1267,-2.1346,-2.1385,-2.1368,-2.1288,-2.1198,-2.1001,-2.0779,-2.0541,-2.0245,-1.9965,-1.9682,-1.9285,-1.8966,-1.8664,-1.8226,-1.7947,-1.7799,-1.7556,-1.7457,-1.7423,-1.7351,-1.7306,-1.7312,-1.7312,-1.7312,-1.7312,-1.7312,-1.7312,-1.7273,-1.7111,-1.7005,-1.6955,-1.674,-1.649,-1.6311,-1.5899,-1.5488,-1.5181,-1.475,-1.4458,-1.4323,-1.4237,-1.4237,-1.4297,-1.4387,-1.4481,-1.4485,-1.4545,-1.4451,-1.4327,-1.4263,-1.4173,-1.4134,-1.41,-1.4155,-1.4236,-1.4325,-1.4355,-1.4261,-1.4266,-1.427,-1.3881,-1.3765,-1.4005,-1.4458,-1.4631,-1.4538,-1.4503,-1.4474,-1.4567,-1.4759,-1.4823,-1.4789,-1.4863,-1.4942,-1.5245,-1.5633,-1.5894,-1.6072,-1.6181,-1.6291,-1.6565,-1.6842,-1.7156,-1.7496,-1.7881,-1.8269,-1.8518,-2.8053,-2.7806,-2.7463,-2.7175,-2.6892,-2.6496,-2.6259,-2.6053,-2.5803,-2.5462,-2.5009,-2.4606,-2.3848,-2.2752,-2.2347,-2.1702,-2.0965,-2.0794,-2.0627,-2.056,-2.1036,-2.1248,-2.1289,-2.1579,-2.1801,-2.1823,-2.1736,-2.1609,-2.1513,-2.1482,-2.1385,-2.1302,-2.1162,-2.0959,-2.0691,-2.0472,-2.0169,-1.983,-1.9488,-1.9225,-1.8893,-1.8518,-1.822,-1.7991,-1.7772,-1.7634,-1.7496,-1.7379,-1.7312,-1.7312,-1.7312,-1.7312,-1.7312,-1.7312,-1.7312,-1.7312,-1.7206,-1.7134,-1.7083,-1.6909,-1.6684,-1.6472,-1.6095,-1.5696,-1.5347,-1.4956,-1.4729,-1.4492,-1.4526,-1.4531,-1.4492,-1.4616,-1.468,-1.4714,-1.4714,-1.4625,-1.4412,-1.4437,-1.4428,-1.4424,-1.4488,-1.4552,-1.4715,-1.4775,-1.4779,-1.472,-1.475,-1.4661,-1.4488,-1.4458,-1.4547,-1.4961,-1.5171,-1.5015,-1.4897,-1.4868,-1.5001,-1.5196,-1.5381,-1.5352,-1.5371,-1.5415,-1.5594,-1.587,-1.6072,-1.6272,-1.6381,-1.6542,-1.6825,-1.71,-1.7435,-1.7766,-1.8127,-1.8404,-1.8652,-2.8169,-2.7971,-2.7632,-2.731,-2.6982,-2.6607,-2.6356,-2.6187,-2.5917,-2.5729,-2.5521,-2.4944,-2.4165,-2.3301,-2.2704,-2.1881,-2.0958,-2.086,-2.0867,-2.1039,-2.1507,-2.1916,-2.2249,-2.2289,-2.2317,-2.2208,-2.1973,-2.1807,-2.1688,-2.1633,-2.1537,-2.1399,-2.1277,-2.1075,-2.0865,-2.0653,-2.0334,-1.9984,-1.9701,-1.9454,-1.9119,-1.8807,-1.8485,-1.8187,-1.7958,-1.7744,-1.7529,-1.7407,-1.7334,-1.7312,-1.7312,-1.7312,-1.7312,-1.7312,-1.7312,-1.7312,-1.7278,-1.7273,-1.7239,-1.7072,-1.687,-1.6604,-1.6324,-1.5946,-1.5565,-1.5313,-1.5083,-1.4789,-1.4902,-1.4877,-1.4838,-1.4936,-1.5024,-1.5024,-1.5024,-1.4882,-1.4709,-1.4695,-1.474,-1.477,-1.4961,-1.5063,-1.5068,-1.5063,-1.5059,-1.504,-1.504,-1.5015,-1.4927,-1.4922,-1.5069,-1.5366,-1.5425,-1.5371,-1.5288,-1.523,-1.542,-1.5623,-1.587,-1.5933,-1.5875,-1.5923,-1.5985,-1.6163,-1.6311,-1.6477,-1.6632,-1.6853,-1.7078,-1.7351,-1.7689,-1.8018,-1.8356,-1.8551,-1.8771,-2.8169,-2.7968,-2.7647,-2.7355,-2.711,-2.68,-2.653,-2.6339,-2.6169,-2.5936,-2.5705,-2.5487,-2.4644,-2.3437,-2.3118,-2.2405,-2.1215,-2.1045,-2.1257,-2.2152,-2.2116,-2.2704,-2.3105,-2.3032,-2.2716,-2.2509,-2.2254,-2.2044,-2.1926,-2.1736,-2.1592,-2.1544,-2.1313,-2.1173,-2.1075,-2.0784,-2.056,-2.0359,-2.001,-1.9676,-1.9422,-1.9119,-1.8774,-1.8452,-1.8088,-1.776,-1.7545,-1.7468,-1.7396,-1.7323,-1.7306,-1.7306,-1.7306,-1.7312,-1.7312,-1.7312,-1.7312,-1.7312,-1.7273,-1.7111,-1.6932,-1.6774,-1.6501,-1.6186,-1.5845,-1.5691,-1.5439,-1.5181,-1.5152,-1.5181,-1.5142,-1.522,-1.5332,-1.5362,-1.5362,-1.5298,-1.5216,-1.5142,-1.5137,-1.5245,-1.5396,-1.5522,-1.5527,-1.5498,-1.5459,-1.5357,-1.5328,-1.5332,-1.5303,-1.5274,-1.5454,-1.5633,-1.586,-1.5807,-1.5691,-1.5691,-1.5941,-1.6104,-1.6291,-1.641,-1.6376,-1.6335,-1.6358,-1.6426,-1.6527,-1.6715,-1.6892,-1.7145,-1.7401,-1.7673,-1.7909,-1.8247,-1.8556,-1.8723,-1.8905,-2.8291,-2.8118,-2.783,-2.7578,-2.7308,-2.6973,-2.6716,-2.653,-2.6293,-2.6105,-2.5944,-2.5783,-2.4885,-2.358,-2.338,-2.2593,-2.1536,-2.1381,-2.1872,-2.2611,-2.2846,-2.334,-2.3795,-2.3602,-2.3216,-2.2798,-2.254,-2.2333,-2.2084,-2.1902,-2.1736,-2.1592,-2.1385,-2.1253,-2.1211,-2.097,-2.0784,-2.0585,-2.034,-2.0029,-1.9708,-1.95,-1.9119,-1.87,-1.8242,-1.7887,-1.7711,-1.7606,-1.7501,-1.7429,-1.7407,-1.7356,-1.7301,-1.7312,-1.7312,-1.7312,-1.7312,-1.7312,-1.7273,-1.7206,-1.7088,-1.6909,-1.6694,-1.6495,-1.6257,-1.609,-1.5899,-1.5696,-1.5638,-1.5638,-1.5604,-1.5681,-1.5729,-1.5821,-1.5821,-1.5816,-1.5768,-1.5609,-1.5444,-1.5551,-1.5672,-1.5735,-1.5769,-1.5817,-1.5759,-1.5633,-1.5633,-1.5609,-1.5391,-1.5391,-1.5546,-1.5783,-1.6153,-1.6239,-1.609,-1.6176,-1.6457,-1.6622,-1.6768,-1.6814,-1.677,-1.6735,-1.6671,-1.6733,-1.6795,-1.6975,-1.7155,-1.744,-1.7689,-1.7926,-1.8199,-1.8503,-1.8723,-1.8905,-1.909,-2.8423,-2.8277,-2.809,-2.7801,-2.7502,-2.7168,-2.6925,-2.6708,-2.6408,-2.6266,-2.6168,-2.5901,-2.5116,-2.4025,-2.3606,-2.2645,-2.1714,-2.1808,-2.2359,-2.2898,-2.3356,-2.3838,-2.4197,-2.4065,-2.3653,-2.3068,-2.2844,-2.2595,-2.2326,-2.21,-2.1878,-2.1664,-2.1489,-2.1368,-2.1277,-2.1211,-2.1026,-2.0766,-2.0578,-2.039,-1.9984,-1.983,-1.9428,-1.8866,-1.8491,-1.8139,-1.7936,-1.7832,-1.7706,-1.7529,-1.7529,-1.7457,-1.7384,-1.7334,-1.7329,-1.7329,-1.7356,-1.7356,-1.7356,-1.7301,-1.7206,-1.7011,-1.6943,-1.6807,-1.666,-1.6542,-1.64,-1.6291,-1.6233,-1.62,-1.6223,-1.6252,-1.6309,-1.64,-1.6433,-1.6433,-1.6376,-1.6129,-1.6014,-1.5909,-1.6048,-1.6163,-1.6111,-1.6077,-1.599,-1.5938,-1.5938,-1.5851,-1.5604,-1.5565,-1.5783,-1.6129,-1.6529,-1.6802,-1.6684,-1.6745,-1.7027,-1.7162,-1.7273,-1.7251,-1.723,-1.7285,-1.7251,-1.705,-1.7083,-1.729,-1.7518,-1.7794,-1.8035,-1.8226,-1.847,-1.8765,-1.8952,-1.9117,-1.9295,-2.8423,-2.8277,-2.809,-2.7882,-2.7627,-2.7315,-2.7079,-2.6933,-2.67,-2.6487,-2.6286,-2.6136,-2.5591,-2.4757,-2.3948,-2.2802,-2.1932,-2.2239,-2.2767,-2.3249,-2.3715,-2.4229,-2.4553,-2.4426,-2.4023,-2.3653,-2.3268,-2.2905,-2.2595,-2.2303,-2.2044,-2.1807,-2.1609,-2.1489,-2.1337,-2.1246,-2.1173,-2.1001,-2.0784,-2.056,-2.0352,-1.9978,-1.9578,-1.9052,-1.8786,-1.8464,-1.8166,-1.8057,-1.792,-1.7695,-1.7684,-1.7651,-1.7629,-1.754,-1.7501,-1.7446,-1.7484,-1.7457,-1.7462,-1.7379,-1.7239,-1.7083,-1.7145,-1.7122,-1.7022,-1.6988,-1.6955,-1.6876,-1.6768,-1.6745,-1.6842,-1.687,-1.6927,-1.6988,-1.705,-1.7055,-1.7027,-1.6943,-1.6768,-1.6609,-1.6609,-1.6586,-1.6501,-1.6438,-1.6381,-1.6291,-1.6262,-1.6134,-1.588,-1.5928,-1.61,-1.6506,-1.6959,-1.7172,-1.7301,-1.7418,-1.7595,-1.7717,-1.7793,-1.7798,-1.782,-1.7897,-1.7821,-1.75,-1.7468,-1.77,-1.7953,-1.8193,-1.8437,-1.8652,-1.886,-1.9007,-1.9204,-1.9388,-1.9655,-2.8462,-2.834,-2.8205,-2.7993,-2.7739,-2.7524,-2.7293,-2.7086,-2.6916,-2.6767,-2.6589,-2.6366,-2.5895,-2.522,-2.4712,-2.372,-2.3055,-2.329,-2.369,-2.3991,-2.4423,-2.4703,-2.4914,-2.4718,-2.4426,-2.4086,-2.3717,-2.3268,-2.2837,-2.254,-2.2231,-2.1912,-2.1705,-2.1537,-2.141,-2.1337,-2.1271,-2.1187,-2.1001,-2.0784,-2.0553,-2.008,-1.963,-1.9382,-1.9105,-1.8839,-1.8556,-1.8449,-1.834,-1.815,-1.8068,-1.8008,-1.7953,-1.7926,-1.786,-1.7673,-1.7617,-1.7617,-1.759,-1.754,-1.7451,-1.739,-1.7451,-1.7507,-1.7496,-1.7512,-1.754,-1.7484,-1.7435,-1.7385,-1.7457,-1.7484,-1.754,-1.7634,-1.7661,-1.7661,-1.7667,-1.7673,-1.7534,-1.7307,-1.7167,-1.7055,-1.6943,-1.6853,-1.6763,-1.6673,-1.6588,-1.6405,-1.6173,-1.623,-1.6363,-1.7032,-1.7457,-1.759,-1.7772,-1.7969,-1.8084,-1.8214,-1.8317,-1.8294,-1.8288,-1.8338,-1.8097,-1.7738,-1.7871,-1.7955,-1.8294,-1.8519,-1.881,-1.9024,-1.9081,-1.9175,-1.9417,-1.9662,-1.9889,-2.8519,-2.8398,-2.8327,-2.8132,-2.7856,-2.7698,-2.7485,-2.7284,-2.7136,-2.7048,-2.6917,-2.6649,-2.6253,-2.5732,-2.5272,-2.4713,-2.4034,-2.4457,-2.458,-2.459,-2.5062,-2.529,-2.5135,-2.4966,-2.4751,-2.4426,-2.4122,-2.3682,-2.3083,-2.2753,-2.2426,-2.2084,-2.1807,-2.1592,-2.1496,-2.1416,-2.135,-2.1277,-2.1211,-2.0995,-2.0585,-2.0175,-1.9856,-1.9688,-1.9454,-1.9192,-1.8952,-1.8866,-1.8738,-1.8577,-1.8503,-1.847,-1.8329,-1.8437,-1.8362,-1.8035,-1.7898,-1.7843,-1.7843,-1.7783,-1.7761,-1.7733,-1.7827,-1.7898,-1.7969,-1.8018,-1.81,-1.8121,-1.8078,-1.81,-1.8121,-1.81,-1.8176,-1.8284,-1.829,-1.829,-1.8317,-1.8296,-1.8242,-1.8018,-1.7744,-1.7579,-1.7518,-1.7412,-1.7351,-1.724,-1.7151,-1.6802,-1.6596,-1.6488,-1.6733,-1.7501,-1.7942,-1.7997,-1.8182,-1.8458,-1.8566,-1.8688,-1.8774,-1.8795,-1.8735,-1.8721,-1.8386,-1.8106,-1.7848,-1.7994,-1.839,-1.8622,-1.8607,-1.8712,-1.9041,-1.9175,-1.9189,-1.9609,-2.0023,-2.8519,-2.838,-2.8327,-2.8205,-2.8034,-2.7806,-2.7636,-2.7524,-2.7395,-2.7286,-2.7182,-2.6998,-2.6849,-2.6562,-2.5839,-2.4954,-2.4547,-2.4769,-2.5027,-2.4963,-2.5337,-2.5497,-2.5336,-2.5084,-2.4938,-2.469,-2.4405,-2.3911,-2.3378,-2.3031,-2.2632,-2.227,-2.2037,-2.1848,-2.1609,-2.1496,-2.1399,-2.1344,-2.1253,-2.1026,-2.0691,-2.051,-2.0296,-2.0016,-1.9805,-1.9604,-1.9362,-1.9251,-1.9119,-1.8999,-1.894,-1.8913,-1.8887,-1.8913,-1.8907,-1.8753,-1.8545,-1.8319,-1.8313,-1.8199,-1.8111,-1.8139,-1.8193,-1.8302,-1.841,-1.8593,-1.8721,-1.8848,-1.8786,-1.8759,-1.8795,-1.8753,-1.8854,-1.8901,-1.8954,-1.8975,-1.9001,-1.8948,-1.8875,-1.8747,-1.8494,-1.8284,-1.8176,-1.8045,-1.7942,-1.7832,-1.7667,-1.7312,-1.7117,-1.7145,-1.7312,-1.8106,-1.8419,-1.8473,-1.8581,-1.8827,-1.9007,-1.9133,-1.918,-1.9226,-1.9064,-1.8953,-1.8824,-1.8521,-1.8167,-1.7814,-1.7968,-1.8109,-1.8175,-1.8477,-1.883,-1.8841,-1.8768,-1.9337,-2.005,-2.8587,-2.8449,-2.838,-2.8277,-2.8154,-2.7996,-2.785,-2.7701,-2.7651,-2.7576,-2.7485,-2.7348,-2.7191,-2.6961,-2.65,-2.6074,-2.5648,-2.5688,-2.5698,-2.5461,-2.5623,-2.561,-2.5497,-2.5317,-2.5135,-2.4918,-2.4662,-2.432,-2.3809,-2.34,-2.3001,-2.254,-2.231,-2.2107,-2.1817,-2.1616,-2.1544,-2.1471,-2.1333,-2.1138,-2.0952,-2.079,-2.0585,-2.034,-2.0213,-1.9991,-1.9791,-1.9701,-1.9584,-1.948,-1.9442,-1.9468,-1.9442,-1.9448,-1.9454,-1.9442,-1.9311,-1.906,-1.878,-1.8646,-1.8614,-1.8581,-1.8614,-1.8646,-1.8866,-1.9125,-1.9297,-1.9448,-1.9402,-1.9402,-1.9448,-1.9402,-1.9448,-1.95,-1.9572,-1.9572,-1.9592,-1.9598,-1.952,-1.9396,-1.9271,-1.9054,-1.8842,-1.8715,-1.8614,-1.8458,-1.829,-1.8024,-1.8024,-1.8187,-1.8431,-1.8813,-1.896,-1.8942,-1.9054,-1.9212,-1.9396,-1.9488,-1.9509,-1.9466,-1.9269,-1.9132,-1.8909,-1.847,-1.7913,-1.7683,-1.7638,-1.7899,-1.824,-1.8463,-1.867,-1.8676,-1.8733,-1.9277,-1.9999,-2.8691,-2.8552,-2.8458,-2.8362,-2.8237,-2.8182,-2.8058,-2.7941,-2.7913,-2.7876,-2.7812,-2.7674,-2.7463,-2.7237,-2.7101,-2.6878,-2.6708,-2.6538,-2.6365,-2.617,-2.5972,-2.5762,-2.5613,-2.5481,-2.5336,-2.5103,-2.4918,-2.4614,-2.4287,-2.3875,-2.3443,-2.2874,-2.2586,-2.2356,-2.2084,-2.1855,-2.1712,-2.164,-2.1471,-2.135,-2.1229,-2.1075,-2.0896,-2.0716,-2.056,-2.0403,-2.0226,-2.015,-2.0067,-2.0029,-1.9997,-2.0003,-2.0003,-2.0003,-2.001,-1.9953,-1.9839,-1.9635,-1.9406,-1.9303,-1.9218,-1.916,-1.9154,-1.9239,-1.946,-1.9662,-1.9856,-1.9978,-2.0055,-2.0029,-2.0055,-2.008,-2.0175,-2.0201,-2.0226,-2.0175,-2.015,-2.0175,-2.0131,-1.9978,-1.9856,-1.9766,-1.9578,-1.9428,-1.9277,-1.9105,-1.8893,-1.8673,-1.8807,-1.9019,-1.9231,-1.9473,-1.944,-1.9422,-1.9474,-1.9604,-1.9779,-1.9749,-1.9762,-1.9668,-1.9401,-1.9073,-1.8758,-1.8251,-1.7782,-1.7803,-1.7921,-1.8125,-1.8306,-1.8321,-1.8387,-1.8627,-1.8883,-1.9389,-2.004,-2.887,-2.8669,-2.8543,-2.8449,-2.8384,-2.8313,-2.8264,-2.8232,-2.8174,-2.8155,-2.8105,-2.8002,-2.7757,-2.7533,-2.7441,-2.7303,-2.6999,-2.6833,-2.6598,-2.6391,-2.6178,-2.5964,-2.5799,-2.564,-2.5524,-2.5347,-2.5154,-2.495,-2.4703,-2.4377,-2.3846,-2.3304,-2.2964,-2.2632,-2.2363,-2.213,-2.1926,-2.1855,-2.1736,-2.1602,-2.1489,-2.135,-2.1229,-2.1001,-2.0865,-2.0759,-2.0728,-2.061,-2.0516,-2.0485,-2.051,-2.051,-2.0516,-2.0535,-2.0528,-2.0364,-2.017,-2.001,-1.9899,-1.9788,-1.9754,-1.9766,-1.985,-1.9946,-2.0213,-2.0264,-2.0409,-2.0553,-2.0678,-2.0728,-2.0777,-2.0833,-2.0926,-2.0932,-2.0932,-2.0919,-2.087,-2.0827,-2.0759,-2.0585,-2.0441,-2.0346,-2.0226,-2.0074,-1.9785,-1.961,-1.9512,-1.9323,-1.946,-1.9668,-1.983,-1.9984,-1.9907,-1.9901,-1.9901,-1.9972,-1.9901,-1.9772,-1.9694,-1.9576,-1.941,-1.9053,-1.8785,-1.8497,-1.8167,-1.8193,-1.8183,-1.8289,-1.8306,-1.8065,-1.8133,-1.8549,-1.894,-1.9377,-2.0157,-2.8996,-2.8891,-2.8779,-2.8641,-2.8467,-2.8393,-2.8362,-2.8362,-2.8327,-2.8291,-2.8259,-2.82,-2.8053,-2.7844,-2.7786,-2.7632,-2.7301,-2.711,-2.6866,-2.6607,-2.6357,-2.6162,-2.5982,-2.5844,-2.5685,-2.5535,-2.5391,-2.5201,-2.497,-2.4723,-2.4454,-2.3981,-2.3465,-2.3098,-2.2806,-2.2449,-2.2224,-2.206,-2.199,-2.1841,-2.1793,-2.1681,-2.1513,-2.1253,-2.1222,-2.1068,-2.0927,-2.0871,-2.0853,-2.0885,-2.0945,-2.097,-2.0995,-2.1044,-2.0895,-2.0645,-2.0422,-2.0271,-2.004,-2.0007,-2.0126,-2.0465,-2.0585,-2.0738,-2.0975,-2.1097,-2.116,-2.1257,-2.1372,-2.1437,-2.1444,-2.1547,-2.1619,-2.1633,-2.165,-2.166,-2.1606,-2.1541,-2.1403,-2.1226,-2.1068,-2.0959,-2.0835,-2.0686,-2.0372,-2.0112,-2.0016,-1.9997,-2.0105,-2.0163,-2.029,-2.0341,-2.0283,-2.0149,-2.0137,-2.0064,-1.9974,-1.9794,-1.9595,-1.9412,-1.9268,-1.9298,-1.9026,-1.8745,-1.8604,-1.8627,-1.8599,-1.8475,-1.8392,-1.8334,-1.8438,-1.8696,-1.907,-1.9443,-2.0113,-2.9114,-2.9053,-2.8964,-2.8791,-2.8591,-2.8523,-2.8484,-2.8475,-2.8449,-2.8428,-2.8367,-2.8353,-2.8282,-2.8122,-2.8048,-2.792,-2.7647,-2.7417,-2.7165,-2.6882,-2.6615,-2.64,-2.6232,-2.6079,-2.5897,-2.5747,-2.5616,-2.5448,-2.5278,-2.5013,-2.4791,-2.4495,-2.4114,-2.3667,-2.3157,-2.2798,-2.2495,-2.2402,-2.2273,-2.2194,-2.217,-2.199,-2.1824,-2.1616,-2.1537,-2.1434,-2.1319,-2.1271,-2.1277,-2.1302,-2.135,-2.1385,-2.1465,-2.1462,-2.125,-2.096,-2.0622,-2.0401,-2.0051,-1.9953,-2.0324,-2.0695,-2.0941,-2.1259,-2.1609,-2.1785,-2.1915,-2.2016,-2.2116,-2.218,-2.2165,-2.2326,-2.2418,-2.2441,-2.2464,-2.248,-2.2319,-2.2203,-2.203,-2.1871,-2.1681,-2.1475,-2.1382,-2.1224,-2.0853,-2.0557,-2.041,-2.041,-2.0511,-2.0592,-2.0624,-2.0642,-2.0579,-2.0444,-2.0289,-2.021,-2.0068,-1.9655,-1.9461,-1.9161,-1.9046,-1.9098,-1.9088,-1.8808,-1.8768,-1.9003,-1.9037,-1.8943,-1.8836,-1.8709,-1.8874,-1.9056,-1.9395,-1.9781,-1.9987,-2.9258,-2.9178,-2.9053,-2.8917,-2.8798,-2.8715,-2.87,-2.8675,-2.8603,-2.8552,-2.851,-2.8488,-2.8419,-2.8309,-2.8228,-2.8112,-2.7943,-2.7698,-2.7439,-2.7181,-2.6923,-2.6666,-2.6469,-2.6303,-2.6143,-2.5964,-2.5815,-2.5683,-2.5581,-2.5262,-2.5076,-2.4906,-2.4561,-2.4099,-2.3516,-2.3113,-2.2904,-2.2874,-2.274,-2.2648,-2.2525,-2.2317,-2.2123,-2.1949,-2.1855,-2.1746,-2.1633,-2.1664,-2.1664,-2.1688,-2.1759,-2.1848,-2.1949,-2.199,-2.1776,-2.1387,-2.0897,-2.0506,-2.012,-1.997,-2.0281,-2.0829,-2.1083,-2.1306,-2.1679,-2.2068,-2.2375,-2.2204,-2.2657,-2.2892,-2.3047,-2.3172,-2.3179,-2.3157,-2.3172,-2.2974,-2.2783,-2.238,-2.2116,-2.191,-2.1949,-2.1934,-2.1859,-2.1706,-2.1329,-2.1019,-2.0809,-2.0817,-2.0894,-2.1048,-2.1115,-2.0786,-2.0715,-2.0476,-2.03,-2.0311,-2.014,-1.9683,-1.9289,-1.8988,-1.8755,-1.8673,-1.8676,-1.8736,-1.9075,-1.938,-1.9424,-1.9413,-1.9362,-1.9336,-1.9313,-1.9487,-1.982,-2.0078,-2.0289,-2.9363,-2.9259,-2.9169,-2.9087,-2.8975,-2.8834,-2.8752,-2.877,-2.8691,-2.8653,-2.8628,-2.86,-2.8523,-2.8445,-2.8406,-2.8309,-2.8126,-2.8028,-2.7786,-2.7463,-2.7236,-2.7038,-2.6817,-2.6607,-2.6443,-2.6268,-2.6089,-2.5926,-2.5854,-2.5557,-2.5394,-2.522,-2.4831,-2.4351,-2.389,-2.353,-2.3363,-2.329,-2.315,-2.3023,-2.2821,-2.2618,-2.2411,-2.2184,-2.2114,-2.202,-2.1895,-2.1942,-2.199,-2.2013,-2.2084,-2.2254,-2.2394,-2.2433,-2.2256,-2.183,-2.1301,-2.0675,-2.0157,-1.9896,-2.0242,-2.0785,-2.115,-2.1276,-2.1507,-2.1744,-2.1948,-2.223,-2.2717,-2.2939,-2.3083,-2.3655,-2.3811,-2.3695,-2.356,-2.3149,-2.2806,-2.2245,-2.1829,-2.1697,-2.167,-2.152,-2.1425,-2.1559,-2.1341,-2.1167,-2.0942,-2.1101,-2.1247,-2.1523,-2.1648,-2.1061,-2.0743,-2.0484,-2.032,-2.0223,-2.0008,-1.9558,-1.9161,-1.8828,-1.861,-1.8576,-1.8787,-1.912,-1.9453,-1.9759,-1.9769,-1.9815,-1.9975,-1.9993,-1.994,-1.994,-2.0202,-2.0409,-2.0578,-2.9493,-2.9412,-2.9289,-2.9202,-2.9132,-2.8938,-2.8831,-2.8798,-2.8761,-2.8737,-2.8724,-2.8696,-2.8637,-2.8587,-2.8536,-2.8471,-2.8295,-2.8159,-2.8062,-2.7742,-2.7535,-2.7347,-2.7159,-2.6965,-2.6783,-2.6607,-2.6417,-2.6259,-2.6082,-2.5852,-2.5656,-2.5394,-2.4993,-2.469,-2.4323,-2.4036,-2.3717,-2.3639,-2.353,-2.3363,-2.3165,-2.2957,-2.2709,-2.2518,-2.237,-2.2285,-2.2177,-2.217,-2.2263,-2.231,-2.2449,-2.2662,-2.2806,-2.2839,-2.2703,-2.2282,-2.1557,-2.1,-2.0568,-2.0129,-2.0476,-2.0896,-2.1081,-2.1241,-2.1451,-2.1809,-2.2044,-2.232,-2.2601,-2.286,-2.3173,-2.383,-2.3857,-2.3704,-2.3498,-2.3084,-2.2821,-2.2259,-2.196,-2.1791,-2.1577,-2.1334,-2.1127,-2.1186,-2.125,-2.1133,-2.1017,-2.1244,-2.138,-2.1541,-2.1669,-2.115,-2.0711,-2.0489,-2.0246,-2.0012,-1.9748,-1.9403,-1.9178,-1.8988,-1.9026,-1.9095,-1.9284,-1.9501,-1.9861,-2.0108,-2.0108,-2.0195,-2.0367,-2.0494,-2.052,-2.0553,-2.0637,-2.0745,-2.086,-2.9654,-2.9569,-2.9374,-2.929,-2.9252,-2.9023,-2.8872,-2.8828,-2.8816,-2.8807,-2.8807,-2.8795,-2.8758,-2.8682,-2.8628,-2.8565,-2.8475,-2.83,-2.8178,-2.8039,-2.7818,-2.7668,-2.7502,-2.7315,-2.7133,-2.6965,-2.6775,-2.6538,-2.6304,-2.6063,-2.5842,-2.5592,-2.527,-2.5037,-2.4771,-2.448,-2.4162,-2.4009,-2.3882,-2.3717,-2.3545,-2.3275,-2.3053,-2.2859,-2.273,-2.2616,-2.2563,-2.2625,-2.2679,-2.2747,-2.2844,-2.3053,-2.3216,-2.3312,-2.3099,-2.2648,-2.1805,-2.1473,-2.1185,-2.0769,-2.0614,-2.0905,-2.1036,-2.1209,-2.1402,-2.1732,-2.196,-2.2269,-2.2573,-2.282,-2.3127,-2.3255,-2.3393,-2.3287,-2.3189,-2.2959,-2.2811,-2.2519,-2.2298,-2.2082,-2.1869,-2.1633,-2.1444,-2.1393,-2.113,-2.1026,-2.0912,-2.0819,-2.0948,-2.0942,-2.1034,-2.096,-2.0603,-2.0497,-2.0259,-1.9968,-1.9875,-1.9644,-1.9649,-1.9508,-1.9566,-1.961,-1.9754,-1.9977,-2.0291,-2.0461,-2.0495,-2.0628,-2.0786,-2.0892,-2.099,-2.0974,-2.0982,-2.1023,-2.1127,-2.9728,-2.9636,-2.9462,-2.9362,-2.935,-2.9231,-2.9096,-2.894,-2.8902,-2.886,-2.887,-2.8822,-2.8819,-2.8761,-2.874,-2.8657,-2.8578,-2.8506,-2.838,-2.8237,-2.81,-2.7982,-2.783,-2.7642,-2.7485,-2.7308,-2.7103,-2.685,-2.6615,-2.6339,-2.5972,-2.5688,-2.5535,-2.5383,-2.5174,-2.4942,-2.465,-2.4392,-2.4247,-2.408,-2.3875,-2.3602,-2.3385,-2.3224,-2.3046,-2.2949,-2.2897,-2.3031,-2.3091,-2.3142,-2.329,-2.3494,-2.3625,-2.3739,-2.3665,-2.3288,-2.2597,-2.2045,-2.168,-2.1223,-2.0966,-2.1055,-2.1221,-2.1131,-2.1233,-2.1448,-2.1773,-2.2082,-2.2441,-2.267,-2.2883,-2.303,-2.3161,-2.3185,-2.3038,-2.2793,-2.2613,-2.2393,-2.2181,-2.1999,-2.1808,-2.166,-2.1496,-2.1253,-2.1007,-2.0897,-2.0818,-2.0709,-2.063,-2.0677,-2.0648,-2.0627,-2.0597,-2.0494,-2.0247,-1.9959,-1.9975,-1.9955,-1.9985,-2.0052,-2.0102,-2.017,-2.0247,-2.0435,-2.0729,-2.0868,-2.0909,-2.1047,-2.1191,-2.1325,-2.1419,-2.1364,-2.1324,-2.1356,-2.1402,-2.9825,-2.9719,-2.9579,-2.9483,-2.9442,-2.9378,-2.9254,-2.9125,-2.9046,-2.9021,-2.9021,-2.8996,-2.8938,-2.8879,-2.8858,-2.8801,-2.8678,-2.8637,-2.8549,-2.8454,-2.8349,-2.8232,-2.8091,-2.7965,-2.7821,-2.7653,-2.7441,-2.7174,-2.6899,-2.6513,-2.6136,-2.5974,-2.5824,-2.5619,-2.5421,-2.5259,-2.5084,-2.4826,-2.4617,-2.4421,-2.4198,-2.3944,-2.3739,-2.3574,-2.3421,-2.3275,-2.3231,-2.3407,-2.348,-2.3552,-2.3739,-2.3896,-2.4059,-2.4211,-2.4338,-2.3947,-2.3213,-2.2759,-2.239,-2.1705,-2.1479,-2.1419,-2.1518,-2.1563,-2.151,-2.1634,-2.1697,-2.1824,-2.2153,-2.2467,-2.2687,-2.2884,-2.3072,-2.3227,-2.2904,-2.2595,-2.2365,-2.2136,-2.1953,-2.1804,-2.1651,-2.1499,-2.1302,-2.1079,-2.0974,-2.1086,-2.1084,-2.0983,-2.0816,-2.0711,-2.0653,-2.0578,-2.0573,-2.0538,-2.0306,-2.0214,-2.0333,-2.0433,-2.0496,-2.0564,-2.0638,-2.0679,-2.0712,-2.0901,-2.1167,-2.1262,-2.1316,-2.1433,-2.1572,-2.1709,-2.1814,-2.1797,-2.1744,-2.1685,-2.1744,-2.9933,-2.9798,-2.9726,-2.9636,-2.9512,-2.9443,-2.9373,-2.9313,-2.9246,-2.9211,-2.9209,-2.9198,-2.91,-2.901,-2.8998,-2.8938,-2.8834,-2.8764,-2.8712,-2.8621,-2.851,-2.841,-2.8327,-2.8241,-2.8081,-2.794,-2.7751,-2.7463,-2.7117,-2.6716,-2.6409,-2.6295,-2.6045,-2.5824,-2.5645,-2.55,-2.5355,-2.5236,-2.4993,-2.4786,-2.4581,-2.4349,-2.4099,-2.4009,-2.3832,-2.3674,-2.3696,-2.3789,-2.3903,-2.4009,-2.4143,-2.4297,-2.4515,-2.4706,-2.4827,-2.4526,-2.3755,-2.3322,-2.2876,-2.2206,-2.179,-2.1738,-2.1886,-2.2013,-2.2019,-2.1911,-2.192,-2.2007,-2.2359,-2.2482,-2.2668,-2.2733,-2.2841,-2.294,-2.2799,-2.2665,-2.2563,-2.2422,-2.2349,-2.2212,-2.2127,-2.1967,-2.1909,-2.1746,-2.161,-2.1543,-2.1428,-2.132,-2.1214,-2.1005,-2.0838,-2.072,-2.0758,-2.0815,-2.0788,-2.0745,-2.0853,-2.0934,-2.0999,-2.1071,-2.1119,-2.1143,-2.1151,-2.1394,-2.1639,-2.167,-2.1721,-2.1834,-2.1922,-2.2044,-2.213,-2.2195,-2.2166,-2.211,-2.2075,-3.0007,-2.9874,-2.9816,-2.9727,-2.9663,-2.9645,-2.9588,-2.954,-2.9453,-2.938,-2.9283,-2.924,-2.9198,-2.9136,-2.9125,-2.9067,-2.8952,-2.8917,-2.8846,-2.8749,-2.8641,-2.86,-2.8497,-2.8393,-2.8282,-2.8168,-2.7977,-2.7698,-2.7276,-2.6898,-2.6581,-2.6383,-2.6206,-2.6051,-2.5852,-2.5717,-2.5594,-2.5532,-2.5344,-2.5143,-2.497,-2.469,-2.4467,-2.4392,-2.4261,-2.4149,-2.4177,-2.4247,-2.4317,-2.438,-2.4544,-2.4738,-2.4942,-2.5103,-2.522,-2.5072,-2.4163,-2.3687,-2.3202,-2.258,-2.207,-2.2079,-2.2234,-2.2417,-2.2458,-2.2335,-2.2321,-2.2431,-2.2521,-2.2597,-2.2646,-2.2654,-2.2667,-2.2725,-2.2782,-2.279,-2.2812,-2.2794,-2.2786,-2.2721,-2.2646,-2.2584,-2.2522,-2.2416,-2.2281,-2.2124,-2.1942,-2.182,-2.1759,-2.1605,-2.1354,-2.123,-2.1151,-2.1175,-2.1183,-2.123,-2.1323,-2.1394,-2.1447,-2.1509,-2.158,-2.1632,-2.1676,-2.1892,-2.2075,-2.2081,-2.2115,-2.2198,-2.2296,-2.2395,-2.2477,-2.2553,-2.2628,-2.2602,-2.2503,-3.0093,-2.9981,-2.9883,-2.9814,-2.979,-2.9755,-2.9729,-2.9683,-2.9617,-2.956,-2.9481,-2.9381,-2.9308,-2.9247,-2.9237,-2.9181,-2.9089,-2.9108,-2.903,-2.8919,-2.8834,-2.8785,-2.8687,-2.8562,-2.8471,-2.8353,-2.8109,-2.7792,-2.7422,-2.7133,-2.6866,-2.6666,-2.6521,-2.6293,-2.6118,-2.5947,-2.5817,-2.5739,-2.5594,-2.5462,-2.529,-2.5037,-2.4823,-2.4763,-2.4698,-2.4597,-2.4617,-2.4686,-2.471,-2.4799,-2.4958,-2.5127,-2.5312,-2.5481,-2.536,-2.4995,-2.4382,-2.3778,-2.3328,-2.2797,-2.226,-2.2409,-2.2589,-2.2786,-2.3006,-2.2888,-2.2786,-2.2884,-2.288,-2.2948,-2.2965,-2.2974,-2.3036,-2.3098,-2.3154,-2.3185,-2.32,-2.3203,-2.3209,-2.3206,-2.3145,-2.3072,-2.3005,-2.2955,-2.2845,-2.2785,-2.2591,-2.236,-2.2286,-2.2238,-2.1986,-2.1793,-2.1754,-2.1653,-2.163,-2.1682,-2.1748,-2.1823,-2.1884,-2.1878,-2.1907,-2.2075,-2.2231,-2.2426,-2.2513,-2.2463,-2.2499,-2.2597,-2.2677,-2.2777,-2.285,-2.2919,-2.2982,-2.3049,-2.2977,-3.0159,-3.0087,-2.9964,-2.9916,-2.992,-2.9859,-2.9834,-2.9806,-2.9743,-2.9707,-2.9709,-2.9608,-2.9473,-2.9384,-2.9314,-2.927,-2.9235,-2.9223,-2.9169,-2.9121,-2.9051,-2.8961,-2.8855,-2.8746,-2.8637,-2.8458,-2.8205,-2.8002,-2.7739,-2.7439,-2.719,-2.7094,-2.685,-2.6564,-2.6409,-2.6216,-2.6018,-2.5936,-2.5828,-2.5725,-2.5538,-2.5328,-2.5177,-2.5107,-2.5084,-2.5033,-2.5025,-2.5056,-2.5068,-2.5185,-2.5328,-2.5511,-2.5672,-2.5822,-2.544,-2.5071,-2.4572,-2.3941,-2.3338,-2.2841,-2.2689,-2.2751,-2.2948,-2.3151,-2.3365,-2.3403,-2.3301,-2.3289,-2.3286,-2.3259,-2.3274,-2.3298,-2.3365,-2.3435,-2.3506,-2.3556,-2.3569,-2.3591,-2.3609,-2.3638,-2.3594,-2.3517,-2.3483,-2.3429,-2.3385,-2.3342,-2.3218,-2.3007,-2.2827,-2.2789,-2.2652,-2.252,-2.2444,-2.2325,-2.2127,-2.2127,-2.2189,-2.2248,-2.2279,-2.2229,-2.2257,-2.2458,-2.2694,-2.2927,-2.2977,-2.2871,-2.2897,-2.2981,-2.3077,-2.3151,-2.3182,-2.3233,-2.3301,-2.3371,-2.3415,-3.0154,-3.0085,-3.008,-3.0055,-3.0057,-2.9991,-2.9967,-2.9957,-2.9899,-2.9866,-2.9859,-2.9825,-2.9728,-2.955,-2.9492,-2.9442,-2.9382,-2.9361,-2.9318,-2.9251,-2.9209,-2.9098,-2.8984,-2.8881,-2.8749,-2.8549,-2.8322,-2.8131,-2.7945,-2.7683,-2.7496,-2.7395,-2.7087,-2.685,-2.6708,-2.6487,-2.6313,-2.6199,-2.6064,-2.5937,-2.5836,-2.5624,-2.5405,-2.5328,-2.5286,-2.5248,-2.5248,-2.5306,-2.5328,-2.5443,-2.564,-2.5873,-2.5997,-2.6066,-2.5678,-2.5096,-2.4618,-2.403,-2.3406,-2.2993,-2.2877,-2.3036,-2.3226,-2.3443,-2.3631,-2.3751,-2.371,-2.3762,-2.3719,-2.3613,-2.3593,-2.3562,-2.3615,-2.371,-2.3785,-2.3837,-2.3878,-2.3898,-2.3916,-2.3925,-2.3905,-2.3875,-2.3864,-2.3834,-2.3813,-2.3764,-2.3701,-2.3479,-2.3301,-2.3295,-2.328,-2.3212,-2.311,-2.282,-2.2561,-2.2553,-2.2606,-2.2663,-2.2694,-2.2695,-2.2747,-2.2889,-2.3107,-2.3307,-2.3319,-2.3235,-2.3304,-2.3357,-2.3426,-2.3474,-2.3495,-2.3531,-2.3615,-2.3667,-2.3719]},{"header":{"parameterUnit":"m.s-1","parameterCategory":1,"la1":31.0,"la2":29.5877,"lo1":-88.7671,"lo2":-86.6584,"dx":0.0162,"dy":0.0185,"nx":115,"ny":88,"refTime":"2022-12-09T06:00:00:Z","depth":0,"parameterNumber":3,"parameterNumberName":"V-component_of_WINDS"},"data":[0.0,0.0,0.0,0.0,0.0,0.0,0.0,0.0,0.0,0.0,0.0,0.0,0.0,0.0,0.0,0.0,0.0,0.0,0.0,0.0,0.0,0.0,0.0,0.0,0.0,0.0,0.0,0.0,0.0,0.0,0.0,0.0,0.0,0.0,0.0,0.0,0.0,0.0,0.0,0.0,0.0,0.0,0.0,0.0,0.0,0.0,0.0,0.0,0.0,0.0,0.0,0.0,0.0,0.0,0.0,0.0,0.0,0.0,0.0,0.0,0.0,0.0,0.0,0.0,0.0,0.0,0.0,0.0,0.0,0.0,0.0,0.0,0.0,0.0,0.0,0.0,0.0,0.0,0.0,0.0,0.0,0.0,0.0,0.0,0.0,0.0,0.0,0.0,0.0,0.0,0.0,0.0,0.0,0.0,0.0,0.0,0.0,0.0,0.0,0.0,0.0,0.0,0.0,0.0,0.0,0.0,0.0,0.0,0.0,0.0,0.0,0.0,0.0,0.0,0.0,0.0,0.0,0.0,0.0,0.0,0.0,0.0,0.0,0.0,0.0,0.0,0.0,0.0,0.0,0.0,0.0,0.0,0.0,0.0,0.0,0.0,0.0,0.0,0.0,0.0,0.0,0.0,0.0,0.0,0.0,0.0,0.0,0.0,0.0,0.0,0.0,0.0,0.0,0.0,0.0,0.0,0.0,0.0,0.0,0.0,0.0,0.0,0.0,0.0,0.0,0.0,0.0,0.0,0.0,0.0,0.0,0.0,0.0,0.0,0.0,0.0,0.0,0.0,0.0,0.0,0.0,0.0,0.0,0.0,0.0,0.0,0.0,0.0,0.0,0.0,0.0,0.0,0.0,0.0,0.0,0.0,0.0,0.0,0.0,0.0,0.0,0.0,0.0,0.0,0.0,0.0,0.0,0.0,0.0,0.0,0.0,0.0,0.0,0.0,0.0,0.0,0.0,0.0,0.0,0.0,0.0,0.0,0.0,0.0,0.0,0.0,0.0,0.0,0.0,0.0,0.0,0.0,0.0,0.0,0.0,0.0,0.0,0.0,0.0,0.0,0.0,0.0,0.0,0.0,0.0,0.0,0.0,0.0,0.0,0.0,0.0,0.0,0.0,0.0,0.0,0.0,0.0,0.0,0.0,0.0,0.0,0.0,0.0,0.0,0.0,0.0,0.0,0.0,0.0,0.0,0.0,0.0,0.0,0.0,0.0,0.0,0.0,0.0,0.0,0.0,0.0,0.0,0.0,0.0,0.0,0.0,0.0,0.0,0.0,0.0,0.0,0.0,0.0,0.0,0.0,0.0,0.0,0.0,0.0,0.0,0.0,0.0,0.0,0.0,0.0,0.0,0.0,0.0,0.0,0.0,0.0,0.0,0.0,0.0,0.0,0.0,0.0,0.0,0.0,0.0,0.0,0.0,0.0,0.0,0.0,0.0,0.0,0.0,0.0,0.0,0.0,0.0,0.0,0.0,0.0,0.0,0.0,0.0,0.0,0.0,0.0,0.0,0.0,0.0,0.0,0.0,0.0,0.0,0.0,0.0,0.0,0.0,0.0,0.0,0.0,0.0,0.0,0.0,0.0,0.0,0.0,0.0,0.0,0.0,0.0,0.0,0.0,0.0,0.0,0.0,0.0,0.0,0.0,0.0,0.0,0.0,0.0,0.0,0.0,0.0,0.0,0.0,0.0,0.0,0.0,0.0,0.0,0.0,0.0,0.0,0.0,0.0,0.0,0.0,0.0,0.0,0.0,0.0,0.0,0.0,0.0,0.0,0.0,0.0,0.0,0.0,0.0,0.0,0.0,0.0,0.0,0.0,0.0,0.0,0.0,0.0,0.0,0.0,0.0,0.0,0.0,0.0,0.0,0.0,0.0,0.0,0.0,0.0,0.0,0.0,0.0,0.0,0.0,0.0,0.0,0.0,0.0,0.0,0.0,0.0,0.0,0.0,0.0,0.0,0.0,0.0,0.0,0.0,0.0,0.0,0.0,0.0,0.0,0.0,0.0,0.0,0.0,0.0,0.0,0.0,0.0,0.0,0.0,0.0,0.0,0.0,0.0,0.0,0.0,0.0,0.0,0.0,0.0,0.0,0.0,0.0,0.0,0.0,0.0,0.0,0.0,0.0,0.0,0.0,0.0,0.0,0.0,0.0,0.0,0.0,0.0,0.0,0.0,0.0,0.0,0.0,0.0,0.0,0.0,0.0,0.0,0.0,0.0,0.0,0.0,0.0,0.0,0.0,0.0,0.0,0.0,0.0,0.0,0.0,0.0,0.0,0.0,0.0,0.0,0.0,0.0,0.0,0.0,0.0,0.0,0.0,0.0,0.0,0.0,0.0,0.0,0.0,0.0,0.0,0.0,0.0,0.0,0.0,0.0,0.0,0.0,0.0,0.0,0.0,0.0,0.0,0.0,0.0,0.0,0.0,0.0,0.0,0.0,0.0,0.0,0.0,0.0,0.0,0.0,0.0,0.0,0.0,0.0,0.0,0.0,0.0,0.0,0.0,0.0,0.0,0.0,0.0,0.0,0.0,0.0,0.0,0.0,0.0,0.0,0.0,0.0,0.0,0.0,0.0,0.0,0.0,0.0,0.0,0.0,0.0,0.0,0.0,0.0,0.0,0.0,0.0,0.0,0.0,0.0,0.0,0.0,0.0,0.0,0.0,0.0,0.0,0.0,0.0,0.0,0.0,0.0,0.0,0.0,0.0,0.0,0.0,0.0,0.0,0.0,0.0,0.0,0.0,0.0,0.0,0.0,0.0,0.0,0.0,0.0,0.0,0.0,0.0,0.0,0.0,0.0,0.0,0.0,0.0,0.0,0.0,0.0,0.0,0.0,0.0,0.0,0.0,0.0,0.0,0.0,0.0,0.0,0.0,0.0,0.0,0.0,0.0,0.0,0.0,0.0,0.0,0.0,0.0,0.0,0.0,0.0,0.0,0.0,0.0,0.0,0.0,0.0,0.0,0.0,0.0,0.0,0.0,0.0,0.0,0.0,0.0,0.0,0.0,0.0,0.0,0.0,0.0,0.0,0.0,0.0,0.0,0.0,0.0,0.0,0.0,0.0,0.0,0.0,0.0,0.0,0.0,0.0,0.0,0.0,0.0,0.0,0.0,0.0,0.0,0.0,0.0,0.0,0.0,0.0,0.0,0.0,0.0,0.0,0.0,0.0,0.0,0.0,0.0,0.0,0.0,0.0,0.0,0.0,0.0,0.0,0.0,0.0,0.0,0.0,0.0,0.0,0.0,0.0,0.0,0.0,0.0,0.0,0.0,0.0,0.0,0.0,0.0,0.0,0.0,0.0,0.0,0.0,0.0,0.0,0.0,0.0,0.0,0.0,0.0,0.0,0.0,0.0,0.0,0.0,0.0,0.0,0.0,0.0,0.0,0.0,0.0,0.0,0.0,0.0,0.0,0.0,0.0,0.0,0.0,0.0,0.0,0.0,0.0,0.0,0.0,0.0,0.0,0.0,0.0,0.0,0.0,0.0,0.0,0.0,0.0,0.0,0.0,0.0,0.0,0.0,0.0,0.0,0.0,0.0,0.0,0.0,0.0,0.0,0.0,0.0,0.0,0.0,0.0,0.0,0.0,0.0,0.0,0.0,0.0,0.0,0.0,0.0,0.0,0.0,0.0,0.0,0.0,0.0,0.0,0.0,0.0,0.0,0.0,0.0,0.0,0.0,0.0,0.0,0.0,0.0,0.0,0.0,0.0,0.0,0.0,0.0,0.0,0.0,0.0,0.0,0.0,0.0,0.0,0.0,0.0,0.0,0.0,0.0,0.0,0.0,0.0,0.0,0.0,0.0,0.0,0.0,0.0,0.0,0.0,0.0,0.0,0.0,0.0,0.0,0.0,0.0,0.0,0.0,0.0,0.0,0.0,0.0,0.0,0.0,0.0,0.0,0.0,0.0,0.0,0.0,0.0,0.0,0.0,0.0,0.0,0.0,0.0,0.0,0.0,0.0,0.0,0.0,0.0,0.0,0.0,0.0,0.0,0.0,0.0,0.0,0.0,0.0,0.0,0.0,0.0,0.0,0.0,0.0,0.0,0.0,0.0,0.0,0.0,0.0,0.0,0.0,0.0,0.0,0.0,0.0,0.0,0.0,0.0,0.0,0.0,0.0,0.0,0.0,0.0,0.0,0.0,0.0,0.0,0.0,0.0,0.0,0.0,0.0,0.0,0.0,0.0,0.0,0.0,0.0,0.0,0.0,0.0,0.0,0.0,0.0,0.0,0.0,0.0,-0.3665,0.0,0.0,0.0,-0.3689,0.0,0.0,0.0,0.0,0.0,0.0,0.0,0.0,0.0,0.0,0.0,0.0,0.0,0.0,0.0,0.0,0.0,0.0,0.0,0.0,0.0,0.0,0.0,0.0,0.0,0.0,0.0,0.0,0.0,0.0,0.0,0.0,0.0,0.0,0.0,0.0,0.0,0.0,0.0,0.0,0.0,0.0,0.0,0.0,0.0,0.0,0.0,0.0,0.0,0.0,0.0,0.0,0.0,0.0,0.0,0.0,0.0,0.0,0.0,0.0,0.0,0.0,0.0,0.0,0.0,0.0,0.0,0.0,0.0,0.0,0.0,0.0,0.0,0.0,0.0,0.0,0.0,0.0,0.0,0.0,0.0,0.0,0.0,0.0,0.0,0.0,0.0,0.0,0.0,0.0,0.0,0.0,0.0,0.0,0.0,0.0,0.0,0.0,0.0,0.0,0.0,0.0,0.0,0.0,0.0,0.0,0.0,0.0,0.0,0.0,-0.363,-0.36,-0.36,-0.3611,-0.3642,0.0,0.0,0.0,0.0,0.0,0.0,0.0,0.0,0.0,0.0,0.0,0.0,0.0,0.0,0.0,0.0,0.0,0.0,0.0,0.0,0.0,0.0,0.0,0.0,0.0,0.0,0.0,0.0,0.0,0.0,0.0,0.0,0.0,0.0,0.0,0.0,0.0,0.0,0.0,0.0,0.0,0.0,0.0,0.0,0.0,0.0,0.0,0.0,0.0,0.0,0.0,0.0,0.0,0.0,0.0,0.0,0.0,0.0,0.0,0.0,0.0,0.0,0.0,0.0,0.0,0.0,0.0,0.0,0.0,0.0,0.0,0.0,0.0,0.0,0.0,0.0,0.0,0.0,0.0,0.0,0.0,0.0,0.0,0.0,0.0,0.0,0.0,0.0,0.0,0.0,0.0,0.0,0.0,0.0,0.0,0.0,0.0,0.0,0.0,0.0,0.0,0.0,0.0,0.0,0.0,0.0,0.0,0.0,0.0,0.0,0.0,0.0,-0.364,-0.3585,-0.3602,0.0,0.0,0.0,0.0,0.0,0.0,0.0,0.0,0.0,0.0,0.0,0.0,0.0,0.0,0.0,0.0,0.0,0.0,0.0,0.0,0.0,0.0,0.0,0.0,0.0,0.0,0.0,0.0,0.0,0.0,0.0,0.0,0.0,0.0,0.0,0.0,0.0,0.0,0.0,0.0,0.0,0.0,0.0,0.0,0.0,0.0,0.0,0.0,0.0,0.0,0.0,0.0,0.0,0.0,0.0,0.0,0.0,0.0,0.0,0.0,0.0,0.0,0.0,0.0,0.0,0.0,0.0,0.0,0.0,0.0,0.0,0.0,0.0,0.0,0.0,0.0,0.0,0.0,0.0,0.0,0.0,0.0,0.0,0.0,0.0,0.0,0.0,0.0,0.0,0.0,0.0,0.0,0.0,0.0,0.0,0.0,0.0,0.0,0.0,0.0,0.0,0.0,0.0,0.0,0.0,0.0,0.0,0.0,0.0,0.0,-0.3741,-0.4215,-0.3767,0.0,-0.3604,0.0,0.0,0.0,0.0,0.0,0.0,0.0,0.0,0.0,0.0,0.0,0.0,0.0,0.0,0.0,0.0,0.0,0.0,0.0,0.0,0.0,0.0,0.0,0.0,0.0,0.0,0.0,0.0,0.0,0.0,0.0,0.0,0.0,0.0,0.0,0.0,0.0,0.0,0.0,0.0,0.0,0.0,0.0,0.0,0.0,0.0,0.0,0.0,0.0,0.0,0.0,0.0,0.0,0.0,0.0,0.0,0.0,0.0,0.0,0.0,0.0,0.0,0.0,0.0,0.0,0.0,0.0,0.0,0.0,0.0,0.0,0.0,0.0,0.0,0.0,0.0,0.0,0.0,0.0,0.0,0.0,0.0,0.0,0.0,0.0,0.0,0.0,0.0,0.0,0.0,0.0,0.0,0.0,0.0,0.0,0.0,0.0,0.0,0.0,0.0,0.0,0.0,0.0,0.0,0.0,0.0,0.0,0.0,0.0,0.0,-0.4055,-0.4238,-0.4061,-0.3984,0.0,0.0,0.0,0.0,0.0,0.0,0.0,0.0,0.0,0.0,0.0,0.0,0.0,0.0,0.0,0.0,0.0,0.0,0.0,0.0,0.0,0.0,0.0,0.0,0.0,0.0,0.0,0.0,0.0,0.0,0.0,0.0,0.0,0.0,0.0,0.0,0.0,0.0,0.0,0.0,0.0,0.0,0.0,0.0,0.0,0.0,0.0,0.0,0.0,0.0,0.0,0.0,0.0,0.0,0.0,0.0,0.0,0.0,0.0,0.0,0.0,0.0,0.0,0.0,0.0,0.0,0.0,0.0,0.0,0.0,0.0,0.0,0.0,0.0,0.0,0.0,0.0,0.0,0.0,0.0,0.0,0.0,0.0,0.0,0.0,0.0,0.0,0.0,0.0,0.0,0.0,0.0,0.0,0.0,0.0,0.0,0.0,0.0,0.0,0.0,0.0,0.0,0.0,0.0,0.0,0.0,0.0,0.0,0.0,0.0,-0.4063,-0.4297,-0.4392,-0.4439,-0.4415,-0.4309,0.0,0.0,0.0,0.0,0.0,0.0,0.0,0.0,0.0,0.0,0.0,0.0,0.0,0.0,0.0,0.0,0.0,0.0,0.0,0.0,0.0,0.0,0.0,0.0,0.0,0.0,0.0,0.0,0.0,0.0,0.0,0.0,0.0,0.0,0.0,0.0,0.0,0.0,0.0,0.0,0.0,0.0,0.0,0.0,0.0,0.0,0.0,0.0,0.0,0.0,0.0,0.0,0.0,0.0,0.0,0.0,0.0,0.0,0.0,0.0,0.0,0.0,0.0,0.0,0.0,0.0,0.0,0.0,0.0,0.0,0.0,0.0,0.0,0.0,0.0,0.0,0.0,0.0,0.0,0.0,0.0,0.0,0.0,0.0,0.0,0.0,0.0,0.0,0.0,0.0,0.0,0.0,0.0,0.0,0.0,0.0,0.0,0.0,0.0,0.0,0.0,0.0,0.0,0.0,0.0,0.0,0.0,0.0,-0.4241,-0.4182,-0.4375,-0.4871,-0.489,-0.4694,0.0,0.0,0.0,0.0,0.0,0.0,0.0,0.0,0.0,0.0,0.0,0.0,0.0,0.0,0.0,0.0,0.0,0.0,0.0,0.0,0.0,0.0,0.0,0.0,0.0,0.0,0.0,0.0,0.0,0.0,0.0,0.0,0.0,0.0,0.0,0.0,0.0,0.0,0.0,0.0,0.0,0.0,0.0,0.0,0.0,0.0,0.0,0.0,0.0,0.0,0.0,0.0,0.0,0.0,0.0,0.0,0.0,0.0,0.0,0.0,0.0,0.0,0.0,0.0,0.0,0.0,0.0,0.0,0.0,0.0,0.0,0.0,0.0,0.0,0.0,0.0,0.0,0.0,0.0,0.0,0.0,0.0,0.0,0.0,0.0,0.0,0.0,0.0,0.0,0.0,0.0,0.0,0.0,0.0,0.0,0.0,0.0,0.0,0.0,0.0,0.0,0.0,0.0,0.0,0.0,0.0,0.0,0.0,0.0,-0.4228,-0.4821,-0.5383,-0.5896,-0.5638,-0.5243,0.0,0.0,0.0,0.0,0.0,0.0,0.0,0.0,0.0,0.0,0.0,0.0,0.0,0.0,0.0,0.0,0.0,0.0,0.0,0.0,0.0,0.0,0.0,0.0,0.0,0.0,0.0,0.0,0.0,0.0,0.0,0.0,0.0,0.0,0.0,0.0,0.0,0.0,0.0,0.0,0.0,0.0,0.0,0.0,0.0,0.0,0.0,0.0,0.0,0.0,0.0,0.0,0.0,0.0,0.0,0.0,0.0,0.0,0.0,0.0,0.0,0.0,0.0,0.0,0.0,0.0,0.0,0.0,0.0,0.0,0.0,0.0,0.0,0.0,0.0,0.0,0.0,0.0,0.0,0.0,0.0,0.0,0.0,0.0,0.0,0.0,0.0,0.0,0.0,0.0,0.0,0.0,0.0,0.0,0.0,0.0,0.0,0.0,0.0,0.0,0.0,0.0,0.0,0.0,0.0,0.0,0.0,0.0,0.0,-0.468,-0.5516,-0.6138,-0.6429,-0.6003,-0.5501,0.0,0.0,0.0,0.0,0.0,0.0,0.0,0.0,0.0,0.0,0.0,0.0,0.0,0.0,0.0,0.0,0.0,0.0,0.0,0.0,0.0,0.0,0.0,0.0,0.0,0.0,0.0,0.0,0.0,0.0,0.0,0.0,0.0,0.0,0.0,0.0,0.0,0.0,0.0,0.0,0.0,0.0,0.0,0.0,0.0,0.0,0.0,0.0,0.0,0.0,0.0,0.0,0.0,0.0,0.0,0.0,0.0,0.0,0.0,0.0,0.0,0.0,0.0,0.0,0.0,0.0,0.0,0.0,0.0,0.0,0.0,0.0,0.0,0.0,0.0,0.0,0.0,0.0,0.0,0.0,0.0,0.0,0.0,0.0,0.0,0.0,0.0,0.0,0.0,0.0,0.0,0.0,0.0,0.0,0.0,0.0,0.0,0.0,0.0,0.0,0.0,0.0,0.0,0.0,0.0,0.0,0.0,0.0,-0.4778,-0.5661,-0.6228,-0.65,-0.6405,-0.5952,-0.5461,0.0,0.0,0.0,0.0,0.0,0.0,0.0,0.0,0.0,0.0,0.0,0.0,0.0,0.0,0.0,0.0,0.0,0.0,0.0,0.0,0.0,0.0,0.0,0.0,0.0,0.0,0.0,0.0,0.0,0.0,0.0,0.0,0.0,0.0,0.0,0.0,0.0,0.0,0.0,0.0,0.0,0.0,0.0,0.0,0.0,0.0,0.0,0.0,0.0,0.0,0.0,0.0,0.0,0.0,0.0,0.0,0.0,0.0,0.0,0.0,0.0,0.0,0.0,0.0,0.0,0.0,0.0,0.0,0.0,0.0,0.0,0.0,0.0,0.0,0.0,0.0,0.0,0.0,0.0,0.0,0.0,0.0,0.0,0.0,0.0,0.0,0.0,0.0,0.0,0.0,0.0,0.0,0.0,0.0,0.0,0.0,0.0,0.0,0.0,0.0,0.0,0.0,0.0,0.0,0.0,0.0,0.0,0.0,0.0,-0.6317,-0.6856,-0.709,-0.7014,-0.6914,-0.6425,0.0,0.0,0.0,0.0,0.0,0.0,0.0,0.0,0.0,0.0,0.0,0.0,0.0,0.0,0.0,0.0,0.0,0.0,0.0,0.0,0.0,0.0,0.0,0.0,0.0,0.0,0.0,0.0,0.0,0.0,0.0,0.0,0.0,0.0,0.0,0.0,0.0,0.0,0.0,0.0,0.0,0.0,0.0,0.0,0.0,0.0,0.0,0.0,0.0,0.0,0.0,0.0,0.0,0.0,0.0,0.0,0.0,0.0,0.0,0.0,0.0,0.0,0.0,0.0,0.0,0.0,0.0,0.0,0.0,0.0,0.0,0.0,0.0,0.0,0.0,0.0,0.0,0.0,0.0,0.0,0.0,0.0,0.0,0.0,0.0,0.0,0.0,0.0,0.0,0.0,0.0,0.0,0.0,0.0,0.0,0.0,0.0,0.0,0.0,0.0,0.0,0.0,0.0,0.0,0.0,0.0,0.0,0.0,0.0,-0.7339,-0.7597,-0.7712,-0.7631,-0.7476,-0.6991,-0.6127,0.0,0.0,0.0,0.0,0.0,0.0,0.0,0.0,0.0,0.0,0.0,0.0,0.0,0.0,0.0,0.0,0.0,0.0,0.0,0.0,0.0,0.0,0.0,0.0,0.0,0.0,0.0,0.0,0.0,0.0,0.0,0.0,0.0,0.0,0.0,0.0,0.0,0.0,0.0,0.0,0.0,0.0,0.0,0.0,0.0,0.0,0.0,0.0,0.0,0.0,0.0,0.0,0.0,0.0,0.0,0.0,0.0,0.0,0.0,0.0,0.0,0.0,0.0,0.0,0.0,0.0,0.0,0.0,0.0,0.0,0.0,0.0,0.0,0.0,0.0,0.0,0.0,0.0,0.0,0.0,0.0,0.0,0.0,0.0,0.0,0.0,0.0,0.0,0.0,0.0,0.0,0.0,0.0,0.0,0.0,0.0,0.0,0.0,0.0,0.0,0.0,0.0,0.0,0.0,0.0,0.0,0.0,0.0,-0.8693,-0.8555,-0.8424,-0.8255,-0.7731,-0.7206,0.0,0.0,0.0,0.0,0.0,0.0,0.0,0.0,0.0,0.0,0.0,0.0,0.0,0.0,0.0,0.0,0.0,0.0,0.0,0.0,0.0,0.0,0.0,0.0,0.0,0.0,0.0,0.0,0.0,0.0,0.0,0.0,0.0,0.0,0.0,0.0,0.0,0.0,0.0,0.0,0.0,0.0,0.0,0.0,0.0,0.0,0.0,0.0,0.0,0.0,0.0,0.0,0.0,0.0,0.0,0.0,0.0,0.0,0.0,0.0,0.0,0.0,0.0,0.0,0.0,0.0,0.0,0.0,0.0,0.0,0.0,0.0,0.0,0.0,0.0,0.0,0.0,0.0,0.0,0.0,0.0,0.0,0.0,0.0,0.0,0.0,0.0,0.0,0.0,0.0,0.0,0.0,0.0,0.0,0.0,0.0,0.0,0.0,0.0,0.0,0.0,0.0,0.0,0.0,0.0,0.0,0.0,0.0,0.0,-1.0097,-1.0379,-1.0047,-0.9047,-0.8433,-0.7912,0.0,0.0,0.0,0.0,0.0,0.0,0.0,0.0,0.0,0.0,0.0,0.0,0.0,0.0,0.0,0.0,0.0,0.0,0.0,0.0,0.0,0.0,0.0,0.0,0.0,0.0,0.0,0.0,0.0,0.0,0.0,0.0,0.0,0.0,0.0,0.0,0.0,0.0,0.0,0.0,0.0,0.0,0.0,0.0,0.0,0.0,0.0,0.0,0.0,0.0,0.0,0.0,0.0,0.0,0.0,0.0,0.0,0.0,0.0,0.0,0.0,0.0,0.0,0.0,0.0,0.0,0.0,0.0,0.0,0.0,0.0,0.0,0.0,0.0,0.0,0.0,0.0,0.0,0.0,0.0,0.0,0.0,0.0,0.0,0.0,0.0,0.0,0.0,0.0,0.0,0.0,0.0,0.0,0.0,0.0,0.0,0.0,0.0,0.0,0.0,0.0,0.0,0.0,0.0,0.0,0.0,0.0,0.0,-0.9918,-1.0725,-1.1428,-1.1296,-1.0214,-0.9602,-0.8911,0.0,0.0,0.0,0.0,0.0,0.0,0.0,0.0,0.0,0.0,0.0,0.0,0.0,0.0,0.0,0.0,0.0,0.0,0.0,0.0,0.0,0.0,0.0,0.0,0.0,0.0,0.0,0.0,0.0,0.0,0.0,0.0,0.0,0.0,0.0,0.0,0.0,0.0,0.0,0.0,0.0,0.0,0.0,0.0,0.0,0.0,0.0,0.0,0.0,0.0,0.0,0.0,0.0,0.0,0.0,0.0,0.0,0.0,0.0,0.0,0.0,0.0,0.0,0.0,0.0,0.0,0.0,0.0,0.0,0.0,0.0,0.0,0.0,0.0,0.0,0.0,0.0,0.0,0.0,0.0,0.0,0.0,0.0,0.0,0.0,0.0,0.0,0.0,0.0,0.0,0.0,0.0,0.0,0.0,0.0,0.0,0.0,0.0,0.0,0.0,0.0,0.0,0.0,0.0,0.0,0.0,0.0,0.0,-1.0563,-1.1029,-1.2082,-1.2299,-1.1656,-1.0921,-0.9954,0.0,0.0,0.0,0.0,0.0,0.0,0.0,0.0,0.0,0.0,0.0,0.0,0.0,0.0,0.0,0.0,0.0,0.0,0.0,0.0,0.0,0.0,0.0,0.0,0.0,0.0,0.0,0.0,0.0,0.0,0.0,0.0,0.0,0.0,0.0,0.0,0.0,0.0,0.0,0.0,0.0,0.0,0.0,0.0,0.0,0.0,0.0,0.0,0.0,0.0,0.0,0.0,0.0,0.0,0.0,0.0,0.0,0.0,0.0,0.0,0.0,0.0,0.0,0.0,0.0,0.0,0.0,0.0,0.0,0.0,0.0,0.0,0.0,0.0,0.0,0.0,0.0,0.0,0.0,0.0,0.0,0.0,0.0,0.0,0.0,0.0,0.0,0.0,0.0,0.0,0.0,0.0,0.0,0.0,0.0,0.0,0.0,0.0,0.0,0.0,0.0,0.0,0.0,0.0,0.0,0.0,0.0,0.0,-1.1533,-1.2518,-1.3129,-1.3375,-1.3208,-1.1546,-1.0102,0.0,0.0,0.0,0.0,0.0,0.0,0.0,0.0,0.0,0.0,0.0,0.0,0.0,0.0,0.0,0.0,0.0,0.0,0.0,0.0,0.0,0.0,0.0,0.0,0.0,0.0,0.0,0.0,0.0,0.0,0.0,0.0,0.0,0.0,0.0,0.0,0.0,0.0,0.0,0.0,0.0,0.0,0.0,0.0,0.0,0.0,0.0,0.0,-0.89,0.0,0.0,0.0,0.0,0.0,0.0,0.0,0.0,0.0,0.0,0.0,0.0,0.0,0.0,0.0,0.0,0.0,0.0,0.0,0.0,0.0,0.0,0.0,0.0,0.0,0.0,0.0,0.0,0.0,0.0,0.0,0.0,0.0,0.0,0.0,0.0,0.0,0.0,0.0,0.0,0.0,0.0,0.0,0.0,0.0,0.0,0.0,0.0,0.0,0.0,0.0,0.0,0.0,0.0,0.0,0.0,0.0,0.0,0.0,-1.2247,-1.3026,-1.3817,-1.4063,-1.3677,-1.2416,-1.1026,0.0,0.0,0.0,0.0,0.0,0.0,0.0,0.0,0.0,0.0,0.0,0.0,0.0,0.0,0.0,0.0,0.0,0.0,0.0,0.0,0.0,0.0,0.0,0.0,0.0,0.0,0.0,0.0,0.0,0.0,0.0,0.0,0.0,0.0,0.0,0.0,0.0,0.0,0.0,0.0,0.0,0.0,0.0,0.0,0.0,0.0,0.0,0.0,0.0,0.0,0.0,0.0,0.0,0.0,0.0,0.0,0.0,0.0,0.0,0.0,0.0,0.0,0.0,0.0,0.0,0.0,0.0,0.0,0.0,0.0,0.0,0.0,0.0,0.0,0.0,0.0,0.0,0.0,0.0,0.0,0.0,0.0,0.0,0.0,0.0,0.0,0.0,0.0,0.0,0.0,0.0,0.0,0.0,0.0,0.0,0.0,0.0,0.0,0.0,0.0,0.0,0.0,0.0,0.0,0.0,0.0,0.0,-1.1785,-1.2871,-1.3299,-1.4287,-1.4502,-1.3895,-1.3256,-1.2129,-1.0383,0.0,0.0,0.0,0.0,0.0,0.0,0.0,0.0,0.0,0.0,0.0,0.0,0.0,0.0,0.0,0.0,0.0,0.0,0.0,0.0,0.0,0.0,0.0,0.0,0.0,0.0,0.0,0.0,0.0,0.0,0.0,0.0,0.0,0.0,0.0,0.0,0.0,0.0,-0.8446,-0.9638,0.0,0.0,0.0,0.0,0.0,0.0,0.0,0.0,-1.0689,0.0,0.0,0.0,0.0,0.0,0.0,0.0,0.0,0.0,0.0,0.0,0.0,0.0,0.0,0.0,0.0,0.0,0.0,0.0,0.0,0.0,0.0,0.0,0.0,0.0,0.0,0.0,0.0,0.0,0.0,0.0,0.0,0.0,0.0,0.0,0.0,0.0,0.0,0.0,0.0,0.0,0.0,0.0,0.0,0.0,0.0,0.0,0.0,0.0,0.0,0.0,0.0,0.0,0.0,0.0,0.0,-1.0897,-1.2574,-1.3639,-1.4096,-1.4618,-1.4837,-1.4679,-1.3686,-1.2587,-1.1366,0.0,0.0,0.0,0.0,0.0,0.0,0.0,0.0,0.0,0.0,0.0,0.0,0.0,0.0,0.0,0.0,0.0,0.0,0.0,0.0,0.0,0.0,0.0,0.0,0.0,0.0,0.0,0.0,0.0,0.0,0.0,0.0,0.0,0.0,0.0,0.0,0.0,0.0,0.0,-1.0342,-1.0759,0.0,0.0,0.0,0.0,0.0,0.0,0.0,0.0,-1.0809,0.0,0.0,0.0,0.0,0.0,0.0,0.0,0.0,0.0,0.0,0.0,0.0,0.0,0.0,0.0,0.0,0.0,0.0,0.0,0.0,0.0,0.0,0.0,0.0,0.0,0.0,0.0,0.0,0.0,0.0,0.0,0.0,0.0,0.0,0.0,0.0,0.0,0.0,0.0,0.0,0.0,0.0,0.0,0.0,0.0,0.0,0.0,0.0,0.0,0.0,0.0,0.0,0.0,0.0,0.0,-1.1084,-1.277,-1.4048,-1.4848,-1.4922,-1.5114,-1.5428,-1.4034,-1.2731,0.0,0.0,0.0,0.0,0.0,0.0,0.0,0.0,0.0,0.0,0.0,0.0,0.0,0.0,0.0,0.0,0.0,0.0,0.0,0.0,0.0,0.0,0.0,0.0,0.0,0.0,0.0,0.0,0.0,0.0,0.0,0.0,0.0,0.0,0.0,0.0,0.0,0.0,0.0,0.0,-1.1503,-1.2014,-1.2749,0.0,0.0,0.0,0.0,0.0,0.0,-1.2781,-1.2222,0.0,0.0,0.0,0.0,0.0,0.0,0.0,0.0,0.0,0.0,0.0,0.0,0.0,0.0,0.0,0.0,0.0,0.0,0.0,0.0,0.0,0.0,0.0,0.0,0.0,0.0,0.0,0.0,0.0,0.0,0.0,0.0,0.0,0.0,0.0,0.0,0.0,0.0,0.0,0.0,0.0,0.0,0.0,0.0,0.0,0.0,0.0,0.0,0.0,0.0,0.0,0.0,0.0,0.0,0.0,-1.1275,-1.2919,-1.4357,-1.552,-1.5359,-1.5487,-1.5966,-1.4429,-1.2995,0.0,0.0,0.0,0.0,0.0,0.0,0.0,0.0,0.0,0.0,0.0,0.0,0.0,0.0,0.0,0.0,0.0,0.0,0.0,0.0,0.0,0.0,0.0,0.0,0.0,0.0,0.0,0.0,0.0,0.0,0.0,0.0,0.0,0.0,0.0,0.0,0.0,0.0,0.0,0.0,0.0,-1.3369,-1.3941,-1.4724,0.0,0.0,0.0,0.0,-1.5167,-1.4372,0.0,0.0,0.0,0.0,0.0,0.0,0.0,0.0,0.0,0.0,0.0,0.0,0.0,0.0,0.0,0.0,0.0,0.0,0.0,0.0,0.0,0.0,0.0,0.0,0.0,0.0,0.0,0.0,0.0,0.0,0.0,0.0,0.0,0.0,0.0,0.0,0.0,0.0,0.0,0.0,0.0,0.0,0.0,0.0,0.0,0.0,0.0,0.0,0.0,0.0,0.0,0.0,0.0,0.0,0.0,0.0,-1.192,-1.3235,-1.4667,-1.618,-1.615,-1.6061,-1.6074,-1.503,-1.3681,0.0,0.0,0.0,0.0,0.0,0.0,0.0,0.0,0.0,0.0,0.0,0.0,0.0,0.0,0.0,0.0,0.0,0.0,0.0,0.0,0.0,0.0,0.0,0.0,0.0,0.0,0.0,0.0,0.0,0.0,0.0,0.0,0.0,0.0,0.0,0.0,0.0,0.0,0.0,0.0,0.0,-1.406,-1.4087,-1.5272,-1.6288,0.0,0.0,-1.6063,-1.5958,-1.5219,0.0,0.0,0.0,0.0,0.0,0.0,0.0,0.0,0.0,0.0,0.0,0.0,0.0,0.0,0.0,0.0,0.0,0.0,0.0,0.0,0.0,0.0,0.0,0.0,0.0,0.0,0.0,0.0,0.0,0.0,0.0,0.0,0.0,0.0,0.0,0.0,0.0,0.0,0.0,0.0,0.0,0.0,0.0,0.0,0.0,0.0,0.0,0.0,0.0,0.0,0.0,0.0,0.0,0.0,0.0,-0.9624,-1.2174,-1.3744,-1.5368,-1.707,-1.6901,-1.6812,-1.6876,-1.5404,-1.404,0.0,0.0,0.0,0.0,0.0,0.0,0.0,0.0,0.0,0.0,0.0,0.0,0.0,0.0,0.0,0.0,0.0,0.0,0.0,0.0,0.0,0.0,0.0,0.0,0.0,0.0,0.0,0.0,0.0,0.0,0.0,0.0,0.0,0.0,0.0,0.0,0.0,0.0,0.0,0.0,0.0,0.0,-1.5038,-1.6047,0.0,0.0,0.0,-1.7307,-1.685,0.0,0.0,0.0,0.0,0.0,0.0,0.0,0.0,0.0,0.0,0.0,0.0,0.0,0.0,0.0,0.0,0.0,0.0,0.0,0.0,0.0,0.0,0.0,0.0,0.0,0.0,0.0,0.0,0.0,0.0,0.0,0.0,0.0,0.0,0.0,0.0,0.0,0.0,0.0,0.0,0.0,0.0,0.0,0.0,0.0,0.0,0.0,0.0,0.0,0.0,0.0,0.0,0.0,0.0,0.0,0.0,0.0,-1.2288,-1.4147,-1.5932,-1.7639,-1.7596,-1.7541,-1.7467,-1.601,0.0,0.0,0.0,0.0,0.0,0.0,0.0,0.0,0.0,0.0,0.0,0.0,0.0,0.0,0.0,0.0,0.0,0.0,0.0,0.0,0.0,0.0,0.0,0.0,0.0,0.0,0.0,-0.53,0.0,0.0,0.0,0.0,0.0,0.0,0.0,0.0,0.0,0.0,0.0,0.0,0.0,0.0,-1.5771,-1.597,-1.6872,-1.7613,0.0,0.0,-1.8382,-1.7965,-1.7533,-1.6787,0.0,0.0,0.0,0.0,0.0,0.0,0.0,0.0,0.0,0.0,0.0,0.0,0.0,0.0,0.0,0.0,0.0,0.0,0.0,0.0,0.0,0.0,0.0,0.0,0.0,0.0,0.0,0.0,0.0,0.0,0.0,0.0,0.0,0.0,0.0,0.0,0.0,0.0,0.0,0.0,0.0,0.0,0.0,0.0,0.0,0.0,0.0,0.0,0.0,0.0,0.0,0.0,0.0,0.0,-1.0595,-1.2386,-1.4291,-1.606,-1.7655,-1.8233,-1.8177,-1.7521,-1.7067,-1.5719,0.0,0.0,0.0,0.0,0.0,0.0,0.0,0.0,0.0,0.0,0.0,0.0,0.0,0.0,0.0,0.0,0.0,0.0,0.0,0.0,0.0,0.0,0.0,0.0,0.0,0.0,0.0,0.0,0.0,0.0,0.0,0.0,0.0,0.0,0.0,0.0,0.0,0.0,0.0,0.0,0.0,-1.653,-1.6543,-1.7718,-1.9112,0.0,-1.9522,-1.882,-1.9444,-1.8323,-1.7099,-1.6238,0.0,0.0,0.0,0.0,0.0,0.0,0.0,0.0,0.0,0.0,0.0,0.0,0.0,0.0,0.0,0.0,0.0,0.0,0.0,0.0,0.0,0.0,0.0,0.0,0.0,0.0,0.0,0.0,0.0,0.0,0.0,0.0,0.0,0.0,0.0,0.0,0.0,0.0,0.0,0.0,0.0,0.0,0.0,0.0,0.0,0.0,0.0,0.0,0.0,0.0,0.0,0.0,0.0,-1.0768,-1.252,-1.4764,-1.655,-1.7861,-1.875,-1.8909,-1.8264,-1.7446,-1.6257,0.0,0.0,0.0,0.0,0.0,0.0,0.0,0.0,0.0,0.0,0.0,0.0,0.0,0.0,0.0,0.0,0.0,0.0,0.0,0.0,0.0,0.0,0.0,0.0,0.0,0.0,0.0,0.0,-0.7747,-0.8225,-0.8137,0.0,0.0,0.0,0.0,0.0,0.0,0.0,0.0,0.0,0.0,-1.8064,-1.8032,-1.9254,0.0,0.0,-2.2013,-2.1182,-1.9948,-1.9265,-1.8432,-1.7143,-1.6036,0.0,0.0,0.0,0.0,0.0,0.0,0.0,0.0,0.0,0.0,0.0,0.0,0.0,0.0,0.0,0.0,0.0,0.0,0.0,0.0,0.0,0.0,0.0,0.0,0.0,0.0,0.0,0.0,0.0,0.0,0.0,0.0,0.0,0.0,0.0,0.0,0.0,0.0,0.0,0.0,0.0,0.0,0.0,0.0,0.0,0.0,0.0,0.0,0.0,0.0,0.0,0.0,-1.1397,-1.2925,-1.536,-1.7068,-1.7978,-1.9066,-1.9347,-1.8761,-1.7857,-1.6875,0.0,0.0,0.0,0.0,0.0,0.0,0.0,0.0,0.0,0.0,0.0,0.0,0.0,0.0,0.0,0.0,0.0,0.0,0.0,0.0,0.0,0.0,0.0,0.0,0.0,0.0,0.0,0.0,-0.8561,-0.9033,-0.8973,0.0,0.0,0.0,0.0,0.0,0.0,0.0,0.0,0.0,0.0,-1.9162,-1.9561,-2.0462,-2.1698,-2.3321,-2.3553,-2.278,-2.0557,-2.0021,-1.9297,-1.7691,0.0,0.0,0.0,0.0,0.0,0.0,0.0,0.0,0.0,0.0,0.0,0.0,0.0,0.0,0.0,0.0,0.0,0.0,0.0,0.0,0.0,0.0,0.0,0.0,0.0,0.0,0.0,-0.4316,0.0,0.0,-0.465,0.0,0.0,0.0,0.0,0.0,0.0,0.0,0.0,0.0,0.0,0.0,0.0,0.0,0.0,0.0,0.0,0.0,0.0,0.0,0.0,0.0,0.0,-1.2638,-1.3681,-1.6093,-1.7567,-1.8025,-1.9103,-1.9429,-1.8925,-1.8425,-1.7673,-1.6602,0.0,0.0,0.0,0.0,0.0,0.0,0.0,0.0,0.0,0.0,0.0,0.0,0.0,0.0,0.0,0.0,0.0,0.0,0.0,0.0,0.0,0.0,0.0,0.0,0.0,0.0,-0.8579,-0.9347,-0.9822,0.0,0.0,0.0,0.0,0.0,0.0,0.0,0.0,0.0,-1.6695,-1.8163,-1.9631,-2.1017,-2.1169,-2.1783,-2.3453,-2.3691,-2.3102,-2.1432,-2.0524,-1.944,0.0,0.0,0.0,0.0,0.0,0.0,0.0,0.0,0.0,0.0,0.0,0.0,0.0,0.0,0.0,0.0,0.0,0.0,0.0,0.0,0.0,0.0,0.0,0.0,0.0,0.0,0.0,-0.5927,-0.5722,0.0,0.0,0.0,0.0,0.0,0.0,0.0,0.0,0.0,0.0,0.0,-1.0828,-1.1086,0.0,0.0,0.0,0.0,0.0,0.0,0.0,0.0,0.0,0.0,0.0,0.0,-1.3092,-1.3778,-1.608,-1.7546,-1.8017,-1.9103,-1.9646,-1.9492,-1.9104,-1.8296,-1.7087,0.0,0.0,0.0,0.0,0.0,0.0,0.0,0.0,0.0,0.0,0.0,0.0,0.0,0.0,0.0,0.0,0.0,0.0,0.0,0.0,0.0,0.0,0.0,0.0,0.0,-0.8817,0.0,0.0,0.0,0.0,0.0,0.0,0.0,0.0,0.0,0.0,-1.475,-1.6177,-1.8298,-1.9791,-2.0871,-2.1375,-2.2242,-2.3058,0.0,0.0,0.0,0.0,0.0,0.0,0.0,0.0,0.0,0.0,0.0,0.0,0.0,-1.4957,-1.4177,-1.2569,-1.2254,-1.2219,-1.214,0.0,0.0,0.0,0.0,0.0,0.0,0.0,0.0,0.0,0.0,0.0,0.0,0.0,0.0,-0.7357,-0.7168,-0.7276,0.0,0.0,0.0,0.0,0.0,0.0,0.0,0.0,-1.086,-1.1604,-1.2343,-1.2813,-1.2938,-1.2747,-1.2791,-1.1925,0.0,0.0,0.0,0.0,0.0,0.0,0.0,0.0,-1.3784,-1.4697,-1.6602,-1.7838,-1.8301,-1.9248,-1.9769,-1.9843,-1.9542,-1.8688,-1.7244,-1.5704,-1.4307,0.0,0.0,0.0,0.0,0.0,0.0,0.0,0.0,0.0,0.0,0.0,0.0,0.0,0.0,0.0,0.0,0.0,0.0,0.0,0.0,0.0,0.0,0.0,-1.0051,0.0,0.0,0.0,0.0,0.0,0.0,0.0,0.0,0.0,-1.4706,-1.609,-1.7666,-1.9193,-2.0928,-2.1898,-2.155,0.0,0.0,0.0,0.0,0.0,0.0,0.0,-2.1961,-2.0565,-1.9869,-1.9281,-1.8623,-1.78,-1.7251,-1.7279,0.0,0.0,-1.4592,-1.4356,-1.4486,-1.4414,-1.4294,-1.4334,-1.4734,-1.4802,-1.4893,0.0,0.0,0.0,0.0,-0.7651,0.0,0.0,0.0,-0.8331,-0.8529,0.0,-0.8466,0.0,0.0,0.0,0.0,-0.9472,-1.0079,0.0,0.0,-1.2428,-1.3389,-1.4118,-1.4217,-1.4364,-1.4522,-1.4178,-1.3757,-1.3257,-1.1832,-1.0935,0.0,0.0,0.0,0.0,0.0,-1.4722,-1.6422,-1.7589,-1.8394,-1.8814,-1.9451,-1.9876,-2.0008,-1.9815,-1.8915,-1.7243,-1.7327,-1.628,-1.3784,-1.3047,0.0,0.0,0.0,0.0,0.0,0.0,0.0,0.0,0.0,0.0,0.0,0.0,0.0,0.0,0.0,0.0,0.0,0.0,0.0,0.0,-1.1708,0.0,0.0,0.0,0.0,0.0,0.0,0.0,0.0,0.0,-1.4901,-1.5003,-1.7559,-1.9503,-1.956,0.0,0.0,0.0,0.0,-2.3806,-2.3815,-2.3815,-2.3531,-2.2782,-2.2596,-2.2207,-2.1208,0.0,0.0,-2.0615,-2.009,-1.9754,-2.0177,-1.9701,-1.8756,-1.692,-1.6977,-1.7281,-1.7224,-1.7022,-1.6958,-1.6983,-1.7075,-1.733,-0.8296,0.0,0.0,0.0,0.0,-0.8795,-0.8947,-0.9017,-0.9282,-0.9519,-0.9675,-0.9865,0.0,0.0,0.0,0.0,0.0,0.0,-1.2248,-1.3265,-1.3604,-1.4366,-1.5465,-1.5569,-1.5702,-1.5862,-1.5922,-1.5467,-1.4535,-1.4222,-1.3461,-1.2299,0.0,0.0,0.0,0.0,-1.5443,-1.6434,-1.7597,-1.8474,-1.9008,-1.9631,-2.0043,-2.0277,-2.0002,-1.9651,-1.9227,-1.8016,-1.7075,-1.6425,-1.4366,0.0,0.0,0.0,0.0,0.0,0.0,0.0,0.0,0.0,0.0,0.0,0.0,0.0,0.0,0.0,0.0,0.0,0.0,0.0,-1.2545,-1.2359,-1.2433,0.0,0.0,0.0,0.0,0.0,0.0,0.0,0.0,0.0,-1.8207,-1.8931,-2.0144,0.0,0.0,-2.3116,-2.3389,-2.3723,-2.3937,-2.3928,-2.3946,0.0,-2.3583,-2.3474,-2.3098,-2.2153,-2.1352,-2.0807,-2.0629,-2.0135,-1.9907,-2.0317,-2.0531,-2.0451,-1.9964,-1.9344,-1.8984,-1.8801,-1.8721,-1.8613,-1.8463,-1.8451,-1.8404,-0.9297,-0.8867,-0.9234,-0.9596,-0.9915,-1.0203,-1.0381,-1.0492,-1.0793,-1.1018,-1.1225,-1.1392,-1.1372,-1.1215,-1.1419,0.0,0.0,0.0,-1.3791,-1.4797,-1.502,-1.5591,-1.64,-1.6748,-1.6872,-1.6811,-1.7021,-1.6637,-1.5716,-1.5832,-1.5481,-1.4656,0.0,-1.3801,-1.4445,-1.5288,-1.6305,-1.7441,-1.8184,-1.8848,-1.9453,-1.989,-2.0243,-2.0509,-2.0383,-2.0209,-2.0053,-1.9068,-1.8209,-1.7458,-1.589,-1.4345,0.0,0.0,0.0,0.0,0.0,0.0,0.0,0.0,0.0,0.0,0.0,-0.8006,-0.8018,0.0,0.0,0.0,-1.2464,-1.3778,-1.4647,-1.4346,0.0,0.0,0.0,0.0,0.0,0.0,0.0,-1.7315,-1.897,-2.0323,-2.0936,-2.0986,-2.1512,-2.3014,-2.3417,-2.3704,-2.4144,0.0,-2.4084,-2.4074,-2.4075,-2.4026,-2.3886,-2.383,-2.3559,-2.2888,-2.2187,-2.1657,-2.1511,-2.1225,-2.1103,-2.1283,-2.1579,-2.1769,-2.1694,-2.1164,-2.0646,-2.0411,-2.0248,-2.0088,-1.9913,-1.9754,-1.9569,-1.0141,-1.0424,-1.0858,-1.1175,-1.1443,-1.1765,-1.1981,-1.2169,-1.2462,-1.2727,-1.2904,-1.2893,-1.2834,-1.28,-1.2858,0.0,-1.4083,-1.4622,-1.5238,-1.5927,-1.6469,-1.6859,-1.7105,-1.7715,-1.7818,-1.7476,-1.7597,-1.7402,-1.6881,-1.6877,-1.6977,-1.7118,-1.5186,-1.4834,-1.6082,-1.627,-1.7256,-1.9061,-1.9108,-1.9418,-2.0028,-2.0218,-2.0433,-2.0702,-2.0836,-2.0663,-2.0134,-2.0297,-1.9446,-1.7518,-1.7427,-1.6263,-1.3742,0.0,0.0,0.0,0.0,0.0,0.0,0.0,0.0,0.0,0.0,0.0,0.0,0.0,0.0,-1.322,-1.4754,0.0,-1.6913,-1.7047,0.0,0.0,0.0,-1.7408,-1.7393,-1.8101,-1.8905,-1.9694,0.0,0.0,-2.3008,-2.3258,-2.3297,-2.3301,-2.3931,-2.4358,-2.4237,-2.4228,-2.4209,-2.4228,-2.4227,-2.4113,-2.3907,-2.383,-2.3669,-2.3312,-2.3132,-2.289,-2.2815,-2.2798,-2.279,-2.2617,-2.2694,-2.2628,-2.2432,-2.2268,-2.22,-2.1803,-2.1514,-2.1268,-2.111,-2.0894,-2.0651,-1.0934,-1.1418,-1.1908,-1.197,-1.1747,-1.1953,-1.2174,-1.2419,-1.2537,-1.2774,-1.3057,-1.3289,-1.3763,-1.4381,-1.4523,-1.4885,-1.5372,-1.5487,-1.5972,-1.6687,-1.6868,-1.7217,-1.777,-1.8033,-1.8138,-1.8103,-1.8228,-1.7976,-1.7444,-1.7568,-1.7412,-1.6964,-1.6736,-1.6851,-1.7291,-1.747,-1.8065,-1.9075,-1.9237,-1.9676,-2.0344,-2.0518,-2.0661,-2.0769,-2.0949,-2.1007,-2.0902,-2.0527,-1.9869,-1.8844,-1.7821,-1.6781,-1.5727,-1.422,0.0,0.0,0.0,0.0,0.0,0.0,0.0,0.0,0.0,-1.1445,-1.2091,0.0,-1.3988,0.0,-1.5816,-1.68,-1.7638,-1.7851,0.0,0.0,-1.9511,-1.9926,-1.9926,-2.0641,-2.1207,-2.141,-2.2135,-2.2766,-2.3139,-2.3786,-2.4175,-2.4186,-2.4309,-2.4412,-2.4411,-2.4394,-2.4367,-2.4431,-2.4404,-2.4237,-2.4149,-2.3891,-2.369,-2.3415,-2.3177,-2.2982,-2.2898,-2.2812,-2.2738,-2.2712,-2.2712,-2.2632,-2.2492,-2.241,-2.2285,-2.2015,-2.1774,-2.1527,-2.1262,-2.1103,-2.0924,-1.1251,-1.1823,-1.2352,-1.2512,-1.2443,-1.2612,-1.2837,-1.3077,-1.3183,-1.3416,-1.3806,-1.4098,-1.4618,-1.5261,-1.5478,-1.5795,-1.6204,-1.6444,-1.6861,-1.7387,-1.7394,-1.7636,-1.8082,-1.8176,-1.8268,-1.8392,-1.8464,-1.8329,-1.8026,-1.8181,-1.8083,-1.7773,-1.8127,-1.8362,-1.8453,-1.8453,-1.8785,-1.9489,-1.9732,-2.0087,-2.0605,-2.0703,-2.0818,-2.0933,-2.1079,-2.1159,-2.1199,-2.0914,-2.0426,-1.9764,-1.8716,-1.7715,-1.6797,-1.545,-1.4461,0.0,0.0,0.0,0.0,0.0,0.0,0.0,0.0,0.0,0.0,0.0,-1.57,-1.691,-1.7802,-1.8669,-1.9561,-1.9769,-2.0054,-2.0564,-2.1036,-2.1337,-2.1337,-2.2042,-2.2534,-2.2544,-2.3267,-2.3768,-2.3795,-2.4184,-2.4648,-2.4974,-2.5003,-2.4846,-2.4621,-2.4846,-2.5245,-2.5504,-2.5662,-2.5562,-2.52,-2.4902,-2.4657,-2.4438,-2.394,-2.3548,-2.3441,-2.3015,-2.2712,-2.2712,-2.2712,-2.2659,-2.256,-2.2487,-2.2369,-2.2155,-2.1922,-2.167,-2.1325,-2.1175,-2.0989,-1.1377,-1.1997,-1.25,-1.29,-1.3218,-1.3362,-1.3568,-1.3844,-1.3939,-1.4249,-1.4686,-1.4982,-1.5377,-1.58,-1.6018,-1.6367,-1.6837,-1.7283,-1.7632,-1.7909,-1.7909,-1.8003,-1.8196,-1.8189,-1.8294,-1.8505,-1.8505,-1.8484,-1.8524,-1.8646,-1.8748,-1.8836,-1.9131,-1.9347,-1.9406,-1.9206,-1.9421,-2.0061,-2.032,-2.0568,-2.0786,-2.0843,-2.0909,-2.1111,-2.1175,-2.1215,-2.1207,-2.1262,-2.0994,-2.0329,-1.9747,-1.8836,-1.7538,-1.6878,-1.6004,0.0,-1.4761,0.0,0.0,0.0,0.0,0.0,0.0,0.0,0.0,-1.6512,-1.7639,-1.9156,-2.0002,-2.0788,-2.1615,-2.1901,-2.2092,-2.2151,-2.2248,-2.2312,-2.2357,-2.2933,-2.3378,-2.3369,-2.4045,-2.4509,-2.4481,-2.4565,-2.4946,-2.5531,-2.5773,-2.5634,-2.5086,-2.5625,-2.6377,-2.7055,-2.729,-2.6841,-2.6323,-2.6084,-2.5898,-2.5651,-2.5017,-2.4427,-2.4274,-2.3379,-2.2781,-2.2983,-2.3117,-2.3051,-2.2914,-2.288,-2.277,-2.2631,-2.244,-2.2087,-2.1475,-2.1215,-2.0981,-1.1803,-1.2254,-1.274,-1.3045,-1.3218,-1.3462,-1.3721,-1.3973,-1.3968,-1.4384,-1.5034,-1.5463,-1.5914,-1.6337,-1.6625,-1.6966,-1.7349,-1.747,-1.7652,-1.7909,-1.7909,-1.7989,-1.8196,-1.8189,-1.8301,-1.8478,-1.8505,-1.8563,-1.8666,-1.8748,-1.8843,-1.896,-1.9228,-1.9369,-1.9413,0.0,0.0,0.0,-2.0575,-2.0719,-2.0893,-2.099,-2.1087,-2.1175,-2.1183,0.0,-2.1278,-2.1301,-2.0986,-2.0345,-2.0182,0.0,0.0,0.0,0.0,0.0,0.0,0.0,0.0,0.0,0.0,0.0,-1.7775,-1.7903,-1.8164,-1.9421,-2.0397,-2.0819,-2.1104,-2.137,-2.1598,-2.238,-2.287,-2.2915,-2.3575,-2.4017,-2.4036,-2.4156,-2.4267,-2.4259,-2.4397,-2.4518,-2.4574,-2.5048,-2.5531,-2.5782,-2.6265,-2.6581,-2.6488,-2.6646,-2.7306,-2.8532,-2.7827,-2.6824,-2.6445,-2.6352,-2.6293,-2.5876,-2.561,-2.5293,-2.5031,-2.3783,-2.3272,-2.4221,-2.4574,-2.4537,-2.4422,-2.4361,-2.4153,-2.4066,-2.3836,-2.3221,-2.1709,-2.1278,-2.1071,-1.1972,-1.2426,-1.2842,-1.3118,0.0,-1.3515,-1.3744,-1.4002,-1.4002,-1.4384,-1.5028,-1.5519,-1.5975,-1.6377,-1.6663,-1.703,-1.7461,-1.7482,-1.7659,-1.7902,-1.7909,-1.8003,-1.8189,-1.8189,-1.8301,-1.8505,-1.8505,-1.8549,-1.8685,-1.8767,-1.8862,-1.902,-1.9268,-1.9409,-1.942,-1.9715,-2.0103,-2.0441,-2.0626,-2.0809,-2.0982,-2.1095,-2.1183,-2.1238,-2.1238,0.0,0.0,0.0,0.0,0.0,0.0,0.0,0.0,-1.8865,-1.8386,-1.8479,-1.8007,-1.7341,-1.6521,-1.7532,-1.8679,-1.971,-2.0218,-2.0317,-1.997,-2.0661,-2.1329,-2.1844,-2.1997,-2.2249,-2.2794,-2.3346,-2.3667,-2.3748,-2.417,-2.4465,-2.4491,-2.4509,-2.4509,-2.4555,-2.4862,-2.5094,-2.5094,-2.5792,-2.6433,-2.6823,-2.7232,-2.765,-2.8022,-2.7761,-2.7984,-2.9082,-2.8569,-2.78,-2.7622,-2.7495,-2.7329,-2.7102,-2.66,-2.6193,-2.5972,-2.4838,-2.4201,-2.4965,-2.5627,-2.593,-2.5102,-2.4863,-2.4742,-2.4591,-2.4399,-2.397,-2.288,-2.2451,-2.2144,-1.2076,-1.2549,-1.291,-1.3166,-1.3415,-1.3539,-1.375,-1.4002,-1.4096,0.0,0.0,-1.548,-1.5887,-1.6228,-1.654,-1.6944,-1.735,-1.7468,-1.7632,-1.7855,-1.7875,-1.8003,-1.8196,-1.8189,-1.8301,-1.8505,-1.8505,-1.8569,-1.8731,-1.8772,-1.8889,-1.9024,-1.9272,-1.9413,-1.9494,-1.9812,-2.0121,-2.0381,-2.0601,-2.0826,-2.1095,-2.1175,-2.1238,-2.1301,-2.1301,-2.1301,-2.1301,-2.1301,-2.1301,-2.1285,-2.0774,-2.0475,-2.0459,-1.9915,-1.9621,-1.9676,-1.9809,-1.9437,-1.8437,-1.9662,-2.0691,-2.1167,-2.2,-2.216,-2.1358,-2.1433,-2.1846,-2.2634,-2.277,-2.3144,-2.3961,-2.4142,-2.4237,-2.4358,-2.4515,-2.4643,-2.4696,-2.4853,-2.5001,-2.4992,-2.5541,-2.5903,-2.5949,-2.66,-2.7343,-2.7938,-2.8198,-2.8541,-2.9107,-2.8706,-2.8498,-2.9032,-2.8953,-2.889,-2.8794,-2.8643,-2.8549,-2.8214,-2.7594,-2.7072,-2.6759,-2.6168,-2.566,-2.562,-2.6573,-2.6616,-2.5712,-2.5446,-2.5229,-2.5059,-2.4913,-2.4715,-2.4439,-2.4053,-2.3539,-1.2283,-1.27,-1.304,-1.3271,-1.3409,-1.3534,-1.375,-1.4044,-1.4476,-1.4759,-1.4954,-1.548,-1.5887,-1.6216,-1.6553,-1.6888,-1.7226,-1.7427,-1.7598,-1.772,-1.7848,-1.7996,-1.8196,-1.8189,-1.8301,-1.8471,-1.8505,-1.86,-1.8765,-1.8803,-1.8912,-1.909,-1.931,-1.9487,-1.9664,-1.9891,-2.0103,-2.0304,-2.0636,-2.0884,-2.1095,-2.1231,-2.1285,-2.1301,-2.1301,-2.1301,-2.1301,-2.1301,-2.1301,-2.1301,-2.1212,-2.1156,-2.1131,-2.0641,-2.0336,-2.034,-2.0013,-1.9967,-2.0348,-2.0403,-2.0886,-2.1947,-2.2778,-2.2929,-2.2222,-2.2763,-2.3233,-2.3437,-2.3513,-2.3672,-2.3855,-2.4082,-2.4245,-2.4338,-2.4977,-2.5421,-2.5458,-2.6043,-2.6442,-2.6442,-2.6628,-2.6721,-2.6795,-2.7436,-2.7984,-2.8198,-2.869,-2.9218,-2.924,-2.9178,-2.906,-2.9104,-2.9098,-2.9007,-2.8855,-2.8795,-2.8641,-2.8428,-2.8157,-2.7842,-2.7577,-2.7338,-2.7075,-2.7048,-2.7172,-2.7142,-2.6859,-2.6874,-2.6642,-2.6487,-2.6316,-2.616,-2.5863,-2.5557,-2.493,-1.2323,-1.272,-1.3055,-1.329,-1.3415,-1.3692,-1.3934,-1.414,-1.4534,-1.4736,-1.4874,-1.5221,-1.5598,-1.5953,-1.6287,-1.6654,-1.7038,-1.7322,-1.7556,-1.7699,-1.7889,-1.8049,-1.8202,-1.8248,-1.8347,-1.8478,-1.8505,-1.86,-1.8777,-1.8796,-1.8912,-1.9101,-1.9302,-1.9505,-1.9708,-1.9884,-2.0103,-2.0312,-2.0636,-2.0892,-2.1087,-2.1238,-2.1301,-2.1301,-2.1301,-2.1301,-2.1301,-2.1301,-2.1301,-2.1301,-2.1301,-2.1301,-2.1285,-2.1171,-2.1113,-2.1096,-2.1026,-2.1149,-2.1481,-2.1696,-2.2061,-2.2696,-2.3115,-2.3425,-2.3542,-2.352,-2.3528,-2.3585,-2.3663,-2.3889,-2.4337,-2.4539,-2.4836,-2.5353,-2.5853,-2.6137,-2.6185,-2.6483,-2.6801,-2.6877,-2.7238,-2.7518,-2.7548,-2.8291,-2.8791,-2.8807,-2.913,-2.9283,-2.9217,-2.9132,-2.9108,-2.9078,-2.9023,-2.8931,-2.8831,-2.8761,-2.8641,-2.8441,-2.8291,-2.8127,-2.7927,-2.7798,-2.7636,-2.7481,-2.7367,-2.7315,-2.7315,-2.7192,-2.7087,-2.6991,-2.6809,-2.6598,-2.6408,-2.6063,-2.5343,-1.2308,-1.2725,-1.3016,-1.3247,-1.3472,-1.3839,-1.4085,-1.4233,-1.4448,-1.4627,-1.4771,-1.5006,-1.5317,-1.5721,-1.6041,-1.6433,-1.6861,-1.7204,-1.7453,-1.7666,-1.7875,-1.8049,-1.8202,-1.826,-1.8372,-1.8478,-1.8505,-1.86,-1.8784,-1.8796,-1.8931,-1.9157,-1.9313,-1.9512,-1.9715,-1.9902,-2.0096,-2.0304,-2.0636,-2.09,-2.1095,-2.123,-2.1301,-2.1301,-2.1301,-2.1301,-2.1301,-2.1301,-2.1301,-2.1301,-2.1301,-2.1301,-2.1301,-2.1489,-2.1613,-2.1635,-2.1855,-2.207,-2.224,-2.2854,-2.3286,-2.3444,-2.3656,-2.41,-2.4676,-2.4316,-2.3996,-2.4043,-2.4123,-2.4425,-2.4972,-2.5192,-2.5545,-2.6272,-2.6659,-2.6839,-2.6863,-2.7082,-2.7265,-2.739,-2.7901,-2.8312,-2.8464,-2.8949,-2.928,-2.9237,-2.9222,-2.9158,-2.911,-2.9042,-2.904,-2.9051,-2.8996,-2.8893,-2.8819,-2.874,-2.8616,-2.8437,-2.8295,-2.815,-2.8011,-2.7844,-2.7674,-2.7518,-2.7383,-2.7306,-2.725,-2.7176,-2.7087,-2.6983,-2.6784,-2.6589,-2.6381,-2.5972,-2.5473,-1.2224,-1.2705,-1.2871,-1.3186,-1.3615,-1.3892,-1.408,-1.4228,-1.4378,-1.45,-1.465,-1.4954,-1.5323,-1.5709,-1.6041,-1.6374,-1.6733,-1.7065,-1.7323,-1.7523,-1.7781,-1.8016,-1.8202,-1.8267,-1.8385,-1.8478,-1.8505,-1.8593,-1.8777,-1.8796,-1.8993,-1.9347,-1.9409,-1.9497,-1.97,-1.9909,-2.0103,-2.0296,-2.0628,-2.0892,-2.1087,-2.1215,-2.1301,-2.1301,-2.1301,-2.1301,-2.1301,-2.1301,-2.1301,-2.1301,-2.1301,-2.1301,-2.1325,-2.1481,-2.1613,-2.1604,-2.1871,-2.2164,-2.2562,-2.3421,-2.399,-2.4216,-2.4826,-2.5275,-2.5482,-2.5433,-2.541,-2.5427,-2.5529,-2.5533,-2.5709,-2.5883,-2.6092,-2.6398,-2.7054,-2.7513,-2.767,-2.836,-2.8889,-2.8889,-2.8912,-2.9172,-2.9109,-2.9229,-2.9272,-2.9209,-2.9145,-2.9091,-2.9087,-2.9042,-2.8996,-2.9007,-2.8996,-2.8938,-2.8822,-2.874,-2.8625,-2.8441,-2.8291,-2.8145,-2.8019,-2.7844,-2.7665,-2.7526,-2.7359,-2.725,-2.7168,-2.7103,-2.7055,-2.695,-2.6759,-2.6547,-2.6154,-2.5817,-2.5462,-1.1997,-1.2377,-1.2749,-1.3205,-1.3721,-1.3921,-1.4132,-1.4332,-1.4373,-1.4477,-1.4632,-1.4834,-1.508,-1.5362,-1.5732,-1.6085,-1.6411,-1.6833,-1.7191,-1.744,-1.7767,-1.8023,-1.8189,-1.8267,-1.8365,-1.8478,-1.8505,-1.8627,-1.8784,-1.8917,-1.912,-1.9384,-1.9409,-1.9512,-1.97,-1.9902,-2.0103,-2.0312,-2.0636,-2.0884,-2.1087,-2.1231,-2.1301,-2.1301,-2.1301,-2.1301,-2.1301,-2.1301,-2.1301,-2.1301,-2.1301,-2.1301,-2.1301,-2.1426,-2.151,-2.1636,-2.2304,-2.2811,-2.3042,-2.3956,-2.459,-2.4823,-2.5158,-2.5599,-2.6178,-2.6209,-2.6357,-2.6693,-2.6131,-2.5838,-2.6326,-2.6527,-2.6808,-2.7325,-2.7834,-2.8142,-2.824,-2.86,-2.8905,-2.9019,-2.9096,-2.9162,-2.9218,-2.9207,-2.9184,-2.9132,-2.9078,-2.9033,-2.903,-2.9007,-2.8996,-2.8996,-2.8996,-2.8947,-2.884,-2.8785,-2.865,-2.8445,-2.8286,-2.815,-2.8019,-2.7836,-2.7665,-2.7535,-2.7305,-2.7161,-2.7119,-2.7023,-2.6958,-2.6851,-2.67,-2.6452,-2.6018,-2.5762,-2.5462,-1.1773,-1.2121,-1.2671,-1.3253,-1.375,-1.3944,-1.415,-1.4384,-1.4402,-1.4454,-1.4557,-1.4736,-1.4874,-1.5074,-1.5492,-1.5893,-1.621,-1.6654,-1.7036,-1.735,-1.7679,-1.7949,-1.8142,-1.8267,-1.8372,-1.8471,-1.8505,-1.8593,-1.881,-1.8995,-1.9271,-1.9612,-1.9678,-1.986,-2.0239,-2.0446,-2.0645,-2.0875,-2.1175,-2.1439,-2.167,-2.1778,-2.1682,-2.135,-2.1301,-2.1301,-2.1301,-2.1301,-2.1301,-2.1301,-2.1301,-2.1301,-2.1301,-2.1363,-2.1577,-2.1961,-2.2687,-2.3301,-2.3674,-2.4577,-2.5214,-2.5467,-2.5711,-2.6218,-2.6799,-2.692,-2.7119,-2.7496,-2.6767,-2.6502,-2.6981,-2.7201,-2.7553,-2.8115,-2.8336,-2.8432,-2.8509,-2.8591,-2.8715,-2.8867,-2.8947,-2.9017,-2.9089,-2.9087,-2.9051,-2.8998,-2.8973,-2.894,-2.8938,-2.8938,-2.8938,-2.8947,-2.8938,-2.8893,-2.8819,-2.8773,-2.865,-2.8467,-2.8295,-2.8145,-2.8005,-2.7836,-2.7636,-2.7465,-2.7192,-2.7024,-2.7015,-2.695,-2.6859,-2.6776,-2.6597,-2.6346,-2.5972,-2.5744,-2.5462,-1.1548,-1.2015,-1.2691,-1.3249,-1.3644,-1.3892,-1.4145,-1.4378,-1.4402,-1.4402,-1.4448,-1.4684,-1.4799,-1.4863,-1.5425,-1.5871,-1.6206,-1.654,-1.6882,-1.7212,-1.7543,-1.7828,-1.8008,-1.8206,-1.8365,-1.8505,-1.8505,-1.8648,-1.8839,-1.8989,-1.9469,-2.032,-2.0349,-2.0776,-2.1403,-2.1677,-2.1973,-2.2074,-2.2347,-2.2698,-2.3005,-2.3112,-2.2545,-2.1552,-2.135,-2.1414,-2.1382,-2.1334,-2.1342,-2.1325,-2.1358,-2.1325,-2.1301,-2.1379,-2.186,-2.2688,-2.2939,-2.3412,-2.438,-2.5309,-2.5927,-2.6214,-2.679,-2.7406,-2.7496,-2.7487,-2.7531,-2.7675,-2.7564,-2.7566,-2.7698,-2.7754,-2.7915,-2.8127,-2.8131,-2.8214,-2.8376,-2.8449,-2.8527,-2.8628,-2.8798,-2.8893,-2.8919,-2.8908,-2.8881,-2.8846,-2.881,-2.881,-2.8831,-2.881,-2.8822,-2.881,-2.8819,-2.8816,-2.8785,-2.8728,-2.8612,-2.8441,-2.8277,-2.8126,-2.7996,-2.7844,-2.7623,-2.7395,-2.712,-2.6958,-2.6934,-2.6859,-2.6742,-2.6632,-2.6486,-2.6224,-2.5954,-2.5744,-2.5454,-1.217,-1.2933,-1.3216,-1.3541,-1.3926,-1.4,-1.4104,-1.428,-1.4384,-1.4402,-1.4454,-1.4678,-1.4799,-1.4799,-1.525,-1.5598,-1.5909,-1.6324,-1.6705,-1.7023,-1.735,-1.7686,-1.7988,-1.8168,-1.8327,-1.8478,-1.8505,-1.8846,-1.9411,-1.9523,-2.0032,-2.0777,-2.0987,-2.124,-2.157,-2.1857,-2.211,-2.2305,-2.2563,-2.2856,-2.3223,-2.3264,-2.3077,-2.275,-2.271,-2.2693,-2.2693,-2.271,-2.2499,-2.2037,-2.1989,-2.1779,-2.1414,-2.181,-2.2476,-2.3293,-2.3943,-2.4481,-2.4978,-2.5855,-2.6531,-2.6762,-2.7087,-2.7408,-2.7576,-2.7623,-2.7638,-2.7695,-2.7716,-2.7719,-2.7739,-2.7842,-2.7961,-2.8003,-2.8028,-2.8062,-2.8196,-2.8268,-2.8349,-2.8458,-2.865,-2.8755,-2.8764,-2.8776,-2.8764,-2.8749,-2.8737,-2.8749,-2.8785,-2.8807,-2.8764,-2.8731,-2.8728,-2.8703,-2.8625,-2.8637,-2.8574,-2.8428,-2.8255,-2.8067,-2.7902,-2.7736,-2.7511,-2.7277,-2.703,-2.6884,-2.6826,-2.6759,-2.6657,-2.652,-2.6373,-2.617,-2.5936,-2.5706,-2.5416,-1.2523,-1.3299,-1.3513,-1.3861,-1.4287,-1.4192,-1.4257,-1.4415,-1.4421,-1.4402,-1.4448,-1.4673,-1.4799,-1.4874,-1.5137,-1.5419,-1.5665,-1.6116,-1.6506,-1.6861,-1.7231,-1.7563,-1.7902,-1.8116,-1.8282,-1.8447,-1.8708,-1.9229,-1.9957,-2.0102,-2.0617,-2.1434,-2.1615,-2.187,-2.2155,-2.2478,-2.2723,-2.2905,-2.3161,-2.3495,-2.3773,-2.3901,-2.4025,-2.4149,-2.4175,-2.3941,-2.3544,-2.3496,-2.3285,-2.284,-2.2767,-2.2515,-2.2143,-2.2532,-2.3151,-2.391,-2.459,-2.5175,-2.5528,-2.6252,-2.6767,-2.6972,-2.711,-2.7268,-2.7502,-2.7557,-2.7593,-2.7651,-2.7695,-2.7689,-2.7647,-2.7715,-2.7807,-2.7807,-2.7827,-2.7882,-2.7982,-2.8053,-2.8155,-2.834,-2.8484,-2.8565,-2.8582,-2.8582,-2.8591,-2.8603,-2.8591,-2.8603,-2.8675,-2.8675,-2.8671,-2.8646,-2.8603,-2.854,-2.8462,-2.8436,-2.8441,-2.8304,-2.82,-2.8002,-2.7792,-2.7617,-2.7404,-2.7166,-2.6973,-2.6825,-2.6725,-2.6657,-2.6563,-2.6451,-2.6277,-2.6072,-2.5854,-2.5632,-2.532,-1.2534,-1.3117,-1.3512,-1.4131,-1.4689,-1.4592,-1.4667,-1.4833,-1.4604,-1.4544,-1.454,-1.47,-1.4832,-1.4851,-1.5114,-1.5345,-1.5564,-1.5975,-1.6346,-1.6718,-1.7148,-1.7474,-1.7726,-1.8104,-1.8407,-1.8574,-1.9103,-1.9802,-2.05,-2.0656,-2.1161,-2.1895,-2.2197,-2.2582,-2.3442,-2.3595,-2.3888,-2.3986,-2.4214,-2.4614,-2.5064,-2.5072,-2.519,-2.5398,-2.5427,-2.4879,-2.3674,-2.3634,-2.3642,-2.3528,-2.3504,-2.3496,-2.3423,-2.3489,-2.388,-2.4536,-2.4814,-2.5308,-2.6028,-2.6417,-2.664,-2.6825,-2.6997,-2.7175,-2.7364,-2.7465,-2.7542,-2.76,-2.7659,-2.7657,-2.7593,-2.7611,-2.7611,-2.7611,-2.7596,-2.7638,-2.7763,-2.7812,-2.7927,-2.821,-2.8318,-2.8331,-2.8367,-2.8353,-2.834,-2.8367,-2.8344,-2.8367,-2.848,-2.8484,-2.8454,-2.8454,-2.8445,-2.8384,-2.8304,-2.8232,-2.82,-2.8154,-2.809,-2.7945,-2.7719,-2.7526,-2.731,-2.7095,-2.6858,-2.6708,-2.6649,-2.658,-2.6459,-2.6338,-2.6152,-2.5982,-2.5762,-2.5519,-2.522,-1.3248,-1.3694,-1.4002,-1.4419,-1.4914,-1.4955,-1.5093,-1.5271,-1.5316,-1.5168,-1.4954,-1.5065,-1.5001,-1.4873,-1.4977,-1.5153,-1.539,-1.5709,-1.6078,-1.6513,-1.6882,-1.7267,-1.7657,-1.833,-1.9038,-1.9677,-1.9978,-2.0485,-2.1073,-2.1209,-2.1698,-2.2422,-2.2658,-2.2922,-2.3341,-2.3596,-2.3832,-2.4107,-2.44,-2.4678,-2.5009,-2.5209,-2.5336,-2.5451,-2.5543,-2.5346,-2.4976,-2.4944,-2.4693,-2.4217,-2.4175,-2.4193,-2.4184,-2.4193,-2.4541,-2.5218,-2.547,-2.5648,-2.6005,-2.6259,-2.6487,-2.67,-2.6883,-2.7055,-2.7254,-2.7402,-2.7511,-2.7578,-2.7623,-2.7602,-2.7542,-2.7483,-2.7483,-2.7526,-2.7502,-2.7511,-2.7593,-2.7672,-2.7864,-2.8104,-2.815,-2.8164,-2.8182,-2.8131,-2.8109,-2.8173,-2.8122,-2.815,-2.8309,-2.8335,-2.8309,-2.8304,-2.8255,-2.816,-2.8049,-2.7965,-2.7945,-2.7934,-2.7882,-2.7815,-2.76,-2.7432,-2.7223,-2.6982,-2.6767,-2.6623,-2.6563,-2.6477,-2.6373,-2.624,-2.6071,-2.5862,-2.564,-2.5375,-2.5072,-1.3428,-1.3949,-1.4242,-1.4716,-1.5234,-1.5339,-1.5458,-1.5658,-1.5742,-1.5636,-1.5394,-1.532,-1.5222,-1.5063,-1.4965,-1.5062,-1.5312,-1.5537,-1.583,-1.6219,-1.6705,-1.7198,-1.786,-1.8855,-1.975,-2.0524,-2.0701,-2.1091,-2.1736,-2.1832,-2.2121,-2.2588,-2.2814,-2.2994,-2.3238,-2.3465,-2.3745,-2.4073,-2.4374,-2.4641,-2.4914,-2.517,-2.5325,-2.5413,-2.5524,-2.5597,-2.5605,-2.5605,-2.5414,-2.4993,-2.4903,-2.4912,-2.4903,-2.4928,-2.513,-2.5497,-2.5733,-2.5846,-2.5919,-2.6126,-2.6339,-2.653,-2.6708,-2.6908,-2.7111,-2.7293,-2.7417,-2.7496,-2.755,-2.7518,-2.7467,-2.743,-2.7407,-2.7412,-2.7412,-2.7445,-2.7467,-2.7563,-2.7689,-2.7853,-2.7902,-2.7934,-2.7925,-2.7905,-2.7873,-2.7916,-2.7888,-2.794,-2.8096,-2.8156,-2.8096,-2.8026,-2.797,-2.787,-2.7769,-2.7719,-2.7674,-2.7668,-2.7662,-2.7569,-2.7432,-2.7331,-2.7166,-2.6875,-2.6624,-2.6547,-2.6469,-2.6399,-2.6312,-2.6143,-2.5944,-2.5733,-2.55,-2.5209,-2.4922,-1.3194,-1.3825,-1.4291,-1.4923,-1.5559,-1.5627,-1.581,-1.6079,-1.6007,-1.591,-1.5773,-1.5593,-1.5407,-1.5392,-1.5111,-1.5097,-1.5249,-1.5407,-1.5603,-1.5987,-1.6585,-1.7398,-1.8437,-1.9459,-2.0364,-2.1086,-2.1268,-2.1638,-2.2111,-2.2232,-2.2401,-2.2463,-2.2723,-2.2964,-2.3127,-2.3407,-2.3682,-2.3946,-2.4284,-2.4551,-2.4782,-2.5092,-2.5298,-2.5359,-2.5505,-2.5578,-2.5578,-2.5597,-2.5605,-2.5581,-2.55,-2.5503,-2.5557,-2.5605,-2.5567,-2.5597,-2.5653,-2.5701,-2.5775,-2.6008,-2.6214,-2.6329,-2.6564,-2.6775,-2.6974,-2.7159,-2.7301,-2.7399,-2.7476,-2.7483,-2.7423,-2.74,-2.7369,-2.733,-2.7322,-2.7353,-2.74,-2.7467,-2.755,-2.7578,-2.7593,-2.7608,-2.7657,-2.7608,-2.7615,-2.7636,-2.7606,-2.7689,-2.7844,-2.7864,-2.7733,-2.7659,-2.7606,-2.7567,-2.747,-2.747,-2.7432,-2.7388,-2.7373,-2.7333,-2.7253,-2.7174,-2.7046,-2.675,-2.6521,-2.6461,-2.6382,-2.6304,-2.6171,-2.5974,-2.5791,-2.5586,-2.5328,-2.5025,-2.4794,-1.3099,-1.3627,-1.4231,-1.4838,-1.5376,-1.5776,-1.6151,-1.6465,-1.661,-1.6504,-1.634,-1.6239,-1.5854,-1.5387,-1.5359,-1.5236,-1.5108,-1.5249,-1.548,-1.5842,-1.6608,-1.7763,-1.8972,-1.9951,-2.0857,-2.1609,-2.1736,-2.196,-2.2194,-2.2224,-2.2287,-2.2386,-2.2571,-2.2776,-2.2964,-2.3238,-2.348,-2.3717,-2.4029,-2.433,-2.46,-2.4914,-2.5103,-2.5185,-2.5367,-2.5459,-2.547,-2.5543,-2.5597,-2.5605,-2.5605,-2.5605,-2.5605,-2.5605,-2.5605,-2.5608,-2.5669,-2.5692,-2.5738,-2.5901,-2.6072,-2.6231,-2.646,-2.6691,-2.6901,-2.7095,-2.7263,-2.7367,-2.7423,-2.7423,-2.7392,-2.7345,-2.7306,-2.7315,-2.7283,-2.7322,-2.7376,-2.7399,-2.7445,-2.7443,-2.745,-2.741,-2.7347,-2.73,-2.7284,-2.7322,-2.7331,-2.734,-2.7539,-2.7608,-2.7487,-2.7263,-2.7159,-2.7198,-2.7205,-2.7221,-2.7182,-2.7112,-2.7088,-2.7096,-2.7022,-2.6956,-2.6808,-2.6606,-2.6452,-2.6355,-2.6277,-2.6197,-2.6002,-2.5811,-2.5616,-2.5397,-2.5127,-2.4859,-2.4686,-1.2858,-1.3338,-1.4031,-1.4602,-1.5176,-1.5763,-1.621,-1.6558,-1.6837,-1.6893,-1.671,-1.6558,-1.6162,-1.5637,-1.5467,-1.5231,-1.4954,-1.5108,-1.5368,-1.5812,-1.6883,-1.8187,-1.9423,-2.0388,-2.1145,-2.168,-2.1878,-2.199,-2.2084,-2.21,-2.2194,-2.2301,-2.2447,-2.2623,-2.2829,-2.3038,-2.3304,-2.3581,-2.3852,-2.4114,-2.44,-2.4686,-2.4906,-2.5048,-2.5204,-2.5301,-2.5397,-2.5524,-2.5605,-2.5605,-2.5605,-2.5605,-2.5605,-2.5605,-2.5605,-2.5605,-2.5629,-2.5642,-2.5688,-2.5791,-2.5937,-2.6107,-2.6329,-2.6581,-2.6784,-2.6982,-2.7128,-2.7256,-2.7249,-2.7257,-2.7256,-2.7201,-2.7178,-2.717,-2.717,-2.7218,-2.732,-2.7296,-2.7279,-2.727,-2.7247,-2.7224,-2.7103,-2.707,-2.7079,-2.7111,-2.7095,-2.7143,-2.7247,-2.7263,-2.7215,-2.699,-2.6884,-2.6949,-2.7014,-2.703,-2.6923,-2.6859,-2.6775,-2.6792,-2.6759,-2.67,-2.6607,-2.6477,-2.6355,-2.6232,-2.6152,-2.6028,-2.5846,-2.5653,-2.5427,-2.5196,-2.495,-2.4759,-2.4584,-1.2578,-1.308,-1.3739,-1.4369,-1.4995,-1.5594,-1.6033,-1.6363,-1.6751,-1.6949,-1.6892,-1.6667,-1.6338,-1.5977,-1.5604,-1.5214,-1.488,-1.5017,-1.5405,-1.6071,-1.7184,-1.8471,-1.9684,-2.0558,-2.1086,-2.1399,-2.164,-2.1807,-2.1926,-2.1966,-2.206,-2.2208,-2.2324,-2.2502,-2.267,-2.2837,-2.3135,-2.345,-2.3688,-2.3917,-2.4198,-2.4454,-2.4698,-2.4918,-2.506,-2.5224,-2.5386,-2.5505,-2.5578,-2.5605,-2.5605,-2.5605,-2.5605,-2.5605,-2.5605,-2.5605,-2.5616,-2.5608,-2.5619,-2.5672,-2.5793,-2.6,-2.6188,-2.6408,-2.6624,-2.6792,-2.6933,-2.7096,-2.7023,-2.7048,-2.7047,-2.7015,-2.6966,-2.6966,-2.6966,-2.7056,-2.7161,-2.7136,-2.7078,-2.7062,-2.699,-2.6967,-2.6975,-2.6967,-2.6958,-2.6924,-2.6924,-2.6949,-2.6998,-2.6989,-2.6908,-2.675,-2.6716,-2.6759,-2.6817,-2.685,-2.6708,-2.659,-2.6477,-2.6451,-2.6486,-2.6434,-2.6408,-2.6311,-2.6231,-2.6115,-2.5982,-2.5828,-2.568,-2.5484,-2.5262,-2.5029,-2.4806,-2.4673,-2.4518,-1.2578,-1.3042,-1.3709,-1.424,-1.4681,-1.524,-1.5705,-1.6023,-1.6392,-1.6722,-1.6933,-1.6909,-1.6466,-1.5846,-1.5777,-1.5435,-1.4786,-1.4942,-1.5551,-1.6769,-1.7201,-1.8345,-1.9516,-2.0377,-2.0815,-2.1082,-2.135,-2.1568,-2.1688,-2.1878,-2.202,-2.2067,-2.2263,-2.241,-2.2502,-2.2731,-2.2934,-2.3113,-2.3428,-2.371,-2.3931,-2.4198,-2.4467,-2.471,-2.4954,-2.5188,-2.5351,-2.5416,-2.5489,-2.5562,-2.5597,-2.5597,-2.5597,-2.5605,-2.5605,-2.5605,-2.5605,-2.5605,-2.5608,-2.5669,-2.5764,-2.5891,-2.6089,-2.6285,-2.6435,-2.6572,-2.6742,-2.6901,-2.6917,-2.6901,-2.69,-2.6833,-2.6758,-2.6742,-2.6742,-2.6767,-2.6825,-2.69,-2.6892,-2.6808,-2.6733,-2.6683,-2.6691,-2.6708,-2.6708,-2.6733,-2.675,-2.6758,-2.6775,-2.6792,-2.67,-2.6606,-2.6461,-2.6503,-2.6572,-2.6572,-2.64,-2.6279,-2.6197,-2.6134,-2.6144,-2.6205,-2.6178,-2.6159,-2.613,-2.5987,-2.5826,-2.5659,-2.5497,-2.5298,-2.5107,-2.4886,-2.4681,-2.4567,-2.4416,-1.2301,-1.274,-1.3311,-1.3825,-1.433,-1.4951,-1.5386,-1.5705,-1.6192,-1.6511,-1.6728,-1.6904,-1.651,-1.5756,-1.5807,-1.5419,-1.4871,-1.5076,-1.5818,-1.6808,-1.7373,-1.8235,-1.914,-1.9805,-2.0271,-2.0754,-2.1019,-2.124,-2.1513,-2.1712,-2.1878,-2.202,-2.2194,-2.2347,-2.2401,-2.2586,-2.2731,-2.2912,-2.3142,-2.3399,-2.3696,-2.3867,-2.4198,-2.4536,-2.4878,-2.5135,-2.5235,-2.532,-2.5405,-2.5478,-2.5505,-2.5551,-2.5589,-2.5605,-2.5605,-2.5605,-2.5605,-2.5605,-2.5608,-2.5629,-2.5696,-2.5791,-2.5954,-2.6081,-2.6207,-2.6321,-2.646,-2.6581,-2.6615,-2.6615,-2.6623,-2.6555,-2.6504,-2.6461,-2.6461,-2.6453,-2.6504,-2.6632,-2.675,-2.6666,-2.6606,-2.658,-2.6571,-2.652,-2.6555,-2.6606,-2.6606,-2.6632,-2.6725,-2.6725,-2.6657,-2.6529,-2.6294,-2.6241,-2.6321,-2.6268,-2.6082,-2.5966,-2.5883,-2.583,-2.5823,-2.5893,-2.598,-2.5952,-2.5924,-2.583,-2.5675,-2.5494,-2.5322,-2.5131,-2.4934,-2.4722,-2.4567,-2.4416,-2.4271,-1.1992,-1.2332,-1.2801,-1.3372,-1.3975,-1.4636,-1.5079,-1.542,-1.5985,-1.6254,-1.6431,-1.674,-1.6389,-1.5827,-1.5699,-1.5274,-1.4889,-1.5199,-1.5875,-1.6598,-1.7361,-1.8085,-1.882,-1.9271,-1.9759,-2.0409,-2.066,-2.0932,-2.1233,-2.1482,-2.1736,-2.1949,-2.2107,-2.2224,-2.2324,-2.2401,-2.2548,-2.2761,-2.2905,-2.3098,-2.345,-2.3581,-2.3938,-2.4421,-2.4706,-2.4966,-2.5088,-2.5174,-2.5286,-2.5386,-2.5386,-2.5459,-2.5532,-2.5578,-2.557,-2.557,-2.5551,-2.5551,-2.5551,-2.5589,-2.5629,-2.5701,-2.5781,-2.5881,-2.5964,-2.6028,-2.6118,-2.6197,-2.6233,-2.6242,-2.6216,-2.6199,-2.6163,-2.6118,-2.6108,-2.6108,-2.6144,-2.632,-2.639,-2.6477,-2.6381,-2.6311,-2.6354,-2.6364,-2.6416,-2.6459,-2.6459,-2.6511,-2.6623,-2.6624,-2.6529,-2.632,-2.6071,-2.5873,-2.5937,-2.5909,-2.5725,-2.5624,-2.5549,-2.5516,-2.5484,-2.5505,-2.5575,-2.5698,-2.5688,-2.5573,-2.5429,-2.5236,-2.5053,-2.4914,-2.4734,-2.4511,-2.4367,-2.425,-2.4095,-1.1992,-1.2332,-1.2801,-1.3224,-1.3662,-1.4295,-1.4779,-1.5083,-1.5454,-1.5797,-1.6148,-1.6371,-1.6264,-1.5848,-1.5552,-1.5092,-1.4759,-1.5142,-1.5684,-1.6393,-1.7151,-1.7888,-1.8418,-1.8827,-1.9323,-1.9759,-2.0182,-2.0578,-2.0932,-2.1257,-2.1568,-2.1807,-2.199,-2.2107,-2.224,-2.234,-2.241,-2.2571,-2.2731,-2.2934,-2.3106,-2.3443,-2.3803,-2.4276,-2.4482,-2.4726,-2.4946,-2.5025,-2.5123,-2.527,-2.5314,-2.5325,-2.5352,-2.5402,-2.5405,-2.5443,-2.544,-2.5459,-2.5467,-2.5524,-2.5619,-2.5688,-2.5659,-2.5685,-2.5717,-2.5727,-2.5738,-2.5801,-2.5883,-2.5909,-2.5811,-2.5793,-2.5756,-2.5727,-2.5698,-2.5706,-2.5725,-2.5781,-2.5883,-2.6008,-2.6008,-2.6035,-2.6089,-2.6117,-2.6152,-2.6197,-2.6215,-2.6329,-2.6494,-2.6443,-2.6338,-2.6097,-2.5805,-2.564,-2.553,-2.5462,-2.5363,-2.5243,-2.5177,-2.5126,-2.5098,-2.5091,-2.5158,-2.5109,-2.5238,-2.5278,-2.5111,-2.4926,-2.4746,-2.4584,-2.4413,-2.4274,-2.4143,-2.3996,-2.379,-1.1899,-1.2212,-1.2521,-1.2942,-1.3454,-1.3911,-1.4359,-1.4745,-1.5074,-1.5337,-1.5662,-1.596,-1.5907,-1.5607,-1.5554,-1.5221,-1.5008,-1.5452,-1.5942,-1.6489,-1.7101,-1.7702,-1.8143,-1.8458,-1.8827,-1.9245,-1.9682,-2.0182,-2.0653,-2.1019,-2.1375,-2.1674,-2.1895,-2.206,-2.217,-2.224,-2.2317,-2.2424,-2.2571,-2.2731,-2.2927,-2.3355,-2.376,-2.3988,-2.4234,-2.4441,-2.4681,-2.4762,-2.4842,-2.4982,-2.5041,-2.5072,-2.5111,-2.5131,-2.5154,-2.5298,-2.5336,-2.5336,-2.5355,-2.5402,-2.5451,-2.5481,-2.5451,-2.5413,-2.5397,-2.5362,-2.5343,-2.5381,-2.5427,-2.5473,-2.54,-2.5381,-2.5343,-2.5301,-2.5282,-2.5282,-2.529,-2.5298,-2.5394,-2.5538,-2.5632,-2.5706,-2.5781,-2.5828,-2.5875,-2.5921,-2.5975,-2.6126,-2.6328,-2.6292,-2.6187,-2.5733,-2.5459,-2.5355,-2.5204,-2.5076,-2.5005,-2.4898,-2.4811,-2.4779,-2.4771,-2.4783,-2.4512,-2.4303,-2.4484,-2.4544,-2.4779,-2.4575,-2.4403,-2.4186,-2.4042,-2.3892,-2.3872,-2.3746,-2.3442,-1.1813,-1.2127,-1.2243,-1.2636,-1.3212,-1.3584,-1.3967,-1.4355,-1.4695,-1.4916,-1.5113,-1.5463,-1.5503,-1.5309,-1.5335,-1.5293,-1.5164,-1.5807,-1.6192,-1.6547,-1.7104,-1.7667,-1.7887,-1.8139,-1.8398,-1.8827,-1.9231,-1.974,-2.0422,-2.0804,-2.1142,-2.1513,-2.1807,-2.202,-2.2114,-2.2177,-2.2254,-2.2324,-2.2401,-2.2563,-2.2912,-2.326,-2.3559,-2.3725,-2.3917,-2.4128,-2.4367,-2.4421,-2.4531,-2.4653,-2.4722,-2.4734,-2.4826,-2.4746,-2.4814,-2.5053,-2.5151,-2.519,-2.519,-2.522,-2.5248,-2.5267,-2.5225,-2.5151,-2.5076,-2.5029,-2.497,-2.4942,-2.4997,-2.497,-2.4942,-2.497,-2.4902,-2.4823,-2.4831,-2.4831,-2.4811,-2.4839,-2.4878,-2.5029,-2.5224,-2.5339,-2.537,-2.5454,-2.5484,-2.5559,-2.5607,-2.5873,-2.6051,-2.6132,-2.5952,-2.5405,-2.5096,-2.5056,-2.491,-2.4718,-2.4638,-2.452,-2.4467,-2.4439,-2.4472,-2.4508,-2.4124,-2.365,-2.3208,-2.3292,-2.3752,-2.3943,-2.3445,-2.3211,-2.3409,-2.3313,-2.2869,-2.2807,-2.2732,-1.1813,-1.212,-1.2243,-1.2521,-1.2924,-1.3338,-1.3666,-1.3911,-1.4185,-1.4394,-1.4567,-1.4927,-1.5074,-1.5066,-1.5069,-1.5031,-1.519,-1.5591,-1.6059,-1.6444,-1.701,-1.7401,-1.7617,-1.7975,-1.816,-1.8479,-1.8854,-1.9493,-2.0099,-2.0466,-2.0921,-2.1319,-2.1561,-2.1752,-2.199,-2.2114,-2.2208,-2.2247,-2.2347,-2.2548,-2.2829,-2.2979,-2.3194,-2.3436,-2.3602,-2.3782,-2.4017,-2.4094,-2.4198,-2.4317,-2.4351,-2.4372,-2.4392,-2.4372,-2.4364,-2.4495,-2.4666,-2.487,-2.4862,-2.4934,-2.4985,-2.4966,-2.4926,-2.4846,-2.4766,-2.4617,-2.4508,-2.4398,-2.4482,-2.4503,-2.4439,-2.4495,-2.4405,-2.4356,-2.4315,-2.4287,-2.4266,-2.4307,-2.4377,-2.4487,-2.4655,-2.4823,-2.4902,-2.5009,-2.5096,-2.5174,-2.529,-2.5546,-2.5677,-2.5659,-2.5546,-2.4978,-2.4723,-2.4683,-2.4602,-2.4426,-2.4274,-2.4162,-2.4113,-2.4063,-2.3967,-2.3881,-2.3559,-2.3077,-2.2434,-2.1852,-2.2041,-2.2115,-2.2049,-2.2167,-2.2342,-2.2012,-2.1495,-2.1617,-2.1881,-1.1622,-1.193,-1.212,-1.2406,-1.2683,-1.2981,-1.3246,-1.3511,-1.3636,-1.3786,-1.3967,-1.4275,-1.4572,-1.4791,-1.4917,-1.5092,-1.5297,-1.5665,-1.6058,-1.6377,-1.688,-1.7234,-1.7401,-1.7645,-1.7887,-1.8187,-1.85,-1.8916,-1.954,-2.0074,-2.0529,-2.1019,-2.1264,-2.1489,-2.1769,-2.1996,-2.2067,-2.2137,-2.2285,-2.247,-2.2616,-2.2739,-2.2912,-2.3142,-2.3253,-2.3458,-2.3639,-2.374,-2.3811,-2.3896,-2.3902,-2.3881,-2.3902,-2.3909,-2.3917,-2.3902,-2.4008,-2.4232,-2.4475,-2.4577,-2.4589,-2.4602,-2.4589,-2.4577,-2.4421,-2.4206,-2.4044,-2.3909,-2.3959,-2.3959,-2.3909,-2.3959,-2.3909,-2.3867,-2.3795,-2.3795,-2.3767,-2.3774,-2.3838,-2.3952,-2.4065,-2.4224,-2.439,-2.45,-2.4589,-2.4718,-2.4831,-2.5037,-2.5037,-2.4918,-2.4738,-2.4462,-2.4323,-2.43,-2.4224,-2.4099,-2.3952,-2.3852,-2.3772,-2.3667,-2.3375,-2.3158,-2.2836,-2.1866,-2.0698,-2.0342,-2.038,-2.0865,-2.1357,-2.1333,-2.1243,-2.0925,-2.0623,-2.0627,-2.0709,-1.1338,-1.1681,-1.1934,-1.2185,-1.2498,-1.2621,-1.2824,-1.3029,-1.309,-1.3147,-1.3303,-1.361,-1.4031,-1.4444,-1.4677,-1.4861,-1.5303,-1.571,-1.6038,-1.6353,-1.6666,-1.6971,-1.7195,-1.739,-1.7617,-1.7947,-1.8187,-1.8548,-1.8975,-1.9506,-2.0022,-2.0641,-2.097,-2.1215,-2.1513,-2.1759,-2.1902,-2.1973,-2.2137,-2.2254,-2.237,-2.2502,-2.2655,-2.2806,-2.2934,-2.3113,-2.3268,-2.3334,-2.3392,-2.3399,-2.3414,-2.3421,-2.3421,-2.3421,-2.3428,-2.3362,-2.3279,-2.34,-2.3805,-2.4051,-2.4107,-2.4141,-2.4133,-2.4078,-2.3925,-2.3746,-2.3559,-2.3443,-2.3377,-2.3399,-2.3377,-2.3355,-2.326,-2.3238,-2.3216,-2.326,-2.3282,-2.326,-2.3312,-2.3443,-2.3559,-2.366,-2.3803,-2.3938,-2.4073,-2.4234,-2.44,-2.4556,-2.4454,-2.4289,-2.4122,-2.394,-2.3953,-2.3931,-2.3888,-2.3782,-2.3624,-2.3432,-2.3344,-2.313,-2.2766,-2.2431,-2.2109,-2.0857,-1.9363,-1.9091,-1.926,-2.0041,-2.0691,-2.0259,-1.9934,-2.0018,-1.9898,-1.9817,-1.9608,-1.0902,-1.1365,-1.1677,-1.193,-1.2158,-1.2274,-1.2363,-1.2459,-1.2544,-1.2609,-1.2697,-1.2946,-1.3463,-1.3915,-1.4095,-1.4403,-1.5005,-1.5181,-1.5589,-1.5975,-1.6358,-1.666,-1.6915,-1.7172,-1.7379,-1.7584,-1.786,-1.8127,-1.8446,-1.8875,-1.9526,-2.0169,-2.0541,-2.0921,-2.1222,-2.1465,-2.1688,-2.1759,-2.1878,-2.1983,-2.2107,-2.2254,-2.237,-2.2571,-2.267,-2.2754,-2.2769,-2.2889,-2.2986,-2.3001,-2.2979,-2.2979,-2.2986,-2.2957,-2.2949,-2.2716,-2.2352,-2.2469,-2.2841,-2.3271,-2.3594,-2.3609,-2.3551,-2.3457,-2.3253,-2.3209,-2.3068,-2.2927,-2.2815,-2.2769,-2.2724,-2.2686,-2.2588,-2.2595,-2.2595,-2.2581,-2.2626,-2.2679,-2.2754,-2.2912,-2.3053,-2.315,-2.3268,-2.34,-2.3631,-2.3789,-2.3882,-2.4023,-2.3925,-2.3754,-2.3632,-2.3502,-2.3567,-2.356,-2.356,-2.3384,-2.3097,-2.2795,-2.2605,-2.2371,-2.2036,-2.1725,-2.1467,-2.0098,-1.8771,-1.8432,-1.8222,-1.8898,-1.9207,-1.8829,-1.8655,-1.8835,-1.8735,-1.8509,-1.839,-1.0589,-1.0874,-1.1083,-1.1463,-1.1937,-1.2089,-1.2185,-1.2185,-1.2243,-1.2301,-1.2398,-1.2556,-1.2858,-1.3281,-1.3402,-1.3739,-1.4364,-1.4681,-1.5084,-1.5555,-1.5994,-1.6348,-1.6632,-1.6864,-1.7122,-1.7345,-1.7573,-1.781,-1.81,-1.8419,-1.8807,-1.9376,-1.9952,-2.039,-2.0716,-2.1118,-2.1368,-2.1537,-2.1609,-2.1746,-2.1793,-2.1919,-2.2084,-2.2347,-2.2363,-2.2495,-2.2639,-2.2678,-2.2708,-2.2692,-2.2609,-2.2586,-2.2563,-2.2518,-2.2309,-2.1995,-2.152,-2.1408,-2.1491,-2.2026,-2.2549,-2.298,-2.2912,-2.2681,-2.2395,-2.2427,-2.2395,-2.2303,-2.218,-2.2102,-2.2109,-2.2023,-2.1952,-2.1966,-2.1935,-2.1898,-2.1938,-2.2016,-2.2163,-2.2319,-2.2495,-2.2623,-2.2737,-2.2873,-2.3127,-2.3341,-2.3436,-2.3465,-2.3385,-2.3349,-2.3238,-2.3194,-2.3231,-2.3179,-2.3165,-2.2878,-2.2527,-2.2178,-2.1858,-2.1418,-2.1074,-2.1152,-2.0673,-1.9326,-1.8282,-1.7909,-1.7727,-1.7841,-1.7955,-1.8056,-1.7922,-1.778,-1.7552,-1.7315,-1.7216,-1.0203,-1.0431,-1.0649,-1.1052,-1.1588,-1.1778,-1.1872,-1.1868,-1.193,-1.2031,-1.2151,-1.2182,-1.2371,-1.2705,-1.2893,-1.3168,-1.3709,-1.4121,-1.4558,-1.5055,-1.5522,-1.5941,-1.6272,-1.6534,-1.6818,-1.7082,-1.7278,-1.749,-1.77,-1.8007,-1.8344,-1.8753,-1.9225,-1.9727,-2.0353,-2.0754,-2.1068,-2.1166,-2.1275,-2.1385,-2.141,-2.1609,-2.1776,-2.1996,-2.206,-2.2147,-2.227,-2.2317,-2.2324,-2.2301,-2.2254,-2.2194,-2.213,-2.1983,-2.1671,-2.119,-2.0713,-2.0312,-2.0138,-2.0617,-2.1371,-2.176,-2.1875,-2.1539,-2.1328,-2.1455,-2.163,-2.1541,-2.1451,-2.1372,-2.1358,-2.1233,-2.1135,-2.1111,-2.1086,-2.1055,-2.1226,-2.1348,-2.1554,-2.1729,-2.1919,-2.2093,-2.2142,-2.2267,-2.2509,-2.2831,-2.312,-2.312,-2.3031,-2.2971,-2.2955,-2.2926,-2.2956,-2.2855,-2.2731,-2.225,-2.1758,-2.1262,-2.0869,-2.028,-2.0026,-2.0125,-1.981,-1.8563,-1.7733,-1.7337,-1.7255,-1.7358,-1.7488,-1.7638,-1.7447,-1.7234,-1.6897,-1.6672,-1.633,-0.9719,-1.0047,-1.0431,-1.0776,-1.109,-1.1275,-1.1341,-1.1404,-1.1556,-1.1681,-1.1809,-1.1837,-1.2027,-1.2309,-1.2494,-1.2775,-1.3141,-1.3584,-1.4056,-1.4529,-1.4962,-1.5434,-1.5826,-1.6158,-1.6415,-1.666,-1.6925,-1.7161,-1.7295,-1.7689,-1.7969,-1.822,-1.8634,-1.9212,-1.9952,-2.0403,-2.0623,-2.0641,-2.0746,-2.0889,-2.1051,-2.1271,-2.1458,-2.1664,-2.1759,-2.1841,-2.1966,-2.1949,-2.1949,-2.1926,-2.1855,-2.1752,-2.1664,-2.1609,-2.1213,-2.0519,-1.9788,-1.9206,-1.8804,-1.9624,-2.0017,-2.0379,-2.0538,-2.0307,-1.9952,-2.0221,-2.0638,-2.0391,-2.0445,-2.0387,-2.0345,-2.0321,-2.0283,-2.0264,-2.0232,-2.0147,-2.029,-2.0284,-2.04,-2.0521,-2.1104,-2.1554,-2.1575,-2.1659,-2.1895,-2.2246,-2.2709,-2.2767,-2.2603,-2.2473,-2.2397,-2.2291,-2.2263,-2.2006,-2.1769,-2.145,-2.0993,-2.0471,-1.9887,-1.928,-1.8961,-1.9001,-1.8474,-1.7625,-1.7213,-1.6884,-1.6848,-1.6876,-1.6905,-1.692,-1.6975,-1.6791,-1.6411,-1.6078,-1.578,-0.9364,-0.9684,-1.0044,-1.0336,-1.0618,-1.0996,-1.1181,-1.1188,-1.1338,-1.1432,-1.1494,-1.1591,-1.1778,-1.1965,-1.2058,-1.2309,-1.2744,-1.2958,-1.3402,-1.4031,-1.4405,-1.4834,-1.525,-1.5594,-1.5889,-1.6176,-1.6501,-1.6756,-1.683,-1.7279,-1.7534,-1.7783,-1.829,-1.894,-1.9519,-1.992,-2.0086,-2.0201,-2.0346,-2.0504,-2.0729,-2.0908,-2.1129,-2.1423,-2.1496,-2.1592,-2.1705,-2.1657,-2.1609,-2.1585,-2.1513,-2.135,-2.1204,-2.1149,-2.0709,-1.996,-1.9222,-1.8251,-1.7523,-1.7525,-1.8106,-1.8715,-1.917,-1.9073,-1.8902,-1.8943,-1.9079,-1.9112,-1.9189,-1.9121,-1.907,-1.9327,-1.9368,-1.9402,-1.9335,-1.9082,-1.9052,-1.8915,-1.8934,-1.907,-1.9469,-1.9893,-2.0067,-2.0325,-2.0609,-2.0983,-2.1358,-2.1898,-2.1906,-2.1759,-2.1648,-2.1432,-2.1293,-2.1027,-2.0723,-2.0311,-1.9877,-1.9346,-1.8789,-1.8221,-1.8011,-1.8018,-1.7712,-1.7178,-1.6799,-1.647,-1.6442,-1.6371,-1.6175,-1.6154,-1.6219,-1.6219,-1.5891,-1.5625,-1.5401,-0.8947,-0.9274,-0.9658,-0.9948,-1.0209,-1.0747,-1.1031,-1.109,-1.1185,-1.1247,-1.1279,-1.1376,-1.1498,-1.1622,-1.1747,-1.1903,-1.234,-1.2648,-1.2862,-1.3493,-1.3803,-1.4236,-1.4631,-1.4947,-1.5269,-1.5594,-1.5951,-1.621,-1.6457,-1.6869,-1.7183,-1.7534,-1.8034,-1.8479,-1.896,-1.9291,-1.9682,-1.9791,-1.992,-2.0086,-2.0315,-2.0535,-2.0809,-2.1044,-2.1229,-2.1333,-2.1416,-2.141,-2.1313,-2.1264,-2.1118,-2.0903,-2.0761,-2.0564,-2.0174,-1.9455,-1.8412,-1.7466,-1.673,-1.6155,-1.6767,-1.7225,-1.7689,-1.7863,-1.7841,-1.7898,-1.7811,-1.7794,-1.7817,-1.774,-1.7781,-1.808,-1.8141,-1.8148,-1.8031,-1.7753,-1.779,-1.7666,-1.7743,-1.7843,-1.8025,-1.8342,-1.861,-1.8867,-1.9176,-1.9578,-1.9988,-2.0471,-2.0919,-2.0711,-2.0563,-2.0469,-2.022,-1.9916,-1.9508,-1.9074,-1.8658,-1.8212,-1.7766,-1.7323,-1.7282,-1.7307,-1.7023,-1.6729,-1.63,-1.5994,-1.5994,-1.5885,-1.5663,-1.5513,-1.5463,-1.5418,-1.5305,-1.5176,-1.5017,-0.8433,-0.8829,-0.9297,-0.9623,-0.9859,-1.0456,-1.0867,-1.1066,-1.1097,-1.1094,-1.1094,-1.1125,-1.122,-1.1334,-1.1494,-1.165,-1.1868,-1.2305,-1.2582,-1.2889,-1.3268,-1.3644,-1.3975,-1.4295,-1.4617,-1.4986,-1.5342,-1.571,-1.608,-1.6524,-1.6902,-1.7262,-1.7695,-1.8024,-1.8371,-1.8741,-1.9133,-1.9356,-1.9512,-1.9682,-1.9888,-2.0188,-2.0441,-2.0673,-2.0828,-2.0952,-2.0995,-2.0914,-2.0827,-2.0752,-2.066,-2.0441,-2.0271,-2.0175,-1.9598,-1.8753,-1.7578,-1.6928,-1.6329,-1.5829,-1.5499,-1.586,-1.6251,-1.6459,-1.6608,-1.6676,-1.6586,-1.6515,-1.6514,-1.639,-1.6345,-1.6435,-1.6494,-1.6458,-1.6427,-1.6414,-1.6535,-1.6587,-1.6689,-1.6829,-1.7009,-1.7246,-1.7403,-1.7635,-1.7691,-1.78,-1.8099,-1.8338,-1.8738,-1.9064,-1.9022,-1.9291,-1.9045,-1.8741,-1.8321,-1.79,-1.7622,-1.7265,-1.7006,-1.6661,-1.6637,-1.6601,-1.6429,-1.6141,-1.5746,-1.5524,-1.5479,-1.5334,-1.5136,-1.5006,-1.4834,-1.4857,-1.4829,-1.4789,-1.4656,-0.8244,-0.8638,-0.9148,-0.9399,-0.9501,-0.9923,-1.0339,-1.0713,-1.0842,-1.0898,-1.0902,-1.1028,-1.1062,-1.1185,-1.1212,-1.1397,-1.1619,-1.1844,-1.212,-1.2425,-1.2732,-1.3011,-1.3311,-1.3631,-1.3967,-1.433,-1.4715,-1.5152,-1.556,-1.6061,-1.6666,-1.7083,-1.7345,-1.7568,-1.7832,-1.8121,-1.8533,-1.8887,-1.9072,-1.9283,-1.9506,-1.9805,-2.0061,-2.0277,-2.0479,-2.0573,-2.0616,-2.0466,-2.0384,-2.034,-2.0156,-1.9933,-1.9823,-1.9656,-1.9207,-1.8318,-1.7457,-1.6764,-1.6079,-1.5349,-1.4886,-1.4777,-1.4998,-1.5108,-1.5251,-1.537,-1.5317,-1.5283,-1.5244,-1.5148,-1.5146,-1.5207,-1.5257,-1.5237,-1.5141,-1.5087,-1.5181,-1.514,-1.5244,-1.5368,-1.5555,-1.581,-1.6016,-1.6161,-1.6192,-1.6144,-1.6229,-1.6509,-1.6856,-1.7274,-1.7596,-1.7891,-1.7865,-1.7581,-1.7178,-1.6748,-1.6576,-1.634,-1.6148,-1.5986,-1.5954,-1.5901,-1.5818,-1.5574,-1.5164,-1.4989,-1.4949,-1.4771,-1.4564,-1.4384,-1.4244,-1.4309,-1.435,-1.4303,-1.4233,-0.7922,-0.8347,-0.8692,-0.8979,-0.9212,-0.951,-0.9824,-1.0171,-1.0393,-1.0491,-1.0491,-1.0589,-1.0747,-1.0905,-1.0933,-1.1055,-1.1369,-1.1498,-1.1716,-1.1968,-1.2216,-1.2459,-1.2728,-1.3003,-1.3307,-1.3675,-1.4095,-1.4563,-1.5064,-1.5734,-1.6371,-1.6627,-1.6931,-1.7239,-1.7512,-1.7728,-1.7975,-1.8329,-1.8593,-1.8866,-1.9119,-1.939,-1.9656,-1.9869,-2.0048,-2.0188,-2.0239,-2.0035,-1.9965,-1.9894,-1.9656,-1.948,-1.9309,-1.9087,-1.8845,-1.8005,-1.7177,-1.6573,-1.5934,-1.4953,-1.4522,-1.4244,-1.4041,-1.397,-1.4069,-1.4184,-1.4124,-1.4071,-1.4045,-1.4005,-1.4039,-1.4092,-1.4104,-1.4129,-1.3967,-1.3779,-1.3705,-1.3631,-1.3685,-1.3757,-1.396,-1.423,-1.4436,-1.4623,-1.4823,-1.4936,-1.5074,-1.528,-1.5686,-1.6145,-1.6391,-1.6626,-1.6585,-1.641,-1.6044,-1.5828,-1.5708,-1.5608,-1.5445,-1.5321,-1.5271,-1.5232,-1.5187,-1.4943,-1.4581,-1.4443,-1.4344,-1.4186,-1.3975,-1.3797,-1.3631,-1.3621,-1.3687,-1.3781,-1.3687,-0.7463,-0.7984,-0.8104,-0.8498,-0.8917,-0.9142,-0.9332,-0.9489,-0.9786,-0.9951,-0.9986,-1.0018,-1.0269,-1.0523,-1.0555,-1.0747,-1.0996,-1.115,-1.131,-1.1564,-1.1809,-1.2023,-1.2243,-1.2463,-1.2797,-1.3103,-1.3498,-1.4031,-1.4647,-1.5347,-1.5907,-1.6114,-1.6552,-1.6931,-1.7217,-1.7362,-1.759,-1.7794,-1.8117,-1.8383,-1.8608,-1.8895,-1.9212,-1.9356,-1.9558,-1.9734,-1.9708,-1.961,-1.9486,-1.9356,-1.9204,-1.9025,-1.8727,-1.8491,-1.8246,-1.7697,-1.6827,-1.6255,-1.5576,-1.4629,-1.4016,-1.3716,-1.3478,-1.3194,-1.3165,-1.3362,-1.3367,-1.3223,-1.3204,-1.3111,-1.312,-1.3125,-1.3154,-1.3078,-1.2932,-1.2791,-1.2733,-1.2686,-1.2774,-1.2856,-1.3001,-1.3232,-1.3328,-1.3555,-1.3734,-1.3857,-1.3982,-1.4145,-1.4478,-1.4983,-1.5279,-1.5472,-1.5536,-1.5508,-1.5347,-1.5142,-1.4977,-1.4863,-1.4738,-1.4651,-1.4617,-1.4599,-1.4605,-1.4228,-1.3852,-1.3805,-1.3705,-1.3544,-1.3401,-1.318,-1.3035,-1.2944,-1.2992,-1.3089,-1.3166,-0.7204,-0.7657,-0.7919,-0.8174,-0.8401,-0.8606,-0.88,-0.8961,-0.9145,-0.944,-0.9798,-0.9926,-1.0018,-1.0139,-1.0171,-1.0364,-1.0681,-1.0776,-1.0965,-1.1216,-1.1463,-1.1591,-1.184,-1.2089,-1.2371,-1.2652,-1.3046,-1.3584,-1.435,-1.5025,-1.558,-1.5931,-1.6296,-1.6596,-1.6869,-1.7022,-1.7223,-1.7384,-1.7623,-1.7893,-1.81,-1.8479,-1.8774,-1.8887,-1.904,-1.9166,-1.9146,-1.9072,-1.8999,-1.8919,-1.8706,-1.8431,-1.8121,-1.7947,-1.7783,-1.7433,-1.6375,-1.5753,-1.514,-1.4247,-1.3458,-1.3103,-1.2837,-1.2554,-1.2481,-1.2701,-1.2725,-1.253,-1.2387,-1.2269,-1.22,-1.2204,-1.218,-1.2051,-1.1923,-1.1864,-1.178,-1.1834,-1.1893,-1.2017,-1.2136,-1.223,-1.2324,-1.2457,-1.2638,-1.2773,-1.2892,-1.3078,-1.3367,-1.3797,-1.4235,-1.4455,-1.4673,-1.4655,-1.4558,-1.4455,-1.4281,-1.4194,-1.4095,-1.4035,-1.3981,-1.3881,-1.3776,-1.3449,-1.3166,-1.3137,-1.306,-1.2978,-1.2808,-1.2574,-1.2427,-1.2309,-1.219,-1.224,-1.2441,-0.6878,-0.7267,-0.7624,-0.7849,-0.8017,-0.8182,-0.8349,-0.8476,-0.8598,-0.8791,-0.9119,-0.9405,-0.9629,-0.9751,-0.9783,-0.9977,-1.0301,-1.0308,-1.0495,-1.0741,-1.0996,-1.1122,-1.1373,-1.1685,-1.1903,-1.2182,-1.2736,-1.3368,-1.4048,-1.4617,-1.5084,-1.5434,-1.5778,-1.6192,-1.64,-1.665,-1.6886,-1.7077,-1.7223,-1.7418,-1.7667,-1.8024,-1.8284,-1.8365,-1.8485,-1.8619,-1.8593,-1.8518,-1.8452,-1.835,-1.8133,-1.7881,-1.7601,-1.739,-1.7186,-1.6662,-1.5834,-1.4966,-1.4506,-1.3766,-1.2852,-1.255,-1.2201,-1.1893,-1.1439,-1.1631,-1.183,-1.166,-1.1689,-1.1598,-1.1544,-1.1548,-1.1423,-1.1297,-1.1137,-1.1028,-1.0973,-1.0943,-1.0977,-1.1006,-1.1133,-1.1284,-1.1376,-1.1476,-1.1609,-1.1704,-1.1823,-1.2172,-1.2449,-1.2614,-1.3048,-1.3387,-1.3561,-1.3795,-1.3813,-1.3713,-1.3589,-1.3505,-1.3443,-1.3472,-1.3425,-1.3166,-1.29,-1.2559,-1.2383,-1.2452,-1.2407,-1.2269,-1.2121,-1.1889,-1.1769,-1.1678,-1.1553,-1.1398,-1.1519,-0.6583,-0.6946,-0.7297,-0.7493,-0.7634,-0.7792,-0.7889,-0.7917,-0.8039,-0.8134,-0.8239,-0.8665,-0.9046,-0.93,-0.9454,-0.9652,-0.9817,-0.9884,-1.0044,-1.0241,-1.0466,-1.0684,-1.0968,-1.1251,-1.1498,-1.1934,-1.2521,-1.2946,-1.3454,-1.4056,-1.4533,-1.4711,-1.5152,-1.5686,-1.5907,-1.6223,-1.6575,-1.6722,-1.6853,-1.7027,-1.7307,-1.7612,-1.7793,-1.7909,-1.7975,-1.8063,-1.8057,-1.7997,-1.7963,-1.7799,-1.7612,-1.7329,-1.7072,-1.6809,-1.6482,-1.5972,-1.5169,-1.4421,-1.385,-1.3055,-1.2447,-1.2002,-1.1598,-1.1167,-1.071,-1.0604,-1.0804,-1.0829,-1.0858,-1.0939,-1.0884,-1.0833,-1.071,-1.0557,-1.0374,-1.0212,-1.0156,-1.0105,-1.0113,-1.0095,-1.0198,-1.0348,-1.0425,-1.0523,-1.0596,-1.0668,-1.0889,-1.1283,-1.16,-1.1674,-1.1918,-1.2164,-1.2345,-1.2599,-1.3001,-1.3001,-1.2876,-1.2813,-1.2798,-1.2866,-1.2817,-1.2481,-1.2067,-1.1619,-1.1519,-1.1685,-1.1635,-1.1489,-1.1318,-1.1167,-1.1057,-1.0926,-1.0804,-1.0651,-1.0578,-0.6513,-0.6911,-0.6979,-0.7042,-0.7077,-0.7269,-0.7368,-0.7365,-0.7559,-0.7689,-0.7792,-0.7922,-0.8279,-0.8929,-0.9052,-0.9212,-0.937,-0.9434,-0.9632,-0.9894,-0.9986,-1.0304,-1.0621,-1.087,-1.1216,-1.1716,-1.2278,-1.2709,-1.3068,-1.3614,-1.401,-1.4185,-1.4784,-1.5191,-1.5381,-1.5758,-1.6085,-1.6252,-1.6485,-1.6684,-1.6858,-1.7162,-1.7501,-1.7612,-1.7706,-1.7761,-1.7761,-1.7678,-1.7612,-1.7446,-1.7172,-1.6802,-1.6482,-1.6169,-1.5813,-1.5266,-1.4429,-1.3769,-1.3108,-1.2419,-1.1909,-1.1423,-1.0985,-1.0468,-1.0061,-0.9747,-0.9821,-0.9721,-0.9825,-1.0053,-1.0075,-1.0123,-1.0024,-0.9821,-0.964,-0.951,-0.9406,-0.9383,-0.9391,-0.9394,-0.9417,-0.9495,-0.9521,-0.9569,-0.9621,-0.9692,-0.9817,-1.024,-1.0711,-1.077,-1.0825,-1.0947,-1.1116,-1.1785,-1.2314,-1.2309,-1.221,-1.2146,-1.2067,-1.2004,-1.1904,-1.1694,-1.1301,-1.0837,-1.0812,-1.0989,-1.0867,-1.0706,-1.0553,-1.0421,-1.0277,-1.0171,-1.0024,-0.9925,-0.9825]}]]